<?xml version="1.0" encoding="UTF-8" standalone="no" ?>
<gpx xmlns="http://www.topografix.com/GPX/1/1" xmlns:xsi="http://www.w3.org/2001/XMLSchema-instance" xsi:schemaLocation="http://www.topografix.com/GPX/1/1 http://www.topografix.com/GPX/1/1/gpx.xsd" version="1.1" creator="VisuGPX - https://www.visugpx.com">
  <metadata>
    <name>RANDO LALOUVESC 26KM</name>
    <desc><![CDATA[RANDO EN BOUCLE LALOUVESC 26KM.DEPART LALOUVESC.COL DU ROUVEY.CHIRAT BLANC.CROIX DE BOIREY.BELLEVUE.CHATEAU DE MAHUN.VEYRINES.SUC DE LA BACHE MONTCHAIX]]></desc>
  </metadata>
  <trk>
    <name><![CDATA[LALOUVESÇ]]></name>
    <trkseg>
      <trkpt lat="45.11998" lon="4.53484">
        <ele>1080.66</ele>
        <time>2017-07-16T08:00:04Z</time>
      </trkpt>
      <trkpt lat="45.11999" lon="4.53483">
        <ele>1082.1</ele>
        <time>2017-07-16T08:00:14Z</time>
      </trkpt>
      <trkpt lat="45.12002" lon="4.53482">
        <ele>1083.06</ele>
        <time>2017-07-16T08:00:25Z</time>
      </trkpt>
      <trkpt lat="45.12005" lon="4.53485">
        <ele>1081.14</ele>
        <time>2017-07-16T08:00:40Z</time>
      </trkpt>
      <trkpt lat="45.12005" lon="4.53484">
        <ele>1081.14</ele>
        <time>2017-07-16T08:01:04Z</time>
      </trkpt>
      <trkpt lat="45.12006" lon="4.53483">
        <ele>1080.66</ele>
        <time>2017-07-16T08:01:06Z</time>
      </trkpt>
      <trkpt lat="45.12021" lon="4.53481">
        <ele>1082.1</ele>
        <time>2017-07-16T08:01:21Z</time>
      </trkpt>
      <trkpt lat="45.12024" lon="4.53479">
        <ele>1082.58</ele>
        <time>2017-07-16T08:01:24Z</time>
      </trkpt>
      <trkpt lat="45.12038" lon="4.53482">
        <ele>1085.95</ele>
        <time>2017-07-16T08:01:36Z</time>
      </trkpt>
      <trkpt lat="45.1206" lon="4.53479">
        <ele>1092.2</ele>
        <time>2017-07-16T08:01:52Z</time>
      </trkpt>
      <trkpt lat="45.1208" lon="4.53488">
        <ele>1098.92</ele>
        <time>2017-07-16T08:02:09Z</time>
      </trkpt>
      <trkpt lat="45.12082" lon="4.53489">
        <ele>1099.4</ele>
        <time>2017-07-16T08:02:10Z</time>
      </trkpt>
      <trkpt lat="45.12108" lon="4.53485">
        <ele>1101.33</ele>
        <time>2017-07-16T08:02:31Z</time>
      </trkpt>
      <trkpt lat="45.12125" lon="4.53477">
        <ele>1103.73</ele>
        <time>2017-07-16T08:02:47Z</time>
      </trkpt>
      <trkpt lat="45.12158" lon="4.53475">
        <ele>1103.73</ele>
        <time>2017-07-16T08:03:07Z</time>
      </trkpt>
      <trkpt lat="45.12179" lon="4.53472">
        <ele>1103.73</ele>
        <time>2017-07-16T08:03:23Z</time>
      </trkpt>
      <trkpt lat="45.12202" lon="4.53474">
        <ele>1105.17</ele>
        <time>2017-07-16T08:03:42Z</time>
      </trkpt>
      <trkpt lat="45.12207" lon="4.53476">
        <ele>1105.65</ele>
        <time>2017-07-16T08:03:46Z</time>
      </trkpt>
      <trkpt lat="45.12214" lon="4.53475">
        <ele>1107.1</ele>
        <time>2017-07-16T08:03:52Z</time>
      </trkpt>
      <trkpt lat="45.12237" lon="4.53473">
        <ele>1106.61</ele>
        <time>2017-07-16T08:04:11Z</time>
      </trkpt>
      <trkpt lat="45.12262" lon="4.53475">
        <ele>1107.58</ele>
        <time>2017-07-16T08:04:28Z</time>
      </trkpt>
      <trkpt lat="45.1228" lon="4.53483">
        <ele>1107.58</ele>
        <time>2017-07-16T08:04:42Z</time>
      </trkpt>
      <trkpt lat="45.12301" lon="4.53493">
        <ele>1108.06</ele>
        <time>2017-07-16T08:04:58Z</time>
      </trkpt>
      <trkpt lat="45.12322" lon="4.53507">
        <ele>1106.61</ele>
        <time>2017-07-16T08:05:15Z</time>
      </trkpt>
      <trkpt lat="45.12339" lon="4.53525">
        <ele>1105.65</ele>
        <time>2017-07-16T08:05:33Z</time>
      </trkpt>
      <trkpt lat="45.1235" lon="4.53529">
        <ele>1105.65</ele>
        <time>2017-07-16T08:05:42Z</time>
      </trkpt>
      <trkpt lat="45.12353" lon="4.53532">
        <ele>1105.65</ele>
        <time>2017-07-16T08:05:45Z</time>
      </trkpt>
      <trkpt lat="45.12357" lon="4.5355">
        <ele>1107.1</ele>
        <time>2017-07-16T08:05:56Z</time>
      </trkpt>
      <trkpt lat="45.1236" lon="4.53571">
        <ele>1109.02</ele>
        <time>2017-07-16T08:06:12Z</time>
      </trkpt>
      <trkpt lat="45.12361" lon="4.53571">
        <ele>1109.02</ele>
        <time>2017-07-16T08:06:13Z</time>
      </trkpt>
      <trkpt lat="45.12386" lon="4.53577">
        <ele>1110.46</ele>
        <time>2017-07-16T08:06:32Z</time>
      </trkpt>
      <trkpt lat="45.12405" lon="4.53581">
        <ele>1109.02</ele>
        <time>2017-07-16T08:06:49Z</time>
      </trkpt>
      <trkpt lat="45.12414" lon="4.53584">
        <ele>1109.02</ele>
        <time>2017-07-16T08:07:06Z</time>
      </trkpt>
      <trkpt lat="45.12419" lon="4.53588">
        <ele>1108.54</ele>
        <time>2017-07-16T08:07:30Z</time>
      </trkpt>
      <trkpt lat="45.1242" lon="4.53586">
        <ele>1108.54</ele>
        <time>2017-07-16T08:07:48Z</time>
      </trkpt>
      <trkpt lat="45.12418" lon="4.53585">
        <ele>1107.1</ele>
        <time>2017-07-16T08:08:05Z</time>
      </trkpt>
      <trkpt lat="45.12433" lon="4.53588">
        <ele>1108.54</ele>
        <time>2017-07-16T08:08:18Z</time>
      </trkpt>
      <trkpt lat="45.12455" lon="4.53594">
        <ele>1109.02</ele>
        <time>2017-07-16T08:08:34Z</time>
      </trkpt>
      <trkpt lat="45.12476" lon="4.53595">
        <ele>1111.9</ele>
        <time>2017-07-16T08:08:50Z</time>
      </trkpt>
      <trkpt lat="45.12497" lon="4.53596">
        <ele>1114.79</ele>
        <time>2017-07-16T08:09:07Z</time>
      </trkpt>
      <trkpt lat="45.12518" lon="4.536">
        <ele>1117.67</ele>
        <time>2017-07-16T08:09:24Z</time>
      </trkpt>
      <trkpt lat="45.1252" lon="4.53601">
        <ele>1117.67</ele>
        <time>2017-07-16T08:09:26Z</time>
      </trkpt>
      <trkpt lat="45.1254" lon="4.53609">
        <ele>1120.55</ele>
        <time>2017-07-16T08:09:45Z</time>
      </trkpt>
      <trkpt lat="45.1256" lon="4.53616">
        <ele>1124.4</ele>
        <time>2017-07-16T08:10:02Z</time>
      </trkpt>
      <trkpt lat="45.12569" lon="4.53616">
        <ele>1125.36</ele>
        <time>2017-07-16T08:10:09Z</time>
      </trkpt>
      <trkpt lat="45.12598" lon="4.53617">
        <ele>1127.76</ele>
        <time>2017-07-16T08:10:30Z</time>
      </trkpt>
      <trkpt lat="45.12599" lon="4.53617">
        <ele>1127.76</ele>
        <time>2017-07-16T08:10:31Z</time>
      </trkpt>
      <trkpt lat="45.12605" lon="4.53618">
        <ele>1128.24</ele>
        <time>2017-07-16T08:10:36Z</time>
      </trkpt>
      <trkpt lat="45.12629" lon="4.53618">
        <ele>1131.13</ele>
        <time>2017-07-16T08:10:54Z</time>
      </trkpt>
      <trkpt lat="45.12652" lon="4.53622">
        <ele>1135.45</ele>
        <time>2017-07-16T08:11:11Z</time>
      </trkpt>
      <trkpt lat="45.12672" lon="4.5362">
        <ele>1138.34</ele>
        <time>2017-07-16T08:11:28Z</time>
      </trkpt>
      <trkpt lat="45.12693" lon="4.53618">
        <ele>1139.3</ele>
        <time>2017-07-16T08:11:43Z</time>
      </trkpt>
      <trkpt lat="45.12708" lon="4.53622">
        <ele>1142.66</ele>
        <time>2017-07-16T08:11:56Z</time>
      </trkpt>
      <trkpt lat="45.12723" lon="4.53622">
        <ele>1146.03</ele>
        <time>2017-07-16T08:12:10Z</time>
      </trkpt>
      <trkpt lat="45.12733" lon="4.53622">
        <ele>1147.95</ele>
        <time>2017-07-16T08:12:20Z</time>
      </trkpt>
      <trkpt lat="45.12749" lon="4.53616">
        <ele>1153.72</ele>
        <time>2017-07-16T08:12:36Z</time>
      </trkpt>
      <trkpt lat="45.12758" lon="4.5361">
        <ele>1158.05</ele>
        <time>2017-07-16T08:12:44Z</time>
      </trkpt>
      <trkpt lat="45.1276" lon="4.53609">
        <ele>1159.49</ele>
        <time>2017-07-16T08:12:46Z</time>
      </trkpt>
      <trkpt lat="45.12774" lon="4.53604">
        <ele>1159.01</ele>
        <time>2017-07-16T08:12:59Z</time>
      </trkpt>
      <trkpt lat="45.12785" lon="4.53601">
        <ele>1163.81</ele>
        <time>2017-07-16T08:13:10Z</time>
      </trkpt>
      <trkpt lat="45.12798" lon="4.53592">
        <ele>1175.35</ele>
        <time>2017-07-16T08:13:25Z</time>
      </trkpt>
      <trkpt lat="45.12811" lon="4.53585">
        <ele>1186.4</ele>
        <time>2017-07-16T08:13:39Z</time>
      </trkpt>
      <trkpt lat="45.12817" lon="4.53578">
        <ele>1189.29</ele>
        <time>2017-07-16T08:13:45Z</time>
      </trkpt>
      <trkpt lat="45.12834" lon="4.53565">
        <ele>1196.98</ele>
        <time>2017-07-16T08:14:01Z</time>
      </trkpt>
      <trkpt lat="45.12838" lon="4.53563">
        <ele>1198.42</ele>
        <time>2017-07-16T08:14:07Z</time>
      </trkpt>
      <trkpt lat="45.12851" lon="4.53558">
        <ele>1205.15</ele>
        <time>2017-07-16T08:14:20Z</time>
      </trkpt>
      <trkpt lat="45.12865" lon="4.53549">
        <ele>1205.15</ele>
        <time>2017-07-16T08:14:32Z</time>
      </trkpt>
      <trkpt lat="45.1289" lon="4.53541">
        <ele>1195.54</ele>
        <time>2017-07-16T08:14:46Z</time>
      </trkpt>
      <trkpt lat="45.12913" lon="4.53545">
        <ele>1191.69</ele>
        <time>2017-07-16T08:15:02Z</time>
      </trkpt>
      <trkpt lat="45.12915" lon="4.53544">
        <ele>1191.21</ele>
        <time>2017-07-16T08:15:04Z</time>
      </trkpt>
      <trkpt lat="45.12928" lon="4.5354">
        <ele>1193.61</ele>
        <time>2017-07-16T08:15:17Z</time>
      </trkpt>
      <trkpt lat="45.12943" lon="4.53538">
        <ele>1196.98</ele>
        <time>2017-07-16T08:15:31Z</time>
      </trkpt>
      <trkpt lat="45.12956" lon="4.53536">
        <ele>1199.86</ele>
        <time>2017-07-16T08:15:42Z</time>
      </trkpt>
      <trkpt lat="45.1297" lon="4.53538">
        <ele>1205.15</ele>
        <time>2017-07-16T08:15:54Z</time>
      </trkpt>
      <trkpt lat="45.12978" lon="4.53536">
        <ele>1209.96</ele>
        <time>2017-07-16T08:16:01Z</time>
      </trkpt>
      <trkpt lat="45.12998" lon="4.53543">
        <ele>1219.57</ele>
        <time>2017-07-16T08:16:15Z</time>
      </trkpt>
      <trkpt lat="45.13004" lon="4.53543">
        <ele>1221.01</ele>
        <time>2017-07-16T08:16:20Z</time>
      </trkpt>
      <trkpt lat="45.1301" lon="4.53543">
        <ele>1223.42</ele>
        <time>2017-07-16T08:16:25Z</time>
      </trkpt>
      <trkpt lat="45.13017" lon="4.53545">
        <ele>1225.82</ele>
        <time>2017-07-16T08:16:31Z</time>
      </trkpt>
      <trkpt lat="45.13025" lon="4.53547">
        <ele>1230.62</ele>
        <time>2017-07-16T08:16:38Z</time>
      </trkpt>
      <trkpt lat="45.13038" lon="4.53539">
        <ele>1229.66</ele>
        <time>2017-07-16T08:16:50Z</time>
      </trkpt>
      <trkpt lat="45.13043" lon="4.53532">
        <ele>1225.34</ele>
        <time>2017-07-16T08:16:55Z</time>
      </trkpt>
      <trkpt lat="45.13052" lon="4.53514">
        <ele>1223.9</ele>
        <time>2017-07-16T08:17:08Z</time>
      </trkpt>
      <trkpt lat="45.13058" lon="4.53496">
        <ele>1223.9</ele>
        <time>2017-07-16T08:17:22Z</time>
      </trkpt>
      <trkpt lat="45.13064" lon="4.53477">
        <ele>1220.53</ele>
        <time>2017-07-16T08:17:34Z</time>
      </trkpt>
      <trkpt lat="45.13067" lon="4.53471">
        <ele>1220.05</ele>
        <time>2017-07-16T08:17:38Z</time>
      </trkpt>
      <trkpt lat="45.13072" lon="4.53452">
        <ele>1216.21</ele>
        <time>2017-07-16T08:17:51Z</time>
      </trkpt>
      <trkpt lat="45.13076" lon="4.53444">
        <ele>1216.69</ele>
        <time>2017-07-16T08:17:56Z</time>
      </trkpt>
      <trkpt lat="45.13081" lon="4.53432">
        <ele>1216.69</ele>
        <time>2017-07-16T08:18:04Z</time>
      </trkpt>
      <trkpt lat="45.13085" lon="4.53419">
        <ele>1214.28</ele>
        <time>2017-07-16T08:18:13Z</time>
      </trkpt>
      <trkpt lat="45.13086" lon="4.53397">
        <ele>1212.36</ele>
        <time>2017-07-16T08:18:26Z</time>
      </trkpt>
      <trkpt lat="45.13083" lon="4.53378">
        <ele>1206.11</ele>
        <time>2017-07-16T08:18:39Z</time>
      </trkpt>
      <trkpt lat="45.13083" lon="4.53356">
        <ele>1210.44</ele>
        <time>2017-07-16T08:18:52Z</time>
      </trkpt>
      <trkpt lat="45.1308" lon="4.53336">
        <ele>1220.05</ele>
        <time>2017-07-16T08:19:05Z</time>
      </trkpt>
      <trkpt lat="45.13079" lon="4.53332">
        <ele>1221.01</ele>
        <time>2017-07-16T08:19:08Z</time>
      </trkpt>
      <trkpt lat="45.13079" lon="4.53317">
        <ele>1220.05</ele>
        <time>2017-07-16T08:19:18Z</time>
      </trkpt>
      <trkpt lat="45.1308" lon="4.53304">
        <ele>1220.05</ele>
        <time>2017-07-16T08:19:26Z</time>
      </trkpt>
      <trkpt lat="45.1308" lon="4.53283">
        <ele>1221.49</ele>
        <time>2017-07-16T08:19:39Z</time>
      </trkpt>
      <trkpt lat="45.13078" lon="4.53254">
        <ele>1218.13</ele>
        <time>2017-07-16T08:19:55Z</time>
      </trkpt>
      <trkpt lat="45.13077" lon="4.53227">
        <ele>1218.61</ele>
        <time>2017-07-16T08:20:12Z</time>
      </trkpt>
      <trkpt lat="45.13077" lon="4.53206">
        <ele>1219.57</ele>
        <time>2017-07-16T08:20:26Z</time>
      </trkpt>
      <trkpt lat="45.13077" lon="4.53204">
        <ele>1220.05</ele>
        <time>2017-07-16T08:20:27Z</time>
      </trkpt>
      <trkpt lat="45.13077" lon="4.53199">
        <ele>1221.97</ele>
        <time>2017-07-16T08:20:31Z</time>
      </trkpt>
      <trkpt lat="45.13078" lon="4.53181">
        <ele>1226.78</ele>
        <time>2017-07-16T08:20:44Z</time>
      </trkpt>
      <trkpt lat="45.13078" lon="4.53174">
        <ele>1227.74</ele>
        <time>2017-07-16T08:20:48Z</time>
      </trkpt>
      <trkpt lat="45.13079" lon="4.53147">
        <ele>1230.14</ele>
        <time>2017-07-16T08:21:04Z</time>
      </trkpt>
      <trkpt lat="45.13081" lon="4.53122">
        <ele>1229.18</ele>
        <time>2017-07-16T08:21:16Z</time>
      </trkpt>
      <trkpt lat="45.13082" lon="4.53096">
        <ele>1230.62</ele>
        <time>2017-07-16T08:21:31Z</time>
      </trkpt>
      <trkpt lat="45.13086" lon="4.53076">
        <ele>1229.66</ele>
        <time>2017-07-16T08:21:43Z</time>
      </trkpt>
      <trkpt lat="45.13086" lon="4.53069">
        <ele>1228.7</ele>
        <time>2017-07-16T08:21:46Z</time>
      </trkpt>
      <trkpt lat="45.13089" lon="4.53039">
        <ele>1228.22</ele>
        <time>2017-07-16T08:22:03Z</time>
      </trkpt>
      <trkpt lat="45.13091" lon="4.53032">
        <ele>1228.7</ele>
        <time>2017-07-16T08:22:07Z</time>
      </trkpt>
      <trkpt lat="45.13095" lon="4.53009">
        <ele>1224.86</ele>
        <time>2017-07-16T08:22:20Z</time>
      </trkpt>
      <trkpt lat="45.13096" lon="4.52995">
        <ele>1223.9</ele>
        <time>2017-07-16T08:22:31Z</time>
      </trkpt>
      <trkpt lat="45.13101" lon="4.52976">
        <ele>1222.93</ele>
        <time>2017-07-16T08:22:45Z</time>
      </trkpt>
      <trkpt lat="45.13104" lon="4.52957">
        <ele>1221.01</ele>
        <time>2017-07-16T08:22:59Z</time>
      </trkpt>
      <trkpt lat="45.13109" lon="4.52946">
        <ele>1215.24</ele>
        <time>2017-07-16T08:23:11Z</time>
      </trkpt>
      <trkpt lat="45.13112" lon="4.5293">
        <ele>1215.24</ele>
        <time>2017-07-16T08:23:26Z</time>
      </trkpt>
      <trkpt lat="45.13118" lon="4.5291">
        <ele>1219.57</ele>
        <time>2017-07-16T08:23:41Z</time>
      </trkpt>
      <trkpt lat="45.13122" lon="4.52886">
        <ele>1223.9</ele>
        <time>2017-07-16T08:23:56Z</time>
      </trkpt>
      <trkpt lat="45.13123" lon="4.52877">
        <ele>1222.93</ele>
        <time>2017-07-16T08:24:01Z</time>
      </trkpt>
      <trkpt lat="45.13126" lon="4.52872">
        <ele>1221.97</ele>
        <time>2017-07-16T08:24:05Z</time>
      </trkpt>
      <trkpt lat="45.13139" lon="4.52845">
        <ele>1219.57</ele>
        <time>2017-07-16T08:24:23Z</time>
      </trkpt>
      <trkpt lat="45.13145" lon="4.52828">
        <ele>1220.05</ele>
        <time>2017-07-16T08:24:37Z</time>
      </trkpt>
      <trkpt lat="45.13146" lon="4.52822">
        <ele>1221.97</ele>
        <time>2017-07-16T08:24:42Z</time>
      </trkpt>
      <trkpt lat="45.13145" lon="4.52811">
        <ele>1222.45</ele>
        <time>2017-07-16T08:24:48Z</time>
      </trkpt>
      <trkpt lat="45.13147" lon="4.52783">
        <ele>1221.49</ele>
        <time>2017-07-16T08:25:04Z</time>
      </trkpt>
      <trkpt lat="45.1315" lon="4.52775">
        <ele>1221.01</ele>
        <time>2017-07-16T08:25:09Z</time>
      </trkpt>
      <trkpt lat="45.1316" lon="4.5275">
        <ele>1219.09</ele>
        <time>2017-07-16T08:25:24Z</time>
      </trkpt>
      <trkpt lat="45.13169" lon="4.52728">
        <ele>1219.57</ele>
        <time>2017-07-16T08:25:38Z</time>
      </trkpt>
      <trkpt lat="45.13179" lon="4.52704">
        <ele>1216.21</ele>
        <time>2017-07-16T08:25:54Z</time>
      </trkpt>
      <trkpt lat="45.13197" lon="4.52678">
        <ele>1210.44</ele>
        <time>2017-07-16T08:26:12Z</time>
      </trkpt>
      <trkpt lat="45.13212" lon="4.52667">
        <ele>1213.8</ele>
        <time>2017-07-16T08:26:27Z</time>
      </trkpt>
      <trkpt lat="45.13223" lon="4.52666">
        <ele>1215.24</ele>
        <time>2017-07-16T08:26:36Z</time>
      </trkpt>
      <trkpt lat="45.13237" lon="4.52664">
        <ele>1214.28</ele>
        <time>2017-07-16T08:26:46Z</time>
      </trkpt>
      <trkpt lat="45.13259" lon="4.52653">
        <ele>1215.24</ele>
        <time>2017-07-16T08:27:03Z</time>
      </trkpt>
      <trkpt lat="45.13262" lon="4.52652">
        <ele>1215.24</ele>
        <time>2017-07-16T08:27:10Z</time>
      </trkpt>
      <trkpt lat="45.13263" lon="4.52642">
        <ele>1212.84</ele>
        <time>2017-07-16T08:27:20Z</time>
      </trkpt>
      <trkpt lat="45.13268" lon="4.52638">
        <ele>1212.84</ele>
        <time>2017-07-16T08:27:24Z</time>
      </trkpt>
      <trkpt lat="45.13276" lon="4.52631">
        <ele>1211.88</ele>
        <time>2017-07-16T08:27:37Z</time>
      </trkpt>
      <trkpt lat="45.13283" lon="4.52622">
        <ele>1209</ele>
        <time>2017-07-16T08:27:54Z</time>
      </trkpt>
      <trkpt lat="45.13294" lon="4.526">
        <ele>1204.67</ele>
        <time>2017-07-16T08:28:08Z</time>
      </trkpt>
      <trkpt lat="45.13303" lon="4.5258">
        <ele>1208.03</ele>
        <time>2017-07-16T08:28:22Z</time>
      </trkpt>
      <trkpt lat="45.13305" lon="4.52575">
        <ele>1209</ele>
        <time>2017-07-16T08:28:26Z</time>
      </trkpt>
      <trkpt lat="45.13325" lon="4.52569">
        <ele>1209.96</ele>
        <time>2017-07-16T08:28:41Z</time>
      </trkpt>
      <trkpt lat="45.13326" lon="4.52569">
        <ele>1209.48</ele>
        <time>2017-07-16T08:28:42Z</time>
      </trkpt>
      <trkpt lat="45.13333" lon="4.52574">
        <ele>1206.11</ele>
        <time>2017-07-16T08:28:48Z</time>
      </trkpt>
      <trkpt lat="45.13348" lon="4.52599">
        <ele>1204.19</ele>
        <time>2017-07-16T08:29:06Z</time>
      </trkpt>
      <trkpt lat="45.13363" lon="4.52623">
        <ele>1205.63</ele>
        <time>2017-07-16T08:29:22Z</time>
      </trkpt>
      <trkpt lat="45.13383" lon="4.52632">
        <ele>1203.71</ele>
        <time>2017-07-16T08:29:39Z</time>
      </trkpt>
      <trkpt lat="45.1341" lon="4.52641">
        <ele>1199.86</ele>
        <time>2017-07-16T08:29:59Z</time>
      </trkpt>
      <trkpt lat="45.13414" lon="4.52642">
        <ele>1200.82</ele>
        <time>2017-07-16T08:30:03Z</time>
      </trkpt>
      <trkpt lat="45.13421" lon="4.52645">
        <ele>1201.79</ele>
        <time>2017-07-16T08:30:08Z</time>
      </trkpt>
      <trkpt lat="45.13424" lon="4.52645">
        <ele>1201.79</ele>
        <time>2017-07-16T08:30:10Z</time>
      </trkpt>
      <trkpt lat="45.13444" lon="4.5265">
        <ele>1202.27</ele>
        <time>2017-07-16T08:30:25Z</time>
      </trkpt>
      <trkpt lat="45.13465" lon="4.52648">
        <ele>1199.86</ele>
        <time>2017-07-16T08:30:41Z</time>
      </trkpt>
      <trkpt lat="45.13486" lon="4.52643">
        <ele>1196.98</ele>
        <time>2017-07-16T08:30:56Z</time>
      </trkpt>
      <trkpt lat="45.13511" lon="4.52634">
        <ele>1194.09</ele>
        <time>2017-07-16T08:31:14Z</time>
      </trkpt>
      <trkpt lat="45.13519" lon="4.52632">
        <ele>1193.13</ele>
        <time>2017-07-16T08:31:20Z</time>
      </trkpt>
      <trkpt lat="45.13526" lon="4.52633">
        <ele>1194.09</ele>
        <time>2017-07-16T08:31:25Z</time>
      </trkpt>
      <trkpt lat="45.13531" lon="4.52634">
        <ele>1194.09</ele>
        <time>2017-07-16T08:31:29Z</time>
      </trkpt>
      <trkpt lat="45.1355" lon="4.52642">
        <ele>1195.54</ele>
        <time>2017-07-16T08:31:47Z</time>
      </trkpt>
      <trkpt lat="45.13566" lon="4.52647">
        <ele>1197.94</ele>
        <time>2017-07-16T08:32:02Z</time>
      </trkpt>
      <trkpt lat="45.13584" lon="4.52657">
        <ele>1201.3</ele>
        <time>2017-07-16T08:32:19Z</time>
      </trkpt>
      <trkpt lat="45.13589" lon="4.52659">
        <ele>1201.79</ele>
        <time>2017-07-16T08:32:24Z</time>
      </trkpt>
      <trkpt lat="45.136" lon="4.52668">
        <ele>1207.07</ele>
        <time>2017-07-16T08:32:38Z</time>
      </trkpt>
      <trkpt lat="45.13609" lon="4.52675">
        <ele>1210.92</ele>
        <time>2017-07-16T08:32:51Z</time>
      </trkpt>
      <trkpt lat="45.13616" lon="4.52679">
        <ele>1212.36</ele>
        <time>2017-07-16T08:32:59Z</time>
      </trkpt>
      <trkpt lat="45.13627" lon="4.52685">
        <ele>1218.13</ele>
        <time>2017-07-16T08:33:12Z</time>
      </trkpt>
      <trkpt lat="45.1364" lon="4.52699">
        <ele>1220.53</ele>
        <time>2017-07-16T08:33:26Z</time>
      </trkpt>
      <trkpt lat="45.13651" lon="4.52707">
        <ele>1222.45</ele>
        <time>2017-07-16T08:33:40Z</time>
      </trkpt>
      <trkpt lat="45.13656" lon="4.52712">
        <ele>1225.34</ele>
        <time>2017-07-16T08:33:46Z</time>
      </trkpt>
      <trkpt lat="45.13659" lon="4.52717">
        <ele>1224.86</ele>
        <time>2017-07-16T08:33:50Z</time>
      </trkpt>
      <trkpt lat="45.13669" lon="4.52734">
        <ele>1225.34</ele>
        <time>2017-07-16T08:34:05Z</time>
      </trkpt>
      <trkpt lat="45.13677" lon="4.5275">
        <ele>1229.66</ele>
        <time>2017-07-16T08:34:19Z</time>
      </trkpt>
      <trkpt lat="45.13689" lon="4.52767">
        <ele>1232.07</ele>
        <time>2017-07-16T08:34:34Z</time>
      </trkpt>
      <trkpt lat="45.13701" lon="4.52777">
        <ele>1231.59</ele>
        <time>2017-07-16T08:34:48Z</time>
      </trkpt>
      <trkpt lat="45.13718" lon="4.52786">
        <ele>1235.43</ele>
        <time>2017-07-16T08:35:02Z</time>
      </trkpt>
      <trkpt lat="45.1373" lon="4.52795">
        <ele>1235.43</ele>
        <time>2017-07-16T08:35:14Z</time>
      </trkpt>
      <trkpt lat="45.13747" lon="4.52804">
        <ele>1238.32</ele>
        <time>2017-07-16T08:35:30Z</time>
      </trkpt>
      <trkpt lat="45.1375" lon="4.52804">
        <ele>1238.32</ele>
        <time>2017-07-16T08:35:33Z</time>
      </trkpt>
      <trkpt lat="45.13755" lon="4.52806">
        <ele>1240.24</ele>
        <time>2017-07-16T08:35:41Z</time>
      </trkpt>
      <trkpt lat="45.1376" lon="4.52801">
        <ele>1241.2</ele>
        <time>2017-07-16T08:35:46Z</time>
      </trkpt>
      <trkpt lat="45.13778" lon="4.52794">
        <ele>1237.35</ele>
        <time>2017-07-16T08:36:01Z</time>
      </trkpt>
      <trkpt lat="45.13783" lon="4.52792">
        <ele>1237.35</ele>
        <time>2017-07-16T08:36:05Z</time>
      </trkpt>
      <trkpt lat="45.13799" lon="4.52783">
        <ele>1243.12</ele>
        <time>2017-07-16T08:36:20Z</time>
      </trkpt>
      <trkpt lat="45.13809" lon="4.52781">
        <ele>1245.53</ele>
        <time>2017-07-16T08:36:31Z</time>
      </trkpt>
      <trkpt lat="45.13811" lon="4.52781">
        <ele>1246.49</ele>
        <time>2017-07-16T08:36:33Z</time>
      </trkpt>
      <trkpt lat="45.13827" lon="4.52786">
        <ele>1251.29</ele>
        <time>2017-07-16T08:36:49Z</time>
      </trkpt>
      <trkpt lat="45.13836" lon="4.52792">
        <ele>1252.74</ele>
        <time>2017-07-16T08:36:59Z</time>
      </trkpt>
      <trkpt lat="45.13846" lon="4.52796">
        <ele>1251.77</ele>
        <time>2017-07-16T08:37:12Z</time>
      </trkpt>
      <trkpt lat="45.13855" lon="4.52804">
        <ele>1250.81</ele>
        <time>2017-07-16T08:37:24Z</time>
      </trkpt>
      <trkpt lat="45.13867" lon="4.52807">
        <ele>1251.77</ele>
        <time>2017-07-16T08:37:37Z</time>
      </trkpt>
      <trkpt lat="45.13879" lon="4.52814">
        <ele>1252.74</ele>
        <time>2017-07-16T08:37:50Z</time>
      </trkpt>
      <trkpt lat="45.1388" lon="4.52814">
        <ele>1252.74</ele>
        <time>2017-07-16T08:37:51Z</time>
      </trkpt>
      <trkpt lat="45.13892" lon="4.52816">
        <ele>1253.7</ele>
        <time>2017-07-16T08:38:03Z</time>
      </trkpt>
      <trkpt lat="45.13905" lon="4.52815">
        <ele>1257.06</ele>
        <time>2017-07-16T08:38:17Z</time>
      </trkpt>
      <trkpt lat="45.13913" lon="4.52806">
        <ele>1257.06</ele>
        <time>2017-07-16T08:38:27Z</time>
      </trkpt>
      <trkpt lat="45.13915" lon="4.52803">
        <ele>1257.54</ele>
        <time>2017-07-16T08:38:30Z</time>
      </trkpt>
      <trkpt lat="45.13919" lon="4.5279">
        <ele>1259.94</ele>
        <time>2017-07-16T08:38:39Z</time>
      </trkpt>
      <trkpt lat="45.13925" lon="4.52771">
        <ele>1266.67</ele>
        <time>2017-07-16T08:38:53Z</time>
      </trkpt>
      <trkpt lat="45.13928" lon="4.52754">
        <ele>1273.4</ele>
        <time>2017-07-16T08:39:06Z</time>
      </trkpt>
      <trkpt lat="45.13935" lon="4.52735">
        <ele>1273.4</ele>
        <time>2017-07-16T08:39:21Z</time>
      </trkpt>
      <trkpt lat="45.13947" lon="4.52714">
        <ele>1269.08</ele>
        <time>2017-07-16T08:39:34Z</time>
      </trkpt>
      <trkpt lat="45.13957" lon="4.52697">
        <ele>1265.23</ele>
        <time>2017-07-16T08:39:44Z</time>
      </trkpt>
      <trkpt lat="45.13967" lon="4.52676">
        <ele>1265.23</ele>
        <time>2017-07-16T08:39:57Z</time>
      </trkpt>
      <trkpt lat="45.13974" lon="4.5266">
        <ele>1264.27</ele>
        <time>2017-07-16T08:40:08Z</time>
      </trkpt>
      <trkpt lat="45.13983" lon="4.52644">
        <ele>1261.87</ele>
        <time>2017-07-16T08:40:20Z</time>
      </trkpt>
      <trkpt lat="45.13991" lon="4.52619">
        <ele>1261.39</ele>
        <time>2017-07-16T08:40:35Z</time>
      </trkpt>
      <trkpt lat="45.13998" lon="4.52601">
        <ele>1259.94</ele>
        <time>2017-07-16T08:40:46Z</time>
      </trkpt>
      <trkpt lat="45.13998" lon="4.526">
        <ele>1259.46</ele>
        <time>2017-07-16T08:40:47Z</time>
      </trkpt>
      <trkpt lat="45.14003" lon="4.52573">
        <ele>1254.18</ele>
        <time>2017-07-16T08:41:03Z</time>
      </trkpt>
      <trkpt lat="45.14006" lon="4.52556">
        <ele>1254.18</ele>
        <time>2017-07-16T08:41:16Z</time>
      </trkpt>
      <trkpt lat="45.14008" lon="4.52549">
        <ele>1252.74</ele>
        <time>2017-07-16T08:41:25Z</time>
      </trkpt>
      <trkpt lat="45.14011" lon="4.52539">
        <ele>1246.49</ele>
        <time>2017-07-16T08:41:35Z</time>
      </trkpt>
      <trkpt lat="45.14013" lon="4.52536">
        <ele>1241.68</ele>
        <time>2017-07-16T08:41:51Z</time>
      </trkpt>
      <trkpt lat="45.14013" lon="4.52535">
        <ele>1240.72</ele>
        <time>2017-07-16T08:42:10Z</time>
      </trkpt>
      <trkpt lat="45.14013" lon="4.52535">
        <ele>1239.76</ele>
        <time>2017-07-16T08:42:21Z</time>
      </trkpt>
      <trkpt lat="45.14014" lon="4.52533">
        <ele>1240.24</ele>
        <time>2017-07-16T08:42:32Z</time>
      </trkpt>
      <trkpt lat="45.14013" lon="4.52529">
        <ele>1240.72</ele>
        <time>2017-07-16T08:42:35Z</time>
      </trkpt>
      <trkpt lat="45.14009" lon="4.52517">
        <ele>1242.64</ele>
        <time>2017-07-16T08:42:48Z</time>
      </trkpt>
      <trkpt lat="45.14007" lon="4.52516">
        <ele>1241.68</ele>
        <time>2017-07-16T08:43:00Z</time>
      </trkpt>
      <trkpt lat="45.14004" lon="4.5252">
        <ele>1240.24</ele>
        <time>2017-07-16T08:43:10Z</time>
      </trkpt>
      <trkpt lat="45.14001" lon="4.52524">
        <ele>1240.72</ele>
        <time>2017-07-16T08:43:21Z</time>
      </trkpt>
      <trkpt lat="45.14001" lon="4.52526">
        <ele>1240.24</ele>
        <time>2017-07-16T08:43:34Z</time>
      </trkpt>
      <trkpt lat="45.14" lon="4.52525">
        <ele>1240.72</ele>
        <time>2017-07-16T08:43:47Z</time>
      </trkpt>
      <trkpt lat="45.13999" lon="4.52524">
        <ele>1240.72</ele>
        <time>2017-07-16T08:44:05Z</time>
      </trkpt>
      <trkpt lat="45.14001" lon="4.52523">
        <ele>1240.72</ele>
        <time>2017-07-16T08:44:15Z</time>
      </trkpt>
      <trkpt lat="45.14002" lon="4.52521">
        <ele>1239.76</ele>
        <time>2017-07-16T08:44:37Z</time>
      </trkpt>
      <trkpt lat="45.14003" lon="4.52521">
        <ele>1239.28</ele>
        <time>2017-07-16T08:44:50Z</time>
      </trkpt>
      <trkpt lat="45.14004" lon="4.52524">
        <ele>1238.32</ele>
        <time>2017-07-16T08:45:02Z</time>
      </trkpt>
      <trkpt lat="45.14003" lon="4.52526">
        <ele>1238.8</ele>
        <time>2017-07-16T08:45:25Z</time>
      </trkpt>
      <trkpt lat="45.14004" lon="4.52525">
        <ele>1241.2</ele>
        <time>2017-07-16T08:45:49Z</time>
      </trkpt>
      <trkpt lat="45.14004" lon="4.52524">
        <ele>1240.72</ele>
        <time>2017-07-16T08:46:02Z</time>
      </trkpt>
      <trkpt lat="45.14004" lon="4.52523">
        <ele>1240.72</ele>
        <time>2017-07-16T08:46:07Z</time>
      </trkpt>
      <trkpt lat="45.14005" lon="4.52513">
        <ele>1243.12</ele>
        <time>2017-07-16T08:46:21Z</time>
      </trkpt>
      <trkpt lat="45.14005" lon="4.52509">
        <ele>1242.64</ele>
        <time>2017-07-16T08:46:39Z</time>
      </trkpt>
      <trkpt lat="45.14005" lon="4.52509">
        <ele>1242.64</ele>
        <time>2017-07-16T08:46:45Z</time>
      </trkpt>
      <trkpt lat="45.14012" lon="4.5251">
        <ele>1242.16</ele>
        <time>2017-07-16T08:46:51Z</time>
      </trkpt>
      <trkpt lat="45.14016" lon="4.52507">
        <ele>1243.12</ele>
        <time>2017-07-16T08:46:56Z</time>
      </trkpt>
      <trkpt lat="45.1402" lon="4.52492">
        <ele>1245.04</ele>
        <time>2017-07-16T08:47:11Z</time>
      </trkpt>
      <trkpt lat="45.1402" lon="4.52491">
        <ele>1245.04</ele>
        <time>2017-07-16T08:47:12Z</time>
      </trkpt>
      <trkpt lat="45.14023" lon="4.52476">
        <ele>1246.97</ele>
        <time>2017-07-16T08:47:24Z</time>
      </trkpt>
      <trkpt lat="45.14025" lon="4.52462">
        <ele>1247.45</ele>
        <time>2017-07-16T08:47:37Z</time>
      </trkpt>
      <trkpt lat="45.1403" lon="4.52454">
        <ele>1249.37</ele>
        <time>2017-07-16T08:47:46Z</time>
      </trkpt>
      <trkpt lat="45.14031" lon="4.52453">
        <ele>1249.37</ele>
        <time>2017-07-16T08:47:48Z</time>
      </trkpt>
      <trkpt lat="45.14037" lon="4.52434">
        <ele>1251.77</ele>
        <time>2017-07-16T08:48:03Z</time>
      </trkpt>
      <trkpt lat="45.14044" lon="4.52419">
        <ele>1252.74</ele>
        <time>2017-07-16T08:48:17Z</time>
      </trkpt>
      <trkpt lat="45.14054" lon="4.52402">
        <ele>1254.66</ele>
        <time>2017-07-16T08:48:33Z</time>
      </trkpt>
      <trkpt lat="45.1406" lon="4.52392">
        <ele>1256.1</ele>
        <time>2017-07-16T08:48:45Z</time>
      </trkpt>
      <trkpt lat="45.14066" lon="4.5238">
        <ele>1257.06</ele>
        <time>2017-07-16T08:48:57Z</time>
      </trkpt>
      <trkpt lat="45.14074" lon="4.52362">
        <ele>1258.98</ele>
        <time>2017-07-16T08:49:11Z</time>
      </trkpt>
      <trkpt lat="45.14081" lon="4.52339">
        <ele>1259.46</ele>
        <time>2017-07-16T08:49:27Z</time>
      </trkpt>
      <trkpt lat="45.14087" lon="4.52317">
        <ele>1261.87</ele>
        <time>2017-07-16T08:49:43Z</time>
      </trkpt>
      <trkpt lat="45.14094" lon="4.52291">
        <ele>1262.83</ele>
        <time>2017-07-16T08:50:00Z</time>
      </trkpt>
      <trkpt lat="45.14096" lon="4.52286">
        <ele>1262.83</ele>
        <time>2017-07-16T08:50:03Z</time>
      </trkpt>
      <trkpt lat="45.14105" lon="4.5226">
        <ele>1260.43</ele>
        <time>2017-07-16T08:50:21Z</time>
      </trkpt>
      <trkpt lat="45.14105" lon="4.52257">
        <ele>1260.43</ele>
        <time>2017-07-16T08:50:23Z</time>
      </trkpt>
      <trkpt lat="45.14109" lon="4.52248">
        <ele>1260.43</ele>
        <time>2017-07-16T08:50:29Z</time>
      </trkpt>
      <trkpt lat="45.1411" lon="4.52243">
        <ele>1260.43</ele>
        <time>2017-07-16T08:50:32Z</time>
      </trkpt>
      <trkpt lat="45.14116" lon="4.52233">
        <ele>1258.98</ele>
        <time>2017-07-16T08:50:43Z</time>
      </trkpt>
      <trkpt lat="45.14117" lon="4.52229">
        <ele>1258.5</ele>
        <time>2017-07-16T08:50:46Z</time>
      </trkpt>
      <trkpt lat="45.14118" lon="4.52226">
        <ele>1258.5</ele>
        <time>2017-07-16T08:50:49Z</time>
      </trkpt>
      <trkpt lat="45.14127" lon="4.52212">
        <ele>1257.54</ele>
        <time>2017-07-16T08:51:03Z</time>
      </trkpt>
      <trkpt lat="45.1414" lon="4.52191">
        <ele>1257.54</ele>
        <time>2017-07-16T08:51:18Z</time>
      </trkpt>
      <trkpt lat="45.14154" lon="4.52168">
        <ele>1257.54</ele>
        <time>2017-07-16T08:51:34Z</time>
      </trkpt>
      <trkpt lat="45.14168" lon="4.52144">
        <ele>1257.54</ele>
        <time>2017-07-16T08:51:50Z</time>
      </trkpt>
      <trkpt lat="45.14176" lon="4.52134">
        <ele>1256.1</ele>
        <time>2017-07-16T08:51:59Z</time>
      </trkpt>
      <trkpt lat="45.14179" lon="4.52127">
        <ele>1256.1</ele>
        <time>2017-07-16T08:52:06Z</time>
      </trkpt>
      <trkpt lat="45.14187" lon="4.52118">
        <ele>1253.7</ele>
        <time>2017-07-16T08:52:18Z</time>
      </trkpt>
      <trkpt lat="45.14187" lon="4.52116">
        <ele>1253.7</ele>
        <time>2017-07-16T08:52:23Z</time>
      </trkpt>
      <trkpt lat="45.14193" lon="4.5211">
        <ele>1252.25</ele>
        <time>2017-07-16T08:52:30Z</time>
      </trkpt>
      <trkpt lat="45.14207" lon="4.52098">
        <ele>1250.81</ele>
        <time>2017-07-16T08:52:46Z</time>
      </trkpt>
      <trkpt lat="45.1421" lon="4.52095">
        <ele>1251.29</ele>
        <time>2017-07-16T08:52:55Z</time>
      </trkpt>
      <trkpt lat="45.14212" lon="4.52093">
        <ele>1251.29</ele>
        <time>2017-07-16T08:52:58Z</time>
      </trkpt>
      <trkpt lat="45.14218" lon="4.52097">
        <ele>1251.29</ele>
        <time>2017-07-16T08:53:03Z</time>
      </trkpt>
      <trkpt lat="45.14237" lon="4.5209">
        <ele>1252.25</ele>
        <time>2017-07-16T08:53:18Z</time>
      </trkpt>
      <trkpt lat="45.14255" lon="4.52082">
        <ele>1253.7</ele>
        <time>2017-07-16T08:53:35Z</time>
      </trkpt>
      <trkpt lat="45.1427" lon="4.52079">
        <ele>1255.62</ele>
        <time>2017-07-16T08:53:48Z</time>
      </trkpt>
      <trkpt lat="45.14289" lon="4.52077">
        <ele>1258.02</ele>
        <time>2017-07-16T08:54:03Z</time>
      </trkpt>
      <trkpt lat="45.14307" lon="4.52073">
        <ele>1261.39</ele>
        <time>2017-07-16T08:54:19Z</time>
      </trkpt>
      <trkpt lat="45.14325" lon="4.52069">
        <ele>1262.83</ele>
        <time>2017-07-16T08:54:32Z</time>
      </trkpt>
      <trkpt lat="45.14349" lon="4.52059">
        <ele>1263.31</ele>
        <time>2017-07-16T08:54:52Z</time>
      </trkpt>
      <trkpt lat="45.14367" lon="4.52046">
        <ele>1261.87</ele>
        <time>2017-07-16T08:55:09Z</time>
      </trkpt>
      <trkpt lat="45.14388" lon="4.52032">
        <ele>1261.39</ele>
        <time>2017-07-16T08:55:27Z</time>
      </trkpt>
      <trkpt lat="45.14401" lon="4.52023">
        <ele>1261.39</ele>
        <time>2017-07-16T08:55:39Z</time>
      </trkpt>
      <trkpt lat="45.14417" lon="4.52012">
        <ele>1259.46</ele>
        <time>2017-07-16T08:55:53Z</time>
      </trkpt>
      <trkpt lat="45.1444" lon="4.51995">
        <ele>1261.39</ele>
        <time>2017-07-16T08:56:12Z</time>
      </trkpt>
      <trkpt lat="45.14452" lon="4.51988">
        <ele>1261.87</ele>
        <time>2017-07-16T08:56:25Z</time>
      </trkpt>
      <trkpt lat="45.14464" lon="4.51981">
        <ele>1265.23</ele>
        <time>2017-07-16T08:56:37Z</time>
      </trkpt>
      <trkpt lat="45.14478" lon="4.51974">
        <ele>1268.6</ele>
        <time>2017-07-16T08:56:51Z</time>
      </trkpt>
      <trkpt lat="45.14496" lon="4.51964">
        <ele>1271.96</ele>
        <time>2017-07-16T08:57:06Z</time>
      </trkpt>
      <trkpt lat="45.1451" lon="4.51956">
        <ele>1272.92</ele>
        <time>2017-07-16T08:57:18Z</time>
      </trkpt>
      <trkpt lat="45.14526" lon="4.51946">
        <ele>1272.44</ele>
        <time>2017-07-16T08:57:32Z</time>
      </trkpt>
      <trkpt lat="45.14532" lon="4.51941">
        <ele>1269.08</ele>
        <time>2017-07-16T08:57:37Z</time>
      </trkpt>
      <trkpt lat="45.14557" lon="4.51917">
        <ele>1258.98</ele>
        <time>2017-07-16T08:57:55Z</time>
      </trkpt>
      <trkpt lat="45.14579" lon="4.51898">
        <ele>1247.93</ele>
        <time>2017-07-16T08:58:14Z</time>
      </trkpt>
      <trkpt lat="45.14603" lon="4.5188">
        <ele>1240.24</ele>
        <time>2017-07-16T08:58:33Z</time>
      </trkpt>
      <trkpt lat="45.14625" lon="4.51862">
        <ele>1237.35</ele>
        <time>2017-07-16T08:58:52Z</time>
      </trkpt>
      <trkpt lat="45.14647" lon="4.51845">
        <ele>1234.47</ele>
        <time>2017-07-16T08:59:10Z</time>
      </trkpt>
      <trkpt lat="45.14667" lon="4.51825">
        <ele>1232.07</ele>
        <time>2017-07-16T08:59:28Z</time>
      </trkpt>
      <trkpt lat="45.14681" lon="4.51803">
        <ele>1230.14</ele>
        <time>2017-07-16T08:59:45Z</time>
      </trkpt>
      <trkpt lat="45.14687" lon="4.518">
        <ele>1229.18</ele>
        <time>2017-07-16T08:59:51Z</time>
      </trkpt>
      <trkpt lat="45.14689" lon="4.518">
        <ele>1229.66</ele>
        <time>2017-07-16T08:59:53Z</time>
      </trkpt>
      <trkpt lat="45.14694" lon="4.51805">
        <ele>1229.66</ele>
        <time>2017-07-16T08:59:58Z</time>
      </trkpt>
      <trkpt lat="45.14706" lon="4.51822">
        <ele>1232.07</ele>
        <time>2017-07-16T09:00:13Z</time>
      </trkpt>
      <trkpt lat="45.14707" lon="4.51823">
        <ele>1232.55</ele>
        <time>2017-07-16T09:00:15Z</time>
      </trkpt>
      <trkpt lat="45.14715" lon="4.51823">
        <ele>1232.07</ele>
        <time>2017-07-16T09:00:21Z</time>
      </trkpt>
      <trkpt lat="45.14737" lon="4.51815">
        <ele>1233.99</ele>
        <time>2017-07-16T09:00:40Z</time>
      </trkpt>
      <trkpt lat="45.14756" lon="4.51805">
        <ele>1237.83</ele>
        <time>2017-07-16T09:00:54Z</time>
      </trkpt>
      <trkpt lat="45.14774" lon="4.51797">
        <ele>1240.24</ele>
        <time>2017-07-16T09:01:07Z</time>
      </trkpt>
      <trkpt lat="45.14795" lon="4.51793">
        <ele>1241.68</ele>
        <time>2017-07-16T09:01:22Z</time>
      </trkpt>
      <trkpt lat="45.14816" lon="4.51791">
        <ele>1245.53</ele>
        <time>2017-07-16T09:01:37Z</time>
      </trkpt>
      <trkpt lat="45.14833" lon="4.51787">
        <ele>1247.93</ele>
        <time>2017-07-16T09:01:51Z</time>
      </trkpt>
      <trkpt lat="45.14854" lon="4.51787">
        <ele>1248.89</ele>
        <time>2017-07-16T09:02:06Z</time>
      </trkpt>
      <trkpt lat="45.14876" lon="4.51781">
        <ele>1246.97</ele>
        <time>2017-07-16T09:02:21Z</time>
      </trkpt>
      <trkpt lat="45.14897" lon="4.51782">
        <ele>1248.41</ele>
        <time>2017-07-16T09:02:35Z</time>
      </trkpt>
      <trkpt lat="45.14898" lon="4.51783">
        <ele>1248.89</ele>
        <time>2017-07-16T09:02:36Z</time>
      </trkpt>
      <trkpt lat="45.14914" lon="4.51788">
        <ele>1256.1</ele>
        <time>2017-07-16T09:02:50Z</time>
      </trkpt>
      <trkpt lat="45.1493" lon="4.5179">
        <ele>1261.87</ele>
        <time>2017-07-16T09:03:03Z</time>
      </trkpt>
      <trkpt lat="45.14946" lon="4.51794">
        <ele>1270.52</ele>
        <time>2017-07-16T09:03:16Z</time>
      </trkpt>
      <trkpt lat="45.14957" lon="4.51799">
        <ele>1272.92</ele>
        <time>2017-07-16T09:03:30Z</time>
      </trkpt>
      <trkpt lat="45.14958" lon="4.51799">
        <ele>1271</ele>
        <time>2017-07-16T09:03:41Z</time>
      </trkpt>
      <trkpt lat="45.1496" lon="4.51798">
        <ele>1265.71</ele>
        <time>2017-07-16T09:03:59Z</time>
      </trkpt>
      <trkpt lat="45.14979" lon="4.51796">
        <ele>1258.02</ele>
        <time>2017-07-16T09:04:15Z</time>
      </trkpt>
      <trkpt lat="45.1499" lon="4.51794">
        <ele>1256.1</ele>
        <time>2017-07-16T09:04:24Z</time>
      </trkpt>
      <trkpt lat="45.15014" lon="4.51778">
        <ele>1241.68</ele>
        <time>2017-07-16T09:04:41Z</time>
      </trkpt>
      <trkpt lat="45.15015" lon="4.51774">
        <ele>1236.87</ele>
        <time>2017-07-16T09:04:54Z</time>
      </trkpt>
      <trkpt lat="45.15016" lon="4.51776">
        <ele>1235.91</ele>
        <time>2017-07-16T09:04:56Z</time>
      </trkpt>
      <trkpt lat="45.15021" lon="4.51776">
        <ele>1234.95</ele>
        <time>2017-07-16T09:05:00Z</time>
      </trkpt>
      <trkpt lat="45.15048" lon="4.51771">
        <ele>1233.51</ele>
        <time>2017-07-16T09:05:20Z</time>
      </trkpt>
      <trkpt lat="45.1507" lon="4.51766">
        <ele>1233.51</ele>
        <time>2017-07-16T09:05:37Z</time>
      </trkpt>
      <trkpt lat="45.15093" lon="4.51759">
        <ele>1233.03</ele>
        <time>2017-07-16T09:05:55Z</time>
      </trkpt>
      <trkpt lat="45.15115" lon="4.51762">
        <ele>1233.51</ele>
        <time>2017-07-16T09:06:12Z</time>
      </trkpt>
      <trkpt lat="45.15134" lon="4.51766">
        <ele>1237.35</ele>
        <time>2017-07-16T09:06:26Z</time>
      </trkpt>
      <trkpt lat="45.15152" lon="4.51773">
        <ele>1240.24</ele>
        <time>2017-07-16T09:06:40Z</time>
      </trkpt>
      <trkpt lat="45.15171" lon="4.51781">
        <ele>1243.6</ele>
        <time>2017-07-16T09:06:55Z</time>
      </trkpt>
      <trkpt lat="45.15191" lon="4.51779">
        <ele>1246.97</ele>
        <time>2017-07-16T09:07:10Z</time>
      </trkpt>
      <trkpt lat="45.15208" lon="4.51774">
        <ele>1250.81</ele>
        <time>2017-07-16T09:07:25Z</time>
      </trkpt>
      <trkpt lat="45.15223" lon="4.5177">
        <ele>1256.58</ele>
        <time>2017-07-16T09:07:37Z</time>
      </trkpt>
      <trkpt lat="45.15224" lon="4.51769">
        <ele>1256.58</ele>
        <time>2017-07-16T09:07:38Z</time>
      </trkpt>
      <trkpt lat="45.15236" lon="4.5176">
        <ele>1258.98</ele>
        <time>2017-07-16T09:07:51Z</time>
      </trkpt>
      <trkpt lat="45.15252" lon="4.51749">
        <ele>1253.7</ele>
        <time>2017-07-16T09:08:03Z</time>
      </trkpt>
      <trkpt lat="45.15267" lon="4.51735">
        <ele>1252.74</ele>
        <time>2017-07-16T09:08:13Z</time>
      </trkpt>
      <trkpt lat="45.15276" lon="4.51729">
        <ele>1253.22</ele>
        <time>2017-07-16T09:08:19Z</time>
      </trkpt>
      <trkpt lat="45.15292" lon="4.5172">
        <ele>1252.25</ele>
        <time>2017-07-16T09:08:31Z</time>
      </trkpt>
      <trkpt lat="45.153" lon="4.51717">
        <ele>1256.1</ele>
        <time>2017-07-16T09:08:37Z</time>
      </trkpt>
      <trkpt lat="45.15304" lon="4.51715">
        <ele>1258.5</ele>
        <time>2017-07-16T09:08:41Z</time>
      </trkpt>
      <trkpt lat="45.15318" lon="4.51709">
        <ele>1260.91</ele>
        <time>2017-07-16T09:08:53Z</time>
      </trkpt>
      <trkpt lat="45.15333" lon="4.51701">
        <ele>1261.39</ele>
        <time>2017-07-16T09:09:05Z</time>
      </trkpt>
      <trkpt lat="45.15352" lon="4.51691">
        <ele>1262.35</ele>
        <time>2017-07-16T09:09:19Z</time>
      </trkpt>
      <trkpt lat="45.15369" lon="4.51681">
        <ele>1261.39</ele>
        <time>2017-07-16T09:09:33Z</time>
      </trkpt>
      <trkpt lat="45.15386" lon="4.5167">
        <ele>1257.06</ele>
        <time>2017-07-16T09:09:46Z</time>
      </trkpt>
      <trkpt lat="45.15396" lon="4.51665">
        <ele>1256.58</ele>
        <time>2017-07-16T09:09:57Z</time>
      </trkpt>
      <trkpt lat="45.15412" lon="4.51656">
        <ele>1254.66</ele>
        <time>2017-07-16T09:10:09Z</time>
      </trkpt>
      <trkpt lat="45.15437" lon="4.51644">
        <ele>1250.81</ele>
        <time>2017-07-16T09:10:24Z</time>
      </trkpt>
      <trkpt lat="45.15454" lon="4.51636">
        <ele>1250.33</ele>
        <time>2017-07-16T09:10:35Z</time>
      </trkpt>
      <trkpt lat="45.1548" lon="4.51624">
        <ele>1241.68</ele>
        <time>2017-07-16T09:10:51Z</time>
      </trkpt>
      <trkpt lat="45.15503" lon="4.51612">
        <ele>1233.99</ele>
        <time>2017-07-16T09:11:07Z</time>
      </trkpt>
      <trkpt lat="45.15517" lon="4.51609">
        <ele>1224.86</ele>
        <time>2017-07-16T09:11:19Z</time>
      </trkpt>
      <trkpt lat="45.15535" lon="4.51623">
        <ele>1219.57</ele>
        <time>2017-07-16T09:11:35Z</time>
      </trkpt>
      <trkpt lat="45.15551" lon="4.51634">
        <ele>1216.21</ele>
        <time>2017-07-16T09:11:50Z</time>
      </trkpt>
      <trkpt lat="45.15554" lon="4.51634">
        <ele>1215.72</ele>
        <time>2017-07-16T09:11:52Z</time>
      </trkpt>
      <trkpt lat="45.15564" lon="4.51636">
        <ele>1213.8</ele>
        <time>2017-07-16T09:12:00Z</time>
      </trkpt>
      <trkpt lat="45.1557" lon="4.5164">
        <ele>1212.36</ele>
        <time>2017-07-16T09:12:05Z</time>
      </trkpt>
      <trkpt lat="45.15587" lon="4.51655">
        <ele>1209.96</ele>
        <time>2017-07-16T09:12:20Z</time>
      </trkpt>
      <trkpt lat="45.15599" lon="4.51669">
        <ele>1209</ele>
        <time>2017-07-16T09:12:32Z</time>
      </trkpt>
      <trkpt lat="45.15603" lon="4.51672">
        <ele>1208.51</ele>
        <time>2017-07-16T09:12:36Z</time>
      </trkpt>
      <trkpt lat="45.15627" lon="4.51685">
        <ele>1205.15</ele>
        <time>2017-07-16T09:12:55Z</time>
      </trkpt>
      <trkpt lat="45.15652" lon="4.5169">
        <ele>1201.3</ele>
        <time>2017-07-16T09:13:14Z</time>
      </trkpt>
      <trkpt lat="45.15673" lon="4.51689">
        <ele>1198.42</ele>
        <time>2017-07-16T09:13:29Z</time>
      </trkpt>
      <trkpt lat="45.15693" lon="4.51685">
        <ele>1196.98</ele>
        <time>2017-07-16T09:13:44Z</time>
      </trkpt>
      <trkpt lat="45.15709" lon="4.51683">
        <ele>1195.54</ele>
        <time>2017-07-16T09:13:57Z</time>
      </trkpt>
      <trkpt lat="45.15712" lon="4.51683">
        <ele>1195.06</ele>
        <time>2017-07-16T09:14:00Z</time>
      </trkpt>
      <trkpt lat="45.15731" lon="4.5169">
        <ele>1195.54</ele>
        <time>2017-07-16T09:14:15Z</time>
      </trkpt>
      <trkpt lat="45.15752" lon="4.51695">
        <ele>1194.58</ele>
        <time>2017-07-16T09:14:31Z</time>
      </trkpt>
      <trkpt lat="45.1576" lon="4.51699">
        <ele>1192.65</ele>
        <time>2017-07-16T09:14:38Z</time>
      </trkpt>
      <trkpt lat="45.15767" lon="4.517">
        <ele>1191.69</ele>
        <time>2017-07-16T09:14:43Z</time>
      </trkpt>
      <trkpt lat="45.15778" lon="4.51704">
        <ele>1192.17</ele>
        <time>2017-07-16T09:14:51Z</time>
      </trkpt>
      <trkpt lat="45.15787" lon="4.51706">
        <ele>1192.65</ele>
        <time>2017-07-16T09:14:58Z</time>
      </trkpt>
      <trkpt lat="45.15802" lon="4.51714">
        <ele>1195.54</ele>
        <time>2017-07-16T09:15:11Z</time>
      </trkpt>
      <trkpt lat="45.15819" lon="4.51727">
        <ele>1193.61</ele>
        <time>2017-07-16T09:15:26Z</time>
      </trkpt>
      <trkpt lat="45.15832" lon="4.51738">
        <ele>1190.73</ele>
        <time>2017-07-16T09:15:37Z</time>
      </trkpt>
      <trkpt lat="45.15835" lon="4.51739">
        <ele>1190.73</ele>
        <time>2017-07-16T09:15:40Z</time>
      </trkpt>
      <trkpt lat="45.15843" lon="4.51748">
        <ele>1193.13</ele>
        <time>2017-07-16T09:15:48Z</time>
      </trkpt>
      <trkpt lat="45.15854" lon="4.5177">
        <ele>1192.17</ele>
        <time>2017-07-16T09:16:03Z</time>
      </trkpt>
      <trkpt lat="45.15849" lon="4.51788">
        <ele>1191.21</ele>
        <time>2017-07-16T09:16:14Z</time>
      </trkpt>
      <trkpt lat="45.15845" lon="4.51793">
        <ele>1190.73</ele>
        <time>2017-07-16T09:16:19Z</time>
      </trkpt>
      <trkpt lat="45.15844" lon="4.51802">
        <ele>1191.69</ele>
        <time>2017-07-16T09:16:24Z</time>
      </trkpt>
      <trkpt lat="45.1585" lon="4.51834">
        <ele>1194.58</ele>
        <time>2017-07-16T09:16:42Z</time>
      </trkpt>
      <trkpt lat="45.1586" lon="4.51856">
        <ele>1194.09</ele>
        <time>2017-07-16T09:16:56Z</time>
      </trkpt>
      <trkpt lat="45.15873" lon="4.51868">
        <ele>1195.06</ele>
        <time>2017-07-16T09:17:07Z</time>
      </trkpt>
      <trkpt lat="45.15888" lon="4.51881">
        <ele>1199.86</ele>
        <time>2017-07-16T09:17:19Z</time>
      </trkpt>
      <trkpt lat="45.15898" lon="4.51895">
        <ele>1207.55</ele>
        <time>2017-07-16T09:17:31Z</time>
      </trkpt>
      <trkpt lat="45.15908" lon="4.519">
        <ele>1210.44</ele>
        <time>2017-07-16T09:17:39Z</time>
      </trkpt>
      <trkpt lat="45.15924" lon="4.51909">
        <ele>1218.61</ele>
        <time>2017-07-16T09:17:52Z</time>
      </trkpt>
      <trkpt lat="45.15928" lon="4.5191">
        <ele>1220.05</ele>
        <time>2017-07-16T09:17:55Z</time>
      </trkpt>
      <trkpt lat="45.15954" lon="4.51909">
        <ele>1217.65</ele>
        <time>2017-07-16T09:18:09Z</time>
      </trkpt>
      <trkpt lat="45.15976" lon="4.51915">
        <ele>1216.21</ele>
        <time>2017-07-16T09:18:25Z</time>
      </trkpt>
      <trkpt lat="45.15978" lon="4.51918">
        <ele>1215.72</ele>
        <time>2017-07-16T09:18:28Z</time>
      </trkpt>
      <trkpt lat="45.15995" lon="4.51928">
        <ele>1213.8</ele>
        <time>2017-07-16T09:18:42Z</time>
      </trkpt>
      <trkpt lat="45.15998" lon="4.51933">
        <ele>1215.72</ele>
        <time>2017-07-16T09:18:46Z</time>
      </trkpt>
      <trkpt lat="45.16" lon="4.51934">
        <ele>1216.21</ele>
        <time>2017-07-16T09:18:48Z</time>
      </trkpt>
      <trkpt lat="45.16009" lon="4.51936">
        <ele>1219.09</ele>
        <time>2017-07-16T09:18:54Z</time>
      </trkpt>
      <trkpt lat="45.16013" lon="4.51936">
        <ele>1220.05</ele>
        <time>2017-07-16T09:18:57Z</time>
      </trkpt>
      <trkpt lat="45.16018" lon="4.51938">
        <ele>1221.49</ele>
        <time>2017-07-16T09:19:01Z</time>
      </trkpt>
      <trkpt lat="45.1602" lon="4.5194">
        <ele>1221.97</ele>
        <time>2017-07-16T09:19:04Z</time>
      </trkpt>
      <trkpt lat="45.16035" lon="4.51948">
        <ele>1219.09</ele>
        <time>2017-07-16T09:19:18Z</time>
      </trkpt>
      <trkpt lat="45.16038" lon="4.51948">
        <ele>1218.61</ele>
        <time>2017-07-16T09:19:21Z</time>
      </trkpt>
      <trkpt lat="45.16042" lon="4.51954">
        <ele>1218.61</ele>
        <time>2017-07-16T09:19:26Z</time>
      </trkpt>
      <trkpt lat="45.16052" lon="4.51965">
        <ele>1219.09</ele>
        <time>2017-07-16T09:19:36Z</time>
      </trkpt>
      <trkpt lat="45.16056" lon="4.51972">
        <ele>1220.05</ele>
        <time>2017-07-16T09:19:42Z</time>
      </trkpt>
      <trkpt lat="45.16065" lon="4.51977">
        <ele>1220.53</ele>
        <time>2017-07-16T09:19:51Z</time>
      </trkpt>
      <trkpt lat="45.16078" lon="4.51987">
        <ele>1222.45</ele>
        <time>2017-07-16T09:20:03Z</time>
      </trkpt>
      <trkpt lat="45.16092" lon="4.52">
        <ele>1229.66</ele>
        <time>2017-07-16T09:20:17Z</time>
      </trkpt>
      <trkpt lat="45.16095" lon="4.52001">
        <ele>1230.14</ele>
        <time>2017-07-16T09:20:19Z</time>
      </trkpt>
      <trkpt lat="45.16108" lon="4.52011">
        <ele>1232.07</ele>
        <time>2017-07-16T09:20:32Z</time>
      </trkpt>
      <trkpt lat="45.16116" lon="4.52016">
        <ele>1233.51</ele>
        <time>2017-07-16T09:20:40Z</time>
      </trkpt>
      <trkpt lat="45.1612" lon="4.52019">
        <ele>1233.51</ele>
        <time>2017-07-16T09:20:46Z</time>
      </trkpt>
      <trkpt lat="45.16133" lon="4.5202">
        <ele>1232.07</ele>
        <time>2017-07-16T09:20:55Z</time>
      </trkpt>
      <trkpt lat="45.16152" lon="4.52018">
        <ele>1230.62</ele>
        <time>2017-07-16T09:21:07Z</time>
      </trkpt>
      <trkpt lat="45.16165" lon="4.52017">
        <ele>1231.11</ele>
        <time>2017-07-16T09:21:17Z</time>
      </trkpt>
      <trkpt lat="45.16186" lon="4.52016">
        <ele>1227.74</ele>
        <time>2017-07-16T09:21:30Z</time>
      </trkpt>
      <trkpt lat="45.16192" lon="4.5202">
        <ele>1228.7</ele>
        <time>2017-07-16T09:21:35Z</time>
      </trkpt>
      <trkpt lat="45.16198" lon="4.52022">
        <ele>1231.59</ele>
        <time>2017-07-16T09:21:40Z</time>
      </trkpt>
      <trkpt lat="45.162" lon="4.52023">
        <ele>1233.51</ele>
        <time>2017-07-16T09:21:42Z</time>
      </trkpt>
      <trkpt lat="45.1621" lon="4.52025">
        <ele>1239.76</ele>
        <time>2017-07-16T09:21:52Z</time>
      </trkpt>
      <trkpt lat="45.16215" lon="4.52027">
        <ele>1241.2</ele>
        <time>2017-07-16T09:21:57Z</time>
      </trkpt>
      <trkpt lat="45.16223" lon="4.52034">
        <ele>1244.08</ele>
        <time>2017-07-16T09:22:05Z</time>
      </trkpt>
      <trkpt lat="45.1623" lon="4.52037">
        <ele>1245.53</ele>
        <time>2017-07-16T09:22:13Z</time>
      </trkpt>
      <trkpt lat="45.16237" lon="4.52037">
        <ele>1247.93</ele>
        <time>2017-07-16T09:22:21Z</time>
      </trkpt>
      <trkpt lat="45.16254" lon="4.5204">
        <ele>1250.33</ele>
        <time>2017-07-16T09:22:33Z</time>
      </trkpt>
      <trkpt lat="45.16262" lon="4.52042">
        <ele>1252.74</ele>
        <time>2017-07-16T09:22:43Z</time>
      </trkpt>
      <trkpt lat="45.16285" lon="4.52031">
        <ele>1245.04</ele>
        <time>2017-07-16T09:22:53Z</time>
      </trkpt>
      <trkpt lat="45.16306" lon="4.52026">
        <ele>1240.72</ele>
        <time>2017-07-16T09:23:05Z</time>
      </trkpt>
      <trkpt lat="45.16325" lon="4.52021">
        <ele>1233.99</ele>
        <time>2017-07-16T09:23:18Z</time>
      </trkpt>
      <trkpt lat="45.16341" lon="4.52016">
        <ele>1227.26</ele>
        <time>2017-07-16T09:23:28Z</time>
      </trkpt>
      <trkpt lat="45.16344" lon="4.52015">
        <ele>1226.78</ele>
        <time>2017-07-16T09:23:31Z</time>
      </trkpt>
      <trkpt lat="45.16358" lon="4.52015">
        <ele>1224.86</ele>
        <time>2017-07-16T09:23:41Z</time>
      </trkpt>
      <trkpt lat="45.16373" lon="4.52016">
        <ele>1222.45</ele>
        <time>2017-07-16T09:23:51Z</time>
      </trkpt>
      <trkpt lat="45.16387" lon="4.52021">
        <ele>1224.86</ele>
        <time>2017-07-16T09:24:02Z</time>
      </trkpt>
      <trkpt lat="45.16399" lon="4.52024">
        <ele>1227.26</ele>
        <time>2017-07-16T09:24:14Z</time>
      </trkpt>
      <trkpt lat="45.16405" lon="4.52025">
        <ele>1226.3</ele>
        <time>2017-07-16T09:24:20Z</time>
      </trkpt>
      <trkpt lat="45.16419" lon="4.52028">
        <ele>1227.26</ele>
        <time>2017-07-16T09:24:29Z</time>
      </trkpt>
      <trkpt lat="45.16422" lon="4.52029">
        <ele>1227.74</ele>
        <time>2017-07-16T09:24:31Z</time>
      </trkpt>
      <trkpt lat="45.16424" lon="4.52031">
        <ele>1228.7</ele>
        <time>2017-07-16T09:24:33Z</time>
      </trkpt>
      <trkpt lat="45.16442" lon="4.52043">
        <ele>1234.95</ele>
        <time>2017-07-16T09:24:46Z</time>
      </trkpt>
      <trkpt lat="45.16444" lon="4.52046">
        <ele>1236.39</ele>
        <time>2017-07-16T09:24:48Z</time>
      </trkpt>
      <trkpt lat="45.16454" lon="4.52049">
        <ele>1237.83</ele>
        <time>2017-07-16T09:24:54Z</time>
      </trkpt>
      <trkpt lat="45.16458" lon="4.5205">
        <ele>1238.32</ele>
        <time>2017-07-16T09:24:56Z</time>
      </trkpt>
      <trkpt lat="45.16464" lon="4.52049">
        <ele>1237.83</ele>
        <time>2017-07-16T09:24:59Z</time>
      </trkpt>
      <trkpt lat="45.165" lon="4.52036">
        <ele>1222.93</ele>
        <time>2017-07-16T09:25:14Z</time>
      </trkpt>
      <trkpt lat="45.16517" lon="4.5204">
        <ele>1211.88</ele>
        <time>2017-07-16T09:25:25Z</time>
      </trkpt>
      <trkpt lat="45.16522" lon="4.5205">
        <ele>1208.03</ele>
        <time>2017-07-16T09:25:31Z</time>
      </trkpt>
      <trkpt lat="45.16533" lon="4.52069">
        <ele>1199.38</ele>
        <time>2017-07-16T09:25:46Z</time>
      </trkpt>
      <trkpt lat="45.16537" lon="4.52087">
        <ele>1179.19</ele>
        <time>2017-07-16T09:26:00Z</time>
      </trkpt>
      <trkpt lat="45.16546" lon="4.52108">
        <ele>1169.1</ele>
        <time>2017-07-16T09:26:14Z</time>
      </trkpt>
      <trkpt lat="45.16553" lon="4.52132">
        <ele>1165.26</ele>
        <time>2017-07-16T09:26:28Z</time>
      </trkpt>
      <trkpt lat="45.16555" lon="4.52143">
        <ele>1163.33</ele>
        <time>2017-07-16T09:26:35Z</time>
      </trkpt>
      <trkpt lat="45.16561" lon="4.52171">
        <ele>1158.53</ele>
        <time>2017-07-16T09:26:49Z</time>
      </trkpt>
      <trkpt lat="45.16563" lon="4.52179">
        <ele>1156.6</ele>
        <time>2017-07-16T09:26:53Z</time>
      </trkpt>
      <trkpt lat="45.16567" lon="4.52205">
        <ele>1153.72</ele>
        <time>2017-07-16T09:27:05Z</time>
      </trkpt>
      <trkpt lat="45.16567" lon="4.52212">
        <ele>1153.24</ele>
        <time>2017-07-16T09:27:09Z</time>
      </trkpt>
      <trkpt lat="45.16571" lon="4.52234">
        <ele>1149.87</ele>
        <time>2017-07-16T09:27:21Z</time>
      </trkpt>
      <trkpt lat="45.16574" lon="4.52262">
        <ele>1147.95</ele>
        <time>2017-07-16T09:27:36Z</time>
      </trkpt>
      <trkpt lat="45.16575" lon="4.52264">
        <ele>1148.43</ele>
        <time>2017-07-16T09:27:37Z</time>
      </trkpt>
      <trkpt lat="45.16575" lon="4.52267">
        <ele>1148.43</ele>
        <time>2017-07-16T09:27:39Z</time>
      </trkpt>
      <trkpt lat="45.16576" lon="4.52274">
        <ele>1146.99</ele>
        <time>2017-07-16T09:27:43Z</time>
      </trkpt>
      <trkpt lat="45.16578" lon="4.52283">
        <ele>1146.03</ele>
        <time>2017-07-16T09:27:48Z</time>
      </trkpt>
      <trkpt lat="45.16579" lon="4.52288">
        <ele>1145.07</ele>
        <time>2017-07-16T09:27:51Z</time>
      </trkpt>
      <trkpt lat="45.16582" lon="4.52297">
        <ele>1145.07</ele>
        <time>2017-07-16T09:27:55Z</time>
      </trkpt>
      <trkpt lat="45.16582" lon="4.5231">
        <ele>1144.59</ele>
        <time>2017-07-16T09:28:01Z</time>
      </trkpt>
      <trkpt lat="45.16588" lon="4.52338">
        <ele>1143.14</ele>
        <time>2017-07-16T09:28:17Z</time>
      </trkpt>
      <trkpt lat="45.1659" lon="4.52351">
        <ele>1142.66</ele>
        <time>2017-07-16T09:28:23Z</time>
      </trkpt>
      <trkpt lat="45.16594" lon="4.52366">
        <ele>1141.22</ele>
        <time>2017-07-16T09:28:31Z</time>
      </trkpt>
      <trkpt lat="45.16596" lon="4.52376">
        <ele>1142.66</ele>
        <time>2017-07-16T09:28:37Z</time>
      </trkpt>
      <trkpt lat="45.16598" lon="4.52386">
        <ele>1141.7</ele>
        <time>2017-07-16T09:28:42Z</time>
      </trkpt>
      <trkpt lat="45.16598" lon="4.52393">
        <ele>1140.74</ele>
        <time>2017-07-16T09:28:46Z</time>
      </trkpt>
      <trkpt lat="45.16599" lon="4.52411">
        <ele>1139.78</ele>
        <time>2017-07-16T09:28:54Z</time>
      </trkpt>
      <trkpt lat="45.16601" lon="4.52428">
        <ele>1139.3</ele>
        <time>2017-07-16T09:29:03Z</time>
      </trkpt>
      <trkpt lat="45.16602" lon="4.52442">
        <ele>1139.3</ele>
        <time>2017-07-16T09:29:10Z</time>
      </trkpt>
      <trkpt lat="45.16603" lon="4.52472">
        <ele>1137.38</ele>
        <time>2017-07-16T09:29:24Z</time>
      </trkpt>
      <trkpt lat="45.16605" lon="4.52487">
        <ele>1135.94</ele>
        <time>2017-07-16T09:29:31Z</time>
      </trkpt>
      <trkpt lat="45.16603" lon="4.52513">
        <ele>1132.09</ele>
        <time>2017-07-16T09:29:44Z</time>
      </trkpt>
      <trkpt lat="45.16604" lon="4.52521">
        <ele>1131.61</ele>
        <time>2017-07-16T09:29:48Z</time>
      </trkpt>
      <trkpt lat="45.16606" lon="4.52536">
        <ele>1128.73</ele>
        <time>2017-07-16T09:30:01Z</time>
      </trkpt>
      <trkpt lat="45.16607" lon="4.52543">
        <ele>1127.28</ele>
        <time>2017-07-16T09:30:13Z</time>
      </trkpt>
      <trkpt lat="45.16608" lon="4.52549">
        <ele>1127.76</ele>
        <time>2017-07-16T09:30:17Z</time>
      </trkpt>
      <trkpt lat="45.16609" lon="4.5257">
        <ele>1128.73</ele>
        <time>2017-07-16T09:30:31Z</time>
      </trkpt>
      <trkpt lat="45.16609" lon="4.52572">
        <ele>1128.24</ele>
        <time>2017-07-16T09:30:32Z</time>
      </trkpt>
      <trkpt lat="45.1661" lon="4.52584">
        <ele>1127.76</ele>
        <time>2017-07-16T09:30:38Z</time>
      </trkpt>
      <trkpt lat="45.16619" lon="4.52616">
        <ele>1124.88</ele>
        <time>2017-07-16T09:30:54Z</time>
      </trkpt>
      <trkpt lat="45.16627" lon="4.52634">
        <ele>1122</ele>
        <time>2017-07-16T09:31:05Z</time>
      </trkpt>
      <trkpt lat="45.16638" lon="4.5265">
        <ele>1123.44</ele>
        <time>2017-07-16T09:31:16Z</time>
      </trkpt>
      <trkpt lat="45.16643" lon="4.52656">
        <ele>1124.4</ele>
        <time>2017-07-16T09:31:21Z</time>
      </trkpt>
      <trkpt lat="45.16655" lon="4.52672">
        <ele>1129.21</ele>
        <time>2017-07-16T09:31:34Z</time>
      </trkpt>
      <trkpt lat="45.16681" lon="4.52676">
        <ele>1122.48</ele>
        <time>2017-07-16T09:31:50Z</time>
      </trkpt>
      <trkpt lat="45.16705" lon="4.52679">
        <ele>1116.23</ele>
        <time>2017-07-16T09:32:08Z</time>
      </trkpt>
      <trkpt lat="45.16724" lon="4.52681">
        <ele>1117.19</ele>
        <time>2017-07-16T09:32:23Z</time>
      </trkpt>
      <trkpt lat="45.16735" lon="4.52684">
        <ele>1124.4</ele>
        <time>2017-07-16T09:32:37Z</time>
      </trkpt>
      <trkpt lat="45.16741" lon="4.52688">
        <ele>1129.69</ele>
        <time>2017-07-16T09:32:48Z</time>
      </trkpt>
      <trkpt lat="45.1675" lon="4.52693">
        <ele>1135.45</ele>
        <time>2017-07-16T09:33:00Z</time>
      </trkpt>
      <trkpt lat="45.1676" lon="4.52699">
        <ele>1140.74</ele>
        <time>2017-07-16T09:33:11Z</time>
      </trkpt>
      <trkpt lat="45.16778" lon="4.52706">
        <ele>1142.18</ele>
        <time>2017-07-16T09:33:23Z</time>
      </trkpt>
      <trkpt lat="45.16781" lon="4.52706">
        <ele>1142.66</ele>
        <time>2017-07-16T09:33:25Z</time>
      </trkpt>
      <trkpt lat="45.16795" lon="4.52706">
        <ele>1142.66</ele>
        <time>2017-07-16T09:33:35Z</time>
      </trkpt>
      <trkpt lat="45.16799" lon="4.52708">
        <ele>1144.11</ele>
        <time>2017-07-16T09:33:37Z</time>
      </trkpt>
      <trkpt lat="45.16804" lon="4.52714">
        <ele>1147.95</ele>
        <time>2017-07-16T09:33:41Z</time>
      </trkpt>
      <trkpt lat="45.16815" lon="4.52719">
        <ele>1152.76</ele>
        <time>2017-07-16T09:33:47Z</time>
      </trkpt>
      <trkpt lat="45.16838" lon="4.52711">
        <ele>1146.51</ele>
        <time>2017-07-16T09:33:53Z</time>
      </trkpt>
      <trkpt lat="45.16853" lon="4.52726">
        <ele>1124.4</ele>
        <time>2017-07-16T09:34:08Z</time>
      </trkpt>
      <trkpt lat="45.16869" lon="4.52749">
        <ele>1114.79</ele>
        <time>2017-07-16T09:34:25Z</time>
      </trkpt>
      <trkpt lat="45.16878" lon="4.52766">
        <ele>1107.58</ele>
        <time>2017-07-16T09:34:38Z</time>
      </trkpt>
      <trkpt lat="45.16883" lon="4.52779">
        <ele>1104.21</ele>
        <time>2017-07-16T09:34:46Z</time>
      </trkpt>
      <trkpt lat="45.1689" lon="4.52802">
        <ele>1102.29</ele>
        <time>2017-07-16T09:34:59Z</time>
      </trkpt>
      <trkpt lat="45.16891" lon="4.52805">
        <ele>1101.81</ele>
        <time>2017-07-16T09:35:01Z</time>
      </trkpt>
      <trkpt lat="45.169" lon="4.52826">
        <ele>1099.4</ele>
        <time>2017-07-16T09:35:12Z</time>
      </trkpt>
      <trkpt lat="45.16903" lon="4.52835">
        <ele>1098.44</ele>
        <time>2017-07-16T09:35:17Z</time>
      </trkpt>
      <trkpt lat="45.1691" lon="4.52853">
        <ele>1096.52</ele>
        <time>2017-07-16T09:35:28Z</time>
      </trkpt>
      <trkpt lat="45.16912" lon="4.52858">
        <ele>1096.52</ele>
        <time>2017-07-16T09:35:31Z</time>
      </trkpt>
      <trkpt lat="45.16921" lon="4.52881">
        <ele>1098.92</ele>
        <time>2017-07-16T09:35:43Z</time>
      </trkpt>
      <trkpt lat="45.16922" lon="4.52883">
        <ele>1098.92</ele>
        <time>2017-07-16T09:35:44Z</time>
      </trkpt>
      <trkpt lat="45.16929" lon="4.529">
        <ele>1100.85</ele>
        <time>2017-07-16T09:35:55Z</time>
      </trkpt>
      <trkpt lat="45.16933" lon="4.52916">
        <ele>1099.4</ele>
        <time>2017-07-16T09:36:04Z</time>
      </trkpt>
      <trkpt lat="45.16935" lon="4.52926">
        <ele>1098.44</ele>
        <time>2017-07-16T09:36:10Z</time>
      </trkpt>
      <trkpt lat="45.16936" lon="4.52931">
        <ele>1097.96</ele>
        <time>2017-07-16T09:36:13Z</time>
      </trkpt>
      <trkpt lat="45.16938" lon="4.52948">
        <ele>1096.04</ele>
        <time>2017-07-16T09:36:24Z</time>
      </trkpt>
      <trkpt lat="45.16947" lon="4.52976">
        <ele>1092.68</ele>
        <time>2017-07-16T09:36:38Z</time>
      </trkpt>
      <trkpt lat="45.16953" lon="4.53008">
        <ele>1087.39</ele>
        <time>2017-07-16T09:36:54Z</time>
      </trkpt>
      <trkpt lat="45.16958" lon="4.53039">
        <ele>1081.62</ele>
        <time>2017-07-16T09:37:10Z</time>
      </trkpt>
      <trkpt lat="45.16965" lon="4.53064">
        <ele>1079.7</ele>
        <time>2017-07-16T09:37:24Z</time>
      </trkpt>
      <trkpt lat="45.16973" lon="4.53085">
        <ele>1080.18</ele>
        <time>2017-07-16T09:37:36Z</time>
      </trkpt>
      <trkpt lat="45.16982" lon="4.53101">
        <ele>1083.06</ele>
        <time>2017-07-16T09:37:48Z</time>
      </trkpt>
      <trkpt lat="45.16986" lon="4.53108">
        <ele>1084.02</ele>
        <time>2017-07-16T09:37:53Z</time>
      </trkpt>
      <trkpt lat="45.16997" lon="4.53118">
        <ele>1084.5</ele>
        <time>2017-07-16T09:38:05Z</time>
      </trkpt>
      <trkpt lat="45.17007" lon="4.53127">
        <ele>1083.54</ele>
        <time>2017-07-16T09:38:15Z</time>
      </trkpt>
      <trkpt lat="45.17011" lon="4.5313">
        <ele>1083.54</ele>
        <time>2017-07-16T09:38:18Z</time>
      </trkpt>
      <trkpt lat="45.17027" lon="4.53144">
        <ele>1087.39</ele>
        <time>2017-07-16T09:38:32Z</time>
      </trkpt>
      <trkpt lat="45.17042" lon="4.53153">
        <ele>1087.39</ele>
        <time>2017-07-16T09:38:47Z</time>
      </trkpt>
      <trkpt lat="45.17053" lon="4.53164">
        <ele>1094.6</ele>
        <time>2017-07-16T09:38:56Z</time>
      </trkpt>
      <trkpt lat="45.17058" lon="4.53171">
        <ele>1098.92</ele>
        <time>2017-07-16T09:39:01Z</time>
      </trkpt>
      <trkpt lat="45.17061" lon="4.53173">
        <ele>1101.81</ele>
        <time>2017-07-16T09:39:04Z</time>
      </trkpt>
      <trkpt lat="45.17076" lon="4.53197">
        <ele>1113.82</ele>
        <time>2017-07-16T09:39:19Z</time>
      </trkpt>
      <trkpt lat="45.17095" lon="4.53208">
        <ele>1113.34</ele>
        <time>2017-07-16T09:39:31Z</time>
      </trkpt>
      <trkpt lat="45.17128" lon="4.53216">
        <ele>1100.85</ele>
        <time>2017-07-16T09:39:49Z</time>
      </trkpt>
      <trkpt lat="45.17136" lon="4.53224">
        <ele>1097.48</ele>
        <time>2017-07-16T09:39:56Z</time>
      </trkpt>
      <trkpt lat="45.17161" lon="4.53241">
        <ele>1086.43</ele>
        <time>2017-07-16T09:40:14Z</time>
      </trkpt>
      <trkpt lat="45.17165" lon="4.53249">
        <ele>1072.97</ele>
        <time>2017-07-16T09:40:29Z</time>
      </trkpt>
      <trkpt lat="45.17167" lon="4.53252">
        <ele>1066.72</ele>
        <time>2017-07-16T09:40:44Z</time>
      </trkpt>
      <trkpt lat="45.17168" lon="4.53252">
        <ele>1062.87</ele>
        <time>2017-07-16T09:40:57Z</time>
      </trkpt>
      <trkpt lat="45.17168" lon="4.53252">
        <ele>1060.47</ele>
        <time>2017-07-16T09:41:10Z</time>
      </trkpt>
      <trkpt lat="45.17167" lon="4.53252">
        <ele>1059.51</ele>
        <time>2017-07-16T09:41:24Z</time>
      </trkpt>
      <trkpt lat="45.17166" lon="4.53253">
        <ele>1058.07</ele>
        <time>2017-07-16T09:41:42Z</time>
      </trkpt>
      <trkpt lat="45.17165" lon="4.53253">
        <ele>1056.63</ele>
        <time>2017-07-16T09:41:57Z</time>
      </trkpt>
      <trkpt lat="45.17164" lon="4.53252">
        <ele>1055.18</ele>
        <time>2017-07-16T09:42:16Z</time>
      </trkpt>
      <trkpt lat="45.17163" lon="4.53252">
        <ele>1054.22</ele>
        <time>2017-07-16T09:42:36Z</time>
      </trkpt>
      <trkpt lat="45.17163" lon="4.53255">
        <ele>1054.22</ele>
        <time>2017-07-16T09:42:40Z</time>
      </trkpt>
      <trkpt lat="45.17165" lon="4.53268">
        <ele>1053.26</ele>
        <time>2017-07-16T09:42:54Z</time>
      </trkpt>
      <trkpt lat="45.17162" lon="4.5329">
        <ele>1052.3</ele>
        <time>2017-07-16T09:43:11Z</time>
      </trkpt>
      <trkpt lat="45.1716" lon="4.53318">
        <ele>1052.3</ele>
        <time>2017-07-16T09:43:28Z</time>
      </trkpt>
      <trkpt lat="45.1716" lon="4.5334">
        <ele>1053.74</ele>
        <time>2017-07-16T09:43:41Z</time>
      </trkpt>
      <trkpt lat="45.17164" lon="4.53354">
        <ele>1054.7</ele>
        <time>2017-07-16T09:43:49Z</time>
      </trkpt>
      <trkpt lat="45.17169" lon="4.53378">
        <ele>1053.74</ele>
        <time>2017-07-16T09:44:03Z</time>
      </trkpt>
      <trkpt lat="45.17174" lon="4.53406">
        <ele>1054.22</ele>
        <time>2017-07-16T09:44:19Z</time>
      </trkpt>
      <trkpt lat="45.17175" lon="4.53408">
        <ele>1054.22</ele>
        <time>2017-07-16T09:44:20Z</time>
      </trkpt>
      <trkpt lat="45.17177" lon="4.53427">
        <ele>1054.22</ele>
        <time>2017-07-16T09:44:30Z</time>
      </trkpt>
      <trkpt lat="45.17178" lon="4.53446">
        <ele>1054.22</ele>
        <time>2017-07-16T09:44:40Z</time>
      </trkpt>
      <trkpt lat="45.17185" lon="4.53477">
        <ele>1054.7</ele>
        <time>2017-07-16T09:44:57Z</time>
      </trkpt>
      <trkpt lat="45.17196" lon="4.53511">
        <ele>1052.78</ele>
        <time>2017-07-16T09:45:17Z</time>
      </trkpt>
      <trkpt lat="45.17201" lon="4.53546">
        <ele>1052.3</ele>
        <time>2017-07-16T09:45:36Z</time>
      </trkpt>
      <trkpt lat="45.17207" lon="4.53585">
        <ele>1050.38</ele>
        <time>2017-07-16T09:45:57Z</time>
      </trkpt>
      <trkpt lat="45.17212" lon="4.53618">
        <ele>1048.94</ele>
        <time>2017-07-16T09:46:15Z</time>
      </trkpt>
      <trkpt lat="45.17215" lon="4.53639">
        <ele>1046.53</ele>
        <time>2017-07-16T09:46:29Z</time>
      </trkpt>
      <trkpt lat="45.17216" lon="4.53639">
        <ele>1046.53</ele>
        <time>2017-07-16T09:46:31Z</time>
      </trkpt>
      <trkpt lat="45.17221" lon="4.53648">
        <ele>1047.01</ele>
        <time>2017-07-16T09:46:39Z</time>
      </trkpt>
      <trkpt lat="45.17228" lon="4.5366">
        <ele>1048.45</ele>
        <time>2017-07-16T09:46:51Z</time>
      </trkpt>
      <trkpt lat="45.17235" lon="4.53673">
        <ele>1050.38</ele>
        <time>2017-07-16T09:47:01Z</time>
      </trkpt>
      <trkpt lat="45.17245" lon="4.53681">
        <ele>1053.26</ele>
        <time>2017-07-16T09:47:14Z</time>
      </trkpt>
      <trkpt lat="45.17253" lon="4.5369">
        <ele>1056.63</ele>
        <time>2017-07-16T09:47:28Z</time>
      </trkpt>
      <trkpt lat="45.17262" lon="4.53696">
        <ele>1059.03</ele>
        <time>2017-07-16T09:47:40Z</time>
      </trkpt>
      <trkpt lat="45.17269" lon="4.53705">
        <ele>1062.39</ele>
        <time>2017-07-16T09:47:54Z</time>
      </trkpt>
      <trkpt lat="45.17275" lon="4.53712">
        <ele>1064.8</ele>
        <time>2017-07-16T09:48:08Z</time>
      </trkpt>
      <trkpt lat="45.17283" lon="4.53722">
        <ele>1065.76</ele>
        <time>2017-07-16T09:48:20Z</time>
      </trkpt>
      <trkpt lat="45.17291" lon="4.53727">
        <ele>1068.64</ele>
        <time>2017-07-16T09:48:32Z</time>
      </trkpt>
      <trkpt lat="45.17301" lon="4.53737">
        <ele>1071.53</ele>
        <time>2017-07-16T09:48:45Z</time>
      </trkpt>
      <trkpt lat="45.17306" lon="4.53742">
        <ele>1074.41</ele>
        <time>2017-07-16T09:48:51Z</time>
      </trkpt>
      <trkpt lat="45.17315" lon="4.5375">
        <ele>1076.33</ele>
        <time>2017-07-16T09:49:05Z</time>
      </trkpt>
      <trkpt lat="45.17315" lon="4.53751">
        <ele>1076.81</ele>
        <time>2017-07-16T09:49:06Z</time>
      </trkpt>
      <trkpt lat="45.17315" lon="4.53765">
        <ele>1081.14</ele>
        <time>2017-07-16T09:49:18Z</time>
      </trkpt>
      <trkpt lat="45.17312" lon="4.53776">
        <ele>1082.58</ele>
        <time>2017-07-16T09:49:29Z</time>
      </trkpt>
      <trkpt lat="45.17309" lon="4.5378">
        <ele>1082.58</ele>
        <time>2017-07-16T09:49:34Z</time>
      </trkpt>
      <trkpt lat="45.17305" lon="4.5379">
        <ele>1082.58</ele>
        <time>2017-07-16T09:49:46Z</time>
      </trkpt>
      <trkpt lat="45.17298" lon="4.53801">
        <ele>1085.95</ele>
        <time>2017-07-16T09:49:59Z</time>
      </trkpt>
      <trkpt lat="45.17291" lon="4.53816">
        <ele>1091.23</ele>
        <time>2017-07-16T09:50:16Z</time>
      </trkpt>
      <trkpt lat="45.17283" lon="4.53836">
        <ele>1096.52</ele>
        <time>2017-07-16T09:50:29Z</time>
      </trkpt>
      <trkpt lat="45.17277" lon="4.53852">
        <ele>1097</ele>
        <time>2017-07-16T09:50:40Z</time>
      </trkpt>
      <trkpt lat="45.17273" lon="4.53859">
        <ele>1097.96</ele>
        <time>2017-07-16T09:50:46Z</time>
      </trkpt>
      <trkpt lat="45.17266" lon="4.53883">
        <ele>1098.92</ele>
        <time>2017-07-16T09:51:01Z</time>
      </trkpt>
      <trkpt lat="45.17256" lon="4.53904">
        <ele>1097.96</ele>
        <time>2017-07-16T09:51:17Z</time>
      </trkpt>
      <trkpt lat="45.17251" lon="4.53922">
        <ele>1096.04</ele>
        <time>2017-07-16T09:51:29Z</time>
      </trkpt>
      <trkpt lat="45.1725" lon="4.53926">
        <ele>1096.04</ele>
        <time>2017-07-16T09:51:31Z</time>
      </trkpt>
      <trkpt lat="45.17248" lon="4.53931">
        <ele>1096.52</ele>
        <time>2017-07-16T09:51:34Z</time>
      </trkpt>
      <trkpt lat="45.17244" lon="4.53947">
        <ele>1097.48</ele>
        <time>2017-07-16T09:51:48Z</time>
      </trkpt>
      <trkpt lat="45.17242" lon="4.53952">
        <ele>1096.52</ele>
        <time>2017-07-16T09:51:51Z</time>
      </trkpt>
      <trkpt lat="45.17237" lon="4.53967">
        <ele>1097</ele>
        <time>2017-07-16T09:52:01Z</time>
      </trkpt>
      <trkpt lat="45.17235" lon="4.53974">
        <ele>1097.48</ele>
        <time>2017-07-16T09:52:05Z</time>
      </trkpt>
      <trkpt lat="45.17233" lon="4.53992">
        <ele>1098.44</ele>
        <time>2017-07-16T09:52:15Z</time>
      </trkpt>
      <trkpt lat="45.1723" lon="4.54014">
        <ele>1101.33</ele>
        <time>2017-07-16T09:52:28Z</time>
      </trkpt>
      <trkpt lat="45.17229" lon="4.5402">
        <ele>1103.25</ele>
        <time>2017-07-16T09:52:33Z</time>
      </trkpt>
      <trkpt lat="45.17223" lon="4.54028">
        <ele>1105.65</ele>
        <time>2017-07-16T09:52:47Z</time>
      </trkpt>
      <trkpt lat="45.17222" lon="4.54031">
        <ele>1105.65</ele>
        <time>2017-07-16T09:52:59Z</time>
      </trkpt>
      <trkpt lat="45.17214" lon="4.54046">
        <ele>1109.02</ele>
        <time>2017-07-16T09:53:12Z</time>
      </trkpt>
      <trkpt lat="45.17209" lon="4.54069">
        <ele>1113.34</ele>
        <time>2017-07-16T09:53:26Z</time>
      </trkpt>
      <trkpt lat="45.17204" lon="4.5409">
        <ele>1116.23</ele>
        <time>2017-07-16T09:53:38Z</time>
      </trkpt>
      <trkpt lat="45.17203" lon="4.54111">
        <ele>1118.15</ele>
        <time>2017-07-16T09:53:51Z</time>
      </trkpt>
      <trkpt lat="45.17202" lon="4.54117">
        <ele>1118.63</ele>
        <time>2017-07-16T09:53:54Z</time>
      </trkpt>
      <trkpt lat="45.17202" lon="4.54128">
        <ele>1118.15</ele>
        <time>2017-07-16T09:54:00Z</time>
      </trkpt>
      <trkpt lat="45.17197" lon="4.54154">
        <ele>1120.55</ele>
        <time>2017-07-16T09:54:16Z</time>
      </trkpt>
      <trkpt lat="45.17194" lon="4.54175">
        <ele>1126.32</ele>
        <time>2017-07-16T09:54:29Z</time>
      </trkpt>
      <trkpt lat="45.17193" lon="4.54202">
        <ele>1130.17</ele>
        <time>2017-07-16T09:54:45Z</time>
      </trkpt>
      <trkpt lat="45.17191" lon="4.54223">
        <ele>1133.05</ele>
        <time>2017-07-16T09:54:59Z</time>
      </trkpt>
      <trkpt lat="45.17192" lon="4.54245">
        <ele>1136.42</ele>
        <time>2017-07-16T09:55:14Z</time>
      </trkpt>
      <trkpt lat="45.17194" lon="4.54257">
        <ele>1136.42</ele>
        <time>2017-07-16T09:55:26Z</time>
      </trkpt>
      <trkpt lat="45.17193" lon="4.54264">
        <ele>1133.53</ele>
        <time>2017-07-16T09:55:48Z</time>
      </trkpt>
      <trkpt lat="45.17194" lon="4.54267">
        <ele>1131.61</ele>
        <time>2017-07-16T09:56:08Z</time>
      </trkpt>
      <trkpt lat="45.17195" lon="4.54267">
        <ele>1131.13</ele>
        <time>2017-07-16T09:56:35Z</time>
      </trkpt>
      <trkpt lat="45.17194" lon="4.54269">
        <ele>1130.65</ele>
        <time>2017-07-16T09:57:03Z</time>
      </trkpt>
      <trkpt lat="45.17196" lon="4.54268">
        <ele>1132.09</ele>
        <time>2017-07-16T09:57:21Z</time>
      </trkpt>
      <trkpt lat="45.17202" lon="4.54265">
        <ele>1134.49</ele>
        <time>2017-07-16T09:57:28Z</time>
      </trkpt>
      <trkpt lat="45.17206" lon="4.54256">
        <ele>1136.42</ele>
        <time>2017-07-16T09:57:33Z</time>
      </trkpt>
      <trkpt lat="45.17211" lon="4.54253">
        <ele>1137.86</ele>
        <time>2017-07-16T09:57:37Z</time>
      </trkpt>
      <trkpt lat="45.17225" lon="4.54253">
        <ele>1143.63</ele>
        <time>2017-07-16T09:57:49Z</time>
      </trkpt>
      <trkpt lat="45.17231" lon="4.54253">
        <ele>1146.99</ele>
        <time>2017-07-16T09:57:59Z</time>
      </trkpt>
      <trkpt lat="45.17241" lon="4.5425">
        <ele>1149.39</ele>
        <time>2017-07-16T09:58:11Z</time>
      </trkpt>
      <trkpt lat="45.17253" lon="4.54244">
        <ele>1150.84</ele>
        <time>2017-07-16T09:58:24Z</time>
      </trkpt>
      <trkpt lat="45.17263" lon="4.54222">
        <ele>1151.8</ele>
        <time>2017-07-16T09:58:40Z</time>
      </trkpt>
      <trkpt lat="45.17268" lon="4.54218">
        <ele>1151.32</ele>
        <time>2017-07-16T09:58:44Z</time>
      </trkpt>
      <trkpt lat="45.1727" lon="4.54217">
        <ele>1151.32</ele>
        <time>2017-07-16T09:58:46Z</time>
      </trkpt>
      <trkpt lat="45.17278" lon="4.54203">
        <ele>1152.28</ele>
        <time>2017-07-16T09:58:58Z</time>
      </trkpt>
      <trkpt lat="45.17285" lon="4.54196">
        <ele>1152.76</ele>
        <time>2017-07-16T09:59:07Z</time>
      </trkpt>
      <trkpt lat="45.17285" lon="4.54178">
        <ele>1153.72</ele>
        <time>2017-07-16T09:59:18Z</time>
      </trkpt>
      <trkpt lat="45.17288" lon="4.54165">
        <ele>1155.16</ele>
        <time>2017-07-16T09:59:26Z</time>
      </trkpt>
      <trkpt lat="45.1729" lon="4.54162">
        <ele>1155.16</ele>
        <time>2017-07-16T09:59:29Z</time>
      </trkpt>
      <trkpt lat="45.17296" lon="4.54152">
        <ele>1156.12</ele>
        <time>2017-07-16T09:59:38Z</time>
      </trkpt>
      <trkpt lat="45.17299" lon="4.54147">
        <ele>1155.16</ele>
        <time>2017-07-16T09:59:42Z</time>
      </trkpt>
      <trkpt lat="45.17304" lon="4.54136">
        <ele>1155.64</ele>
        <time>2017-07-16T09:59:50Z</time>
      </trkpt>
      <trkpt lat="45.17305" lon="4.54127">
        <ele>1156.12</ele>
        <time>2017-07-16T09:59:56Z</time>
      </trkpt>
      <trkpt lat="45.1731" lon="4.54106">
        <ele>1157.08</ele>
        <time>2017-07-16T10:00:10Z</time>
      </trkpt>
      <trkpt lat="45.17316" lon="4.54088">
        <ele>1157.08</ele>
        <time>2017-07-16T10:00:21Z</time>
      </trkpt>
      <trkpt lat="45.17324" lon="4.54073">
        <ele>1158.53</ele>
        <time>2017-07-16T10:00:35Z</time>
      </trkpt>
      <trkpt lat="45.17334" lon="4.54074">
        <ele>1157.56</ele>
        <time>2017-07-16T10:00:48Z</time>
      </trkpt>
      <trkpt lat="45.17336" lon="4.54073">
        <ele>1157.08</ele>
        <time>2017-07-16T10:00:50Z</time>
      </trkpt>
      <trkpt lat="45.17338" lon="4.54072">
        <ele>1157.08</ele>
        <time>2017-07-16T10:00:52Z</time>
      </trkpt>
      <trkpt lat="45.17347" lon="4.54062">
        <ele>1157.08</ele>
        <time>2017-07-16T10:01:02Z</time>
      </trkpt>
      <trkpt lat="45.17347" lon="4.5406">
        <ele>1156.12</ele>
        <time>2017-07-16T10:01:04Z</time>
      </trkpt>
      <trkpt lat="45.17349" lon="4.54045">
        <ele>1156.6</ele>
        <time>2017-07-16T10:01:18Z</time>
      </trkpt>
      <trkpt lat="45.17352" lon="4.54045">
        <ele>1157.08</ele>
        <time>2017-07-16T10:01:23Z</time>
      </trkpt>
      <trkpt lat="45.17355" lon="4.54042">
        <ele>1158.05</ele>
        <time>2017-07-16T10:01:26Z</time>
      </trkpt>
      <trkpt lat="45.1736" lon="4.54032">
        <ele>1157.08</ele>
        <time>2017-07-16T10:01:38Z</time>
      </trkpt>
      <trkpt lat="45.17365" lon="4.54025">
        <ele>1155.16</ele>
        <time>2017-07-16T10:01:49Z</time>
      </trkpt>
      <trkpt lat="45.17374" lon="4.54017">
        <ele>1152.76</ele>
        <time>2017-07-16T10:02:00Z</time>
      </trkpt>
      <trkpt lat="45.17376" lon="4.54013">
        <ele>1151.32</ele>
        <time>2017-07-16T10:02:18Z</time>
      </trkpt>
      <trkpt lat="45.17378" lon="4.54013">
        <ele>1149.87</ele>
        <time>2017-07-16T10:02:31Z</time>
      </trkpt>
      <trkpt lat="45.17379" lon="4.54015">
        <ele>1147.95</ele>
        <time>2017-07-16T10:02:41Z</time>
      </trkpt>
      <trkpt lat="45.17379" lon="4.54015">
        <ele>1147.95</ele>
        <time>2017-07-16T10:02:55Z</time>
      </trkpt>
      <trkpt lat="45.17379" lon="4.54015">
        <ele>1147.47</ele>
        <time>2017-07-16T10:03:22Z</time>
      </trkpt>
      <trkpt lat="45.1738" lon="4.54015">
        <ele>1147.47</ele>
        <time>2017-07-16T10:03:42Z</time>
      </trkpt>
      <trkpt lat="45.1738" lon="4.54015">
        <ele>1146.99</ele>
        <time>2017-07-16T10:03:59Z</time>
      </trkpt>
      <trkpt lat="45.17381" lon="4.54015">
        <ele>1146.51</ele>
        <time>2017-07-16T10:04:27Z</time>
      </trkpt>
      <trkpt lat="45.17381" lon="4.54014">
        <ele>1146.03</ele>
        <time>2017-07-16T10:04:53Z</time>
      </trkpt>
      <trkpt lat="45.17382" lon="4.54014">
        <ele>1145.55</ele>
        <time>2017-07-16T10:05:23Z</time>
      </trkpt>
      <trkpt lat="45.17383" lon="4.54012">
        <ele>1145.07</ele>
        <time>2017-07-16T10:05:41Z</time>
      </trkpt>
      <trkpt lat="45.17384" lon="4.54011">
        <ele>1144.59</ele>
        <time>2017-07-16T10:06:11Z</time>
      </trkpt>
      <trkpt lat="45.17385" lon="4.54011">
        <ele>1143.14</ele>
        <time>2017-07-16T10:06:42Z</time>
      </trkpt>
      <trkpt lat="45.17385" lon="4.54013">
        <ele>1142.18</ele>
        <time>2017-07-16T10:07:15Z</time>
      </trkpt>
      <trkpt lat="45.17386" lon="4.54014">
        <ele>1141.22</ele>
        <time>2017-07-16T10:07:48Z</time>
      </trkpt>
      <trkpt lat="45.17386" lon="4.54014">
        <ele>1140.74</ele>
        <time>2017-07-16T10:08:19Z</time>
      </trkpt>
      <trkpt lat="45.17386" lon="4.54015">
        <ele>1139.78</ele>
        <time>2017-07-16T10:08:47Z</time>
      </trkpt>
      <trkpt lat="45.17386" lon="4.54015">
        <ele>1139.78</ele>
        <time>2017-07-16T10:09:15Z</time>
      </trkpt>
      <trkpt lat="45.17385" lon="4.54016">
        <ele>1139.3</ele>
        <time>2017-07-16T10:09:39Z</time>
      </trkpt>
      <trkpt lat="45.17385" lon="4.54016">
        <ele>1139.3</ele>
        <time>2017-07-16T10:10:00Z</time>
      </trkpt>
      <trkpt lat="45.17385" lon="4.54016">
        <ele>1138.34</ele>
        <time>2017-07-16T10:10:26Z</time>
      </trkpt>
      <trkpt lat="45.17385" lon="4.54016">
        <ele>1138.34</ele>
        <time>2017-07-16T10:10:48Z</time>
      </trkpt>
      <trkpt lat="45.17385" lon="4.54015">
        <ele>1137.38</ele>
        <time>2017-07-16T10:11:16Z</time>
      </trkpt>
      <trkpt lat="45.17385" lon="4.54015">
        <ele>1136.9</ele>
        <time>2017-07-16T10:11:43Z</time>
      </trkpt>
      <trkpt lat="45.17385" lon="4.54015">
        <ele>1136.9</ele>
        <time>2017-07-16T10:12:10Z</time>
      </trkpt>
      <trkpt lat="45.17386" lon="4.54015">
        <ele>1136.42</ele>
        <time>2017-07-16T10:12:35Z</time>
      </trkpt>
      <trkpt lat="45.17386" lon="4.54015">
        <ele>1135.45</ele>
        <time>2017-07-16T10:13:04Z</time>
      </trkpt>
      <trkpt lat="45.17386" lon="4.54015">
        <ele>1135.45</ele>
        <time>2017-07-16T10:13:30Z</time>
      </trkpt>
      <trkpt lat="45.17385" lon="4.54015">
        <ele>1135.94</ele>
        <time>2017-07-16T10:13:55Z</time>
      </trkpt>
      <trkpt lat="45.17385" lon="4.54015">
        <ele>1136.42</ele>
        <time>2017-07-16T10:14:23Z</time>
      </trkpt>
      <trkpt lat="45.17386" lon="4.54015">
        <ele>1136.9</ele>
        <time>2017-07-16T10:14:53Z</time>
      </trkpt>
      <trkpt lat="45.17386" lon="4.54014">
        <ele>1137.38</ele>
        <time>2017-07-16T10:15:20Z</time>
      </trkpt>
      <trkpt lat="45.17386" lon="4.54014">
        <ele>1137.86</ele>
        <time>2017-07-16T10:15:48Z</time>
      </trkpt>
      <trkpt lat="45.17386" lon="4.54014">
        <ele>1138.34</ele>
        <time>2017-07-16T10:16:18Z</time>
      </trkpt>
      <trkpt lat="45.17386" lon="4.54013">
        <ele>1138.82</ele>
        <time>2017-07-16T10:16:43Z</time>
      </trkpt>
      <trkpt lat="45.17385" lon="4.54013">
        <ele>1139.3</ele>
        <time>2017-07-16T10:17:06Z</time>
      </trkpt>
      <trkpt lat="45.17385" lon="4.54013">
        <ele>1139.78</ele>
        <time>2017-07-16T10:17:28Z</time>
      </trkpt>
      <trkpt lat="45.17385" lon="4.54013">
        <ele>1139.78</ele>
        <time>2017-07-16T10:17:54Z</time>
      </trkpt>
      <trkpt lat="45.17385" lon="4.54013">
        <ele>1139.78</ele>
        <time>2017-07-16T10:18:16Z</time>
      </trkpt>
      <trkpt lat="45.17385" lon="4.54013">
        <ele>1139.3</ele>
        <time>2017-07-16T10:18:44Z</time>
      </trkpt>
      <trkpt lat="45.17385" lon="4.54013">
        <ele>1139.3</ele>
        <time>2017-07-16T10:19:07Z</time>
      </trkpt>
      <trkpt lat="45.17385" lon="4.54013">
        <ele>1138.82</ele>
        <time>2017-07-16T10:19:35Z</time>
      </trkpt>
      <trkpt lat="45.17385" lon="4.54013">
        <ele>1137.86</ele>
        <time>2017-07-16T10:20:02Z</time>
      </trkpt>
      <trkpt lat="45.17386" lon="4.54013">
        <ele>1136.9</ele>
        <time>2017-07-16T10:20:30Z</time>
      </trkpt>
      <trkpt lat="45.17386" lon="4.54014">
        <ele>1136.42</ele>
        <time>2017-07-16T10:20:52Z</time>
      </trkpt>
      <trkpt lat="45.17386" lon="4.54014">
        <ele>1135.94</ele>
        <time>2017-07-16T10:21:12Z</time>
      </trkpt>
      <trkpt lat="45.17386" lon="4.54014">
        <ele>1135.45</ele>
        <time>2017-07-16T10:21:38Z</time>
      </trkpt>
      <trkpt lat="45.17386" lon="4.54014">
        <ele>1134.97</ele>
        <time>2017-07-16T10:22:07Z</time>
      </trkpt>
      <trkpt lat="45.17386" lon="4.54014">
        <ele>1134.49</ele>
        <time>2017-07-16T10:22:34Z</time>
      </trkpt>
      <trkpt lat="45.17386" lon="4.54013">
        <ele>1134.97</ele>
        <time>2017-07-16T10:22:59Z</time>
      </trkpt>
      <trkpt lat="45.17386" lon="4.54013">
        <ele>1136.42</ele>
        <time>2017-07-16T10:23:29Z</time>
      </trkpt>
      <trkpt lat="45.17387" lon="4.54013">
        <ele>1135.94</ele>
        <time>2017-07-16T10:23:59Z</time>
      </trkpt>
      <trkpt lat="45.17387" lon="4.54013">
        <ele>1135.94</ele>
        <time>2017-07-16T10:24:32Z</time>
      </trkpt>
      <trkpt lat="45.17387" lon="4.54013">
        <ele>1135.94</ele>
        <time>2017-07-16T10:24:59Z</time>
      </trkpt>
      <trkpt lat="45.17387" lon="4.54012">
        <ele>1136.42</ele>
        <time>2017-07-16T10:25:27Z</time>
      </trkpt>
      <trkpt lat="45.17387" lon="4.54012">
        <ele>1136.42</ele>
        <time>2017-07-16T10:25:56Z</time>
      </trkpt>
      <trkpt lat="45.17387" lon="4.54012">
        <ele>1136.42</ele>
        <time>2017-07-16T10:26:24Z</time>
      </trkpt>
      <trkpt lat="45.17386" lon="4.54012">
        <ele>1135.94</ele>
        <time>2017-07-16T10:26:49Z</time>
      </trkpt>
      <trkpt lat="45.17386" lon="4.54011">
        <ele>1135.94</ele>
        <time>2017-07-16T10:27:13Z</time>
      </trkpt>
      <trkpt lat="45.17386" lon="4.54012">
        <ele>1135.94</ele>
        <time>2017-07-16T10:27:41Z</time>
      </trkpt>
      <trkpt lat="45.17385" lon="4.54013">
        <ele>1136.42</ele>
        <time>2017-07-16T10:28:11Z</time>
      </trkpt>
      <trkpt lat="45.17385" lon="4.54013">
        <ele>1136.9</ele>
        <time>2017-07-16T10:28:50Z</time>
      </trkpt>
      <trkpt lat="45.17385" lon="4.54012">
        <ele>1137.38</ele>
        <time>2017-07-16T10:29:20Z</time>
      </trkpt>
      <trkpt lat="45.17386" lon="4.54011">
        <ele>1137.86</ele>
        <time>2017-07-16T10:29:54Z</time>
      </trkpt>
      <trkpt lat="45.17387" lon="4.5401">
        <ele>1137.86</ele>
        <time>2017-07-16T10:30:28Z</time>
      </trkpt>
      <trkpt lat="45.17388" lon="4.54009">
        <ele>1137.86</ele>
        <time>2017-07-16T10:31:03Z</time>
      </trkpt>
      <trkpt lat="45.17388" lon="4.54007">
        <ele>1138.34</ele>
        <time>2017-07-16T10:31:36Z</time>
      </trkpt>
      <trkpt lat="45.17388" lon="4.54008">
        <ele>1138.34</ele>
        <time>2017-07-16T10:32:07Z</time>
      </trkpt>
      <trkpt lat="45.17388" lon="4.54008">
        <ele>1138.34</ele>
        <time>2017-07-16T10:32:38Z</time>
      </trkpt>
      <trkpt lat="45.17387" lon="4.54009">
        <ele>1137.86</ele>
        <time>2017-07-16T10:33:07Z</time>
      </trkpt>
      <trkpt lat="45.17387" lon="4.54009">
        <ele>1137.86</ele>
        <time>2017-07-16T10:33:39Z</time>
      </trkpt>
      <trkpt lat="45.17387" lon="4.54009">
        <ele>1137.86</ele>
        <time>2017-07-16T10:34:05Z</time>
      </trkpt>
      <trkpt lat="45.17387" lon="4.54009">
        <ele>1137.86</ele>
        <time>2017-07-16T10:34:34Z</time>
      </trkpt>
      <trkpt lat="45.17387" lon="4.54009">
        <ele>1137.86</ele>
        <time>2017-07-16T10:35:06Z</time>
      </trkpt>
      <trkpt lat="45.17387" lon="4.5401">
        <ele>1137.86</ele>
        <time>2017-07-16T10:35:36Z</time>
      </trkpt>
      <trkpt lat="45.17387" lon="4.5401">
        <ele>1137.38</ele>
        <time>2017-07-16T10:36:07Z</time>
      </trkpt>
      <trkpt lat="45.17387" lon="4.5401">
        <ele>1137.38</ele>
        <time>2017-07-16T10:36:33Z</time>
      </trkpt>
      <trkpt lat="45.17387" lon="4.54011">
        <ele>1136.9</ele>
        <time>2017-07-16T10:37:01Z</time>
      </trkpt>
      <trkpt lat="45.17386" lon="4.54011">
        <ele>1136.42</ele>
        <time>2017-07-16T10:37:32Z</time>
      </trkpt>
      <trkpt lat="45.17387" lon="4.54011">
        <ele>1136.42</ele>
        <time>2017-07-16T10:37:59Z</time>
      </trkpt>
      <trkpt lat="45.17387" lon="4.54011">
        <ele>1136.42</ele>
        <time>2017-07-16T10:38:28Z</time>
      </trkpt>
      <trkpt lat="45.17387" lon="4.54011">
        <ele>1136.9</ele>
        <time>2017-07-16T10:38:51Z</time>
      </trkpt>
      <trkpt lat="45.17388" lon="4.54011">
        <ele>1136.9</ele>
        <time>2017-07-16T10:39:15Z</time>
      </trkpt>
      <trkpt lat="45.17388" lon="4.54011">
        <ele>1136.42</ele>
        <time>2017-07-16T10:39:50Z</time>
      </trkpt>
      <trkpt lat="45.17388" lon="4.54011">
        <ele>1136.42</ele>
        <time>2017-07-16T10:40:18Z</time>
      </trkpt>
      <trkpt lat="45.17388" lon="4.54011">
        <ele>1136.9</ele>
        <time>2017-07-16T10:40:47Z</time>
      </trkpt>
      <trkpt lat="45.17388" lon="4.5401">
        <ele>1136.42</ele>
        <time>2017-07-16T10:41:13Z</time>
      </trkpt>
      <trkpt lat="45.17388" lon="4.5401">
        <ele>1136.42</ele>
        <time>2017-07-16T10:41:42Z</time>
      </trkpt>
      <trkpt lat="45.17389" lon="4.54011">
        <ele>1136.42</ele>
        <time>2017-07-16T10:42:10Z</time>
      </trkpt>
      <trkpt lat="45.17388" lon="4.54011">
        <ele>1136.42</ele>
        <time>2017-07-16T10:42:31Z</time>
      </trkpt>
      <trkpt lat="45.17387" lon="4.54014">
        <ele>1137.38</ele>
        <time>2017-07-16T10:42:54Z</time>
      </trkpt>
      <trkpt lat="45.17384" lon="4.54013">
        <ele>1137.86</ele>
        <time>2017-07-16T10:43:18Z</time>
      </trkpt>
      <trkpt lat="45.17384" lon="4.54013">
        <ele>1139.3</ele>
        <time>2017-07-16T10:43:55Z</time>
      </trkpt>
      <trkpt lat="45.17383" lon="4.54015">
        <ele>1139.3</ele>
        <time>2017-07-16T10:44:13Z</time>
      </trkpt>
      <trkpt lat="45.17384" lon="4.54015">
        <ele>1138.82</ele>
        <time>2017-07-16T10:44:33Z</time>
      </trkpt>
      <trkpt lat="45.17383" lon="4.54015">
        <ele>1138.82</ele>
        <time>2017-07-16T10:44:57Z</time>
      </trkpt>
      <trkpt lat="45.17384" lon="4.54015">
        <ele>1138.82</ele>
        <time>2017-07-16T10:45:14Z</time>
      </trkpt>
      <trkpt lat="45.17384" lon="4.54014">
        <ele>1139.3</ele>
        <time>2017-07-16T10:45:27Z</time>
      </trkpt>
      <trkpt lat="45.17384" lon="4.54012">
        <ele>1139.78</ele>
        <time>2017-07-16T10:45:42Z</time>
      </trkpt>
      <trkpt lat="45.17385" lon="4.5401">
        <ele>1139.78</ele>
        <time>2017-07-16T10:46:02Z</time>
      </trkpt>
      <trkpt lat="45.17385" lon="4.5401">
        <ele>1140.26</ele>
        <time>2017-07-16T10:46:27Z</time>
      </trkpt>
      <trkpt lat="45.17386" lon="4.54011">
        <ele>1139.78</ele>
        <time>2017-07-16T10:46:40Z</time>
      </trkpt>
      <trkpt lat="45.17385" lon="4.5401">
        <ele>1139.3</ele>
        <time>2017-07-16T10:46:57Z</time>
      </trkpt>
      <trkpt lat="45.17385" lon="4.5401">
        <ele>1139.3</ele>
        <time>2017-07-16T10:47:15Z</time>
      </trkpt>
      <trkpt lat="45.17386" lon="4.5401">
        <ele>1139.3</ele>
        <time>2017-07-16T10:47:30Z</time>
      </trkpt>
      <trkpt lat="45.17385" lon="4.5401">
        <ele>1138.82</ele>
        <time>2017-07-16T10:47:43Z</time>
      </trkpt>
      <trkpt lat="45.17385" lon="4.54009">
        <ele>1138.82</ele>
        <time>2017-07-16T10:48:01Z</time>
      </trkpt>
      <trkpt lat="45.17385" lon="4.54008">
        <ele>1139.3</ele>
        <time>2017-07-16T10:48:20Z</time>
      </trkpt>
      <trkpt lat="45.17385" lon="4.54007">
        <ele>1139.3</ele>
        <time>2017-07-16T10:48:37Z</time>
      </trkpt>
      <trkpt lat="45.17382" lon="4.54009">
        <ele>1140.26</ele>
        <time>2017-07-16T10:48:45Z</time>
      </trkpt>
      <trkpt lat="45.17375" lon="4.54018">
        <ele>1142.66</ele>
        <time>2017-07-16T10:48:59Z</time>
      </trkpt>
      <trkpt lat="45.1737" lon="4.54025">
        <ele>1144.11</ele>
        <time>2017-07-16T10:49:13Z</time>
      </trkpt>
      <trkpt lat="45.17368" lon="4.5403">
        <ele>1146.03</ele>
        <time>2017-07-16T10:49:25Z</time>
      </trkpt>
      <trkpt lat="45.17362" lon="4.54035">
        <ele>1147.47</ele>
        <time>2017-07-16T10:49:38Z</time>
      </trkpt>
      <trkpt lat="45.17359" lon="4.5404">
        <ele>1148.43</ele>
        <time>2017-07-16T10:49:51Z</time>
      </trkpt>
      <trkpt lat="45.17351" lon="4.54049">
        <ele>1151.32</ele>
        <time>2017-07-16T10:50:06Z</time>
      </trkpt>
      <trkpt lat="45.17339" lon="4.54056">
        <ele>1154.2</ele>
        <time>2017-07-16T10:50:20Z</time>
      </trkpt>
      <trkpt lat="45.17338" lon="4.54057">
        <ele>1154.2</ele>
        <time>2017-07-16T10:50:22Z</time>
      </trkpt>
      <trkpt lat="45.17328" lon="4.54074">
        <ele>1156.6</ele>
        <time>2017-07-16T10:50:36Z</time>
      </trkpt>
      <trkpt lat="45.17323" lon="4.54087">
        <ele>1159.49</ele>
        <time>2017-07-16T10:50:48Z</time>
      </trkpt>
      <trkpt lat="45.17321" lon="4.54094">
        <ele>1160.45</ele>
        <time>2017-07-16T10:50:53Z</time>
      </trkpt>
      <trkpt lat="45.17314" lon="4.54113">
        <ele>1160.45</ele>
        <time>2017-07-16T10:51:09Z</time>
      </trkpt>
      <trkpt lat="45.17311" lon="4.54127">
        <ele>1158.53</ele>
        <time>2017-07-16T10:51:21Z</time>
      </trkpt>
      <trkpt lat="45.17305" lon="4.54142">
        <ele>1158.05</ele>
        <time>2017-07-16T10:51:34Z</time>
      </trkpt>
      <trkpt lat="45.17298" lon="4.54155">
        <ele>1157.08</ele>
        <time>2017-07-16T10:51:45Z</time>
      </trkpt>
      <trkpt lat="45.17296" lon="4.54167">
        <ele>1153.24</ele>
        <time>2017-07-16T10:51:58Z</time>
      </trkpt>
      <trkpt lat="45.17294" lon="4.5418">
        <ele>1152.28</ele>
        <time>2017-07-16T10:52:09Z</time>
      </trkpt>
      <trkpt lat="45.17292" lon="4.54188">
        <ele>1149.39</ele>
        <time>2017-07-16T10:52:25Z</time>
      </trkpt>
      <trkpt lat="45.17289" lon="4.54193">
        <ele>1148.43</ele>
        <time>2017-07-16T10:52:31Z</time>
      </trkpt>
      <trkpt lat="45.17281" lon="4.54206">
        <ele>1149.87</ele>
        <time>2017-07-16T10:52:46Z</time>
      </trkpt>
      <trkpt lat="45.17274" lon="4.54218">
        <ele>1152.28</ele>
        <time>2017-07-16T10:53:01Z</time>
      </trkpt>
      <trkpt lat="45.17271" lon="4.54229">
        <ele>1151.8</ele>
        <time>2017-07-16T10:53:13Z</time>
      </trkpt>
      <trkpt lat="45.17263" lon="4.54237">
        <ele>1153.24</ele>
        <time>2017-07-16T10:53:30Z</time>
      </trkpt>
      <trkpt lat="45.17256" lon="4.54246">
        <ele>1150.35</ele>
        <time>2017-07-16T10:53:43Z</time>
      </trkpt>
      <trkpt lat="45.17249" lon="4.54245">
        <ele>1148.43</ele>
        <time>2017-07-16T10:53:56Z</time>
      </trkpt>
      <trkpt lat="45.17242" lon="4.54247">
        <ele>1144.11</ele>
        <time>2017-07-16T10:54:10Z</time>
      </trkpt>
      <trkpt lat="45.17234" lon="4.54249">
        <ele>1144.59</ele>
        <time>2017-07-16T10:54:21Z</time>
      </trkpt>
      <trkpt lat="45.17224" lon="4.54252">
        <ele>1143.14</ele>
        <time>2017-07-16T10:54:32Z</time>
      </trkpt>
      <trkpt lat="45.17218" lon="4.5426">
        <ele>1141.22</ele>
        <time>2017-07-16T10:54:46Z</time>
      </trkpt>
      <trkpt lat="45.1721" lon="4.54271">
        <ele>1137.86</ele>
        <time>2017-07-16T10:55:02Z</time>
      </trkpt>
      <trkpt lat="45.17208" lon="4.54281">
        <ele>1136.42</ele>
        <time>2017-07-16T10:55:16Z</time>
      </trkpt>
      <trkpt lat="45.17207" lon="4.54284">
        <ele>1135.94</ele>
        <time>2017-07-16T10:55:30Z</time>
      </trkpt>
      <trkpt lat="45.17205" lon="4.54287">
        <ele>1133.53</ele>
        <time>2017-07-16T10:55:51Z</time>
      </trkpt>
      <trkpt lat="45.17203" lon="4.54285">
        <ele>1132.09</ele>
        <time>2017-07-16T10:56:14Z</time>
      </trkpt>
      <trkpt lat="45.17203" lon="4.54281">
        <ele>1130.65</ele>
        <time>2017-07-16T10:56:41Z</time>
      </trkpt>
      <trkpt lat="45.17206" lon="4.54291">
        <ele>1130.65</ele>
        <time>2017-07-16T10:56:54Z</time>
      </trkpt>
      <trkpt lat="45.17212" lon="4.54303">
        <ele>1131.61</ele>
        <time>2017-07-16T10:57:09Z</time>
      </trkpt>
      <trkpt lat="45.17216" lon="4.54311">
        <ele>1132.09</ele>
        <time>2017-07-16T10:57:20Z</time>
      </trkpt>
      <trkpt lat="45.17222" lon="4.54324">
        <ele>1132.09</ele>
        <time>2017-07-16T10:57:33Z</time>
      </trkpt>
      <trkpt lat="45.17228" lon="4.54332">
        <ele>1131.13</ele>
        <time>2017-07-16T10:57:45Z</time>
      </trkpt>
      <trkpt lat="45.17232" lon="4.54341">
        <ele>1131.13</ele>
        <time>2017-07-16T10:57:58Z</time>
      </trkpt>
      <trkpt lat="45.17237" lon="4.54347">
        <ele>1128.24</ele>
        <time>2017-07-16T10:58:13Z</time>
      </trkpt>
      <trkpt lat="45.17241" lon="4.54354">
        <ele>1126.8</ele>
        <time>2017-07-16T10:58:28Z</time>
      </trkpt>
      <trkpt lat="45.1725" lon="4.54374">
        <ele>1126.8</ele>
        <time>2017-07-16T10:58:42Z</time>
      </trkpt>
      <trkpt lat="45.1725" lon="4.54375">
        <ele>1126.8</ele>
        <time>2017-07-16T10:58:44Z</time>
      </trkpt>
      <trkpt lat="45.17255" lon="4.54388">
        <ele>1126.8</ele>
        <time>2017-07-16T10:58:56Z</time>
      </trkpt>
      <trkpt lat="45.17263" lon="4.54406">
        <ele>1127.28</ele>
        <time>2017-07-16T10:59:06Z</time>
      </trkpt>
      <trkpt lat="45.17274" lon="4.5442">
        <ele>1123.92</ele>
        <time>2017-07-16T10:59:19Z</time>
      </trkpt>
      <trkpt lat="45.17278" lon="4.54433">
        <ele>1125.84</ele>
        <time>2017-07-16T10:59:33Z</time>
      </trkpt>
      <trkpt lat="45.17283" lon="4.54444">
        <ele>1125.84</ele>
        <time>2017-07-16T10:59:46Z</time>
      </trkpt>
      <trkpt lat="45.17288" lon="4.54462">
        <ele>1130.17</ele>
        <time>2017-07-16T11:00:00Z</time>
      </trkpt>
      <trkpt lat="45.17299" lon="4.54471">
        <ele>1125.36</ele>
        <time>2017-07-16T11:00:14Z</time>
      </trkpt>
      <trkpt lat="45.17302" lon="4.54477">
        <ele>1121.03</ele>
        <time>2017-07-16T11:00:29Z</time>
      </trkpt>
      <trkpt lat="45.17302" lon="4.54491">
        <ele>1118.63</ele>
        <time>2017-07-16T11:00:42Z</time>
      </trkpt>
      <trkpt lat="45.17305" lon="4.54517">
        <ele>1115.27</ele>
        <time>2017-07-16T11:00:56Z</time>
      </trkpt>
      <trkpt lat="45.1731" lon="4.54539">
        <ele>1112.38</ele>
        <time>2017-07-16T11:01:09Z</time>
      </trkpt>
      <trkpt lat="45.17317" lon="4.54561">
        <ele>1109.5</ele>
        <time>2017-07-16T11:01:23Z</time>
      </trkpt>
      <trkpt lat="45.17321" lon="4.54577">
        <ele>1110.94</ele>
        <time>2017-07-16T11:01:37Z</time>
      </trkpt>
      <trkpt lat="45.17325" lon="4.54599">
        <ele>1112.38</ele>
        <time>2017-07-16T11:01:50Z</time>
      </trkpt>
      <trkpt lat="45.17332" lon="4.54618">
        <ele>1108.06</ele>
        <time>2017-07-16T11:02:01Z</time>
      </trkpt>
      <trkpt lat="45.17336" lon="4.54632">
        <ele>1109.02</ele>
        <time>2017-07-16T11:02:14Z</time>
      </trkpt>
      <trkpt lat="45.17345" lon="4.54651">
        <ele>1109.5</ele>
        <time>2017-07-16T11:02:29Z</time>
      </trkpt>
      <trkpt lat="45.17349" lon="4.54666">
        <ele>1108.06</ele>
        <time>2017-07-16T11:02:43Z</time>
      </trkpt>
      <trkpt lat="45.17351" lon="4.54684">
        <ele>1106.61</ele>
        <time>2017-07-16T11:02:56Z</time>
      </trkpt>
      <trkpt lat="45.17354" lon="4.54699">
        <ele>1103.73</ele>
        <time>2017-07-16T11:03:07Z</time>
      </trkpt>
      <trkpt lat="45.17356" lon="4.54716">
        <ele>1101.81</ele>
        <time>2017-07-16T11:03:18Z</time>
      </trkpt>
      <trkpt lat="45.1736" lon="4.54738">
        <ele>1099.4</ele>
        <time>2017-07-16T11:03:34Z</time>
      </trkpt>
      <trkpt lat="45.17367" lon="4.54754">
        <ele>1093.16</ele>
        <time>2017-07-16T11:03:47Z</time>
      </trkpt>
      <trkpt lat="45.17373" lon="4.54766">
        <ele>1091.23</ele>
        <time>2017-07-16T11:03:59Z</time>
      </trkpt>
      <trkpt lat="45.17381" lon="4.5478">
        <ele>1090.27</ele>
        <time>2017-07-16T11:04:11Z</time>
      </trkpt>
      <trkpt lat="45.17388" lon="4.54789">
        <ele>1088.35</ele>
        <time>2017-07-16T11:04:19Z</time>
      </trkpt>
      <trkpt lat="45.17398" lon="4.54802">
        <ele>1083.06</ele>
        <time>2017-07-16T11:04:31Z</time>
      </trkpt>
      <trkpt lat="45.17406" lon="4.54819">
        <ele>1078.26</ele>
        <time>2017-07-16T11:04:45Z</time>
      </trkpt>
      <trkpt lat="45.17415" lon="4.54823">
        <ele>1069.12</ele>
        <time>2017-07-16T11:04:57Z</time>
      </trkpt>
      <trkpt lat="45.17416" lon="4.54824">
        <ele>1062.87</ele>
        <time>2017-07-16T11:05:12Z</time>
      </trkpt>
      <trkpt lat="45.17417" lon="4.54825">
        <ele>1060.95</ele>
        <time>2017-07-16T11:05:19Z</time>
      </trkpt>
      <trkpt lat="45.17423" lon="4.54837">
        <ele>1056.15</ele>
        <time>2017-07-16T11:05:33Z</time>
      </trkpt>
      <trkpt lat="45.17425" lon="4.54842">
        <ele>1051.82</ele>
        <time>2017-07-16T11:05:54Z</time>
      </trkpt>
      <trkpt lat="45.17427" lon="4.54845">
        <ele>1047.97</ele>
        <time>2017-07-16T11:06:23Z</time>
      </trkpt>
      <trkpt lat="45.17428" lon="4.54846">
        <ele>1044.61</ele>
        <time>2017-07-16T11:06:43Z</time>
      </trkpt>
      <trkpt lat="45.17427" lon="4.54847">
        <ele>1042.69</ele>
        <time>2017-07-16T11:07:03Z</time>
      </trkpt>
      <trkpt lat="45.17426" lon="4.54848">
        <ele>1041.73</ele>
        <time>2017-07-16T11:07:26Z</time>
      </trkpt>
      <trkpt lat="45.17428" lon="4.54849">
        <ele>1041.73</ele>
        <time>2017-07-16T11:07:48Z</time>
      </trkpt>
      <trkpt lat="45.17443" lon="4.54854">
        <ele>1043.65</ele>
        <time>2017-07-16T11:08:04Z</time>
      </trkpt>
      <trkpt lat="45.17456" lon="4.54862">
        <ele>1045.09</ele>
        <time>2017-07-16T11:08:19Z</time>
      </trkpt>
      <trkpt lat="45.17471" lon="4.54876">
        <ele>1045.09</ele>
        <time>2017-07-16T11:08:35Z</time>
      </trkpt>
      <trkpt lat="45.17489" lon="4.54893">
        <ele>1045.09</ele>
        <time>2017-07-16T11:08:52Z</time>
      </trkpt>
      <trkpt lat="45.17503" lon="4.54904">
        <ele>1044.13</ele>
        <time>2017-07-16T11:09:07Z</time>
      </trkpt>
      <trkpt lat="45.17509" lon="4.54909">
        <ele>1042.69</ele>
        <time>2017-07-16T11:09:21Z</time>
      </trkpt>
      <trkpt lat="45.17523" lon="4.54918">
        <ele>1045.57</ele>
        <time>2017-07-16T11:09:36Z</time>
      </trkpt>
      <trkpt lat="45.17537" lon="4.54927">
        <ele>1049.42</ele>
        <time>2017-07-16T11:09:51Z</time>
      </trkpt>
      <trkpt lat="45.17547" lon="4.54931">
        <ele>1049.42</ele>
        <time>2017-07-16T11:10:04Z</time>
      </trkpt>
      <trkpt lat="45.17559" lon="4.54938">
        <ele>1050.38</ele>
        <time>2017-07-16T11:10:17Z</time>
      </trkpt>
      <trkpt lat="45.17565" lon="4.54942">
        <ele>1048.45</ele>
        <time>2017-07-16T11:10:24Z</time>
      </trkpt>
      <trkpt lat="45.17578" lon="4.54949">
        <ele>1048.94</ele>
        <time>2017-07-16T11:10:35Z</time>
      </trkpt>
      <trkpt lat="45.17595" lon="4.54956">
        <ele>1047.97</ele>
        <time>2017-07-16T11:10:49Z</time>
      </trkpt>
      <trkpt lat="45.17597" lon="4.54956">
        <ele>1047.97</ele>
        <time>2017-07-16T11:10:50Z</time>
      </trkpt>
      <trkpt lat="45.17608" lon="4.54959">
        <ele>1047.97</ele>
        <time>2017-07-16T11:10:57Z</time>
      </trkpt>
      <trkpt lat="45.17626" lon="4.5497">
        <ele>1045.57</ele>
        <time>2017-07-16T11:11:11Z</time>
      </trkpt>
      <trkpt lat="45.17633" lon="4.54971">
        <ele>1042.69</ele>
        <time>2017-07-16T11:11:24Z</time>
      </trkpt>
      <trkpt lat="45.1765" lon="4.54979">
        <ele>1041.25</ele>
        <time>2017-07-16T11:11:38Z</time>
      </trkpt>
      <trkpt lat="45.17668" lon="4.5499">
        <ele>1039.32</ele>
        <time>2017-07-16T11:11:51Z</time>
      </trkpt>
      <trkpt lat="45.17684" lon="4.55001">
        <ele>1044.13</ele>
        <time>2017-07-16T11:12:03Z</time>
      </trkpt>
      <trkpt lat="45.17701" lon="4.55017">
        <ele>1049.42</ele>
        <time>2017-07-16T11:12:18Z</time>
      </trkpt>
      <trkpt lat="45.17709" lon="4.55027">
        <ele>1047.97</ele>
        <time>2017-07-16T11:12:30Z</time>
      </trkpt>
      <trkpt lat="45.17713" lon="4.55043">
        <ele>1046.05</ele>
        <time>2017-07-16T11:12:42Z</time>
      </trkpt>
      <trkpt lat="45.17712" lon="4.55057">
        <ele>1044.13</ele>
        <time>2017-07-16T11:12:54Z</time>
      </trkpt>
      <trkpt lat="45.17707" lon="4.55074">
        <ele>1045.09</ele>
        <time>2017-07-16T11:13:06Z</time>
      </trkpt>
      <trkpt lat="45.177" lon="4.55094">
        <ele>1046.05</ele>
        <time>2017-07-16T11:13:20Z</time>
      </trkpt>
      <trkpt lat="45.17695" lon="4.55106">
        <ele>1046.05</ele>
        <time>2017-07-16T11:13:36Z</time>
      </trkpt>
      <trkpt lat="45.17686" lon="4.55131">
        <ele>1042.69</ele>
        <time>2017-07-16T11:13:50Z</time>
      </trkpt>
      <trkpt lat="45.17678" lon="4.55144">
        <ele>1041.73</ele>
        <time>2017-07-16T11:14:03Z</time>
      </trkpt>
      <trkpt lat="45.1767" lon="4.55152">
        <ele>1044.13</ele>
        <time>2017-07-16T11:14:14Z</time>
      </trkpt>
      <trkpt lat="45.17655" lon="4.55166">
        <ele>1044.13</ele>
        <time>2017-07-16T11:14:29Z</time>
      </trkpt>
      <trkpt lat="45.17645" lon="4.55178">
        <ele>1042.69</ele>
        <time>2017-07-16T11:14:43Z</time>
      </trkpt>
      <trkpt lat="45.17642" lon="4.55181">
        <ele>1042.21</ele>
        <time>2017-07-16T11:14:46Z</time>
      </trkpt>
      <trkpt lat="45.17637" lon="4.55189">
        <ele>1041.25</ele>
        <time>2017-07-16T11:14:53Z</time>
      </trkpt>
      <trkpt lat="45.17628" lon="4.55212">
        <ele>1041.73</ele>
        <time>2017-07-16T11:15:08Z</time>
      </trkpt>
      <trkpt lat="45.17624" lon="4.55229">
        <ele>1043.65</ele>
        <time>2017-07-16T11:15:20Z</time>
      </trkpt>
      <trkpt lat="45.17619" lon="4.55257">
        <ele>1045.09</ele>
        <time>2017-07-16T11:15:34Z</time>
      </trkpt>
      <trkpt lat="45.17617" lon="4.55259">
        <ele>1045.57</ele>
        <time>2017-07-16T11:15:36Z</time>
      </trkpt>
      <trkpt lat="45.1761" lon="4.55285">
        <ele>1044.61</ele>
        <time>2017-07-16T11:15:50Z</time>
      </trkpt>
      <trkpt lat="45.17602" lon="4.55299">
        <ele>1047.01</ele>
        <time>2017-07-16T11:16:02Z</time>
      </trkpt>
      <trkpt lat="45.17598" lon="4.55326">
        <ele>1047.49</ele>
        <time>2017-07-16T11:16:16Z</time>
      </trkpt>
      <trkpt lat="45.17594" lon="4.55343">
        <ele>1047.01</ele>
        <time>2017-07-16T11:16:26Z</time>
      </trkpt>
      <trkpt lat="45.17586" lon="4.55368">
        <ele>1043.65</ele>
        <time>2017-07-16T11:16:41Z</time>
      </trkpt>
      <trkpt lat="45.17581" lon="4.55389">
        <ele>1044.61</ele>
        <time>2017-07-16T11:16:55Z</time>
      </trkpt>
      <trkpt lat="45.17577" lon="4.55409">
        <ele>1047.49</ele>
        <time>2017-07-16T11:17:08Z</time>
      </trkpt>
      <trkpt lat="45.17575" lon="4.55432">
        <ele>1048.45</ele>
        <time>2017-07-16T11:17:20Z</time>
      </trkpt>
      <trkpt lat="45.17571" lon="4.55457">
        <ele>1046.53</ele>
        <time>2017-07-16T11:17:34Z</time>
      </trkpt>
      <trkpt lat="45.17569" lon="4.55479">
        <ele>1048.45</ele>
        <time>2017-07-16T11:17:48Z</time>
      </trkpt>
      <trkpt lat="45.17568" lon="4.55501">
        <ele>1048.45</ele>
        <time>2017-07-16T11:18:01Z</time>
      </trkpt>
      <trkpt lat="45.17562" lon="4.55519">
        <ele>1049.42</ele>
        <time>2017-07-16T11:18:15Z</time>
      </trkpt>
      <trkpt lat="45.17556" lon="4.55529">
        <ele>1049.9</ele>
        <time>2017-07-16T11:18:23Z</time>
      </trkpt>
      <trkpt lat="45.17544" lon="4.55548">
        <ele>1049.9</ele>
        <time>2017-07-16T11:18:39Z</time>
      </trkpt>
      <trkpt lat="45.17529" lon="4.55572">
        <ele>1051.34</ele>
        <time>2017-07-16T11:18:55Z</time>
      </trkpt>
      <trkpt lat="45.17526" lon="4.55583">
        <ele>1052.3</ele>
        <time>2017-07-16T11:19:01Z</time>
      </trkpt>
      <trkpt lat="45.17521" lon="4.55604">
        <ele>1053.26</ele>
        <time>2017-07-16T11:19:12Z</time>
      </trkpt>
      <trkpt lat="45.17515" lon="4.55627">
        <ele>1060.95</ele>
        <time>2017-07-16T11:19:26Z</time>
      </trkpt>
      <trkpt lat="45.17512" lon="4.55654">
        <ele>1068.16</ele>
        <time>2017-07-16T11:19:40Z</time>
      </trkpt>
      <trkpt lat="45.17511" lon="4.55666">
        <ele>1071.53</ele>
        <time>2017-07-16T11:19:47Z</time>
      </trkpt>
      <trkpt lat="45.1751" lon="4.55692">
        <ele>1073.93</ele>
        <time>2017-07-16T11:20:00Z</time>
      </trkpt>
      <trkpt lat="45.17511" lon="4.55702">
        <ele>1075.37</ele>
        <time>2017-07-16T11:20:06Z</time>
      </trkpt>
      <trkpt lat="45.17511" lon="4.55721">
        <ele>1073.93</ele>
        <time>2017-07-16T11:20:15Z</time>
      </trkpt>
      <trkpt lat="45.17514" lon="4.55755">
        <ele>1072.01</ele>
        <time>2017-07-16T11:20:32Z</time>
      </trkpt>
      <trkpt lat="45.17518" lon="4.55778">
        <ele>1070.08</ele>
        <time>2017-07-16T11:20:45Z</time>
      </trkpt>
      <trkpt lat="45.17523" lon="4.558">
        <ele>1062.87</ele>
        <time>2017-07-16T11:20:58Z</time>
      </trkpt>
      <trkpt lat="45.17534" lon="4.55819">
        <ele>1056.15</ele>
        <time>2017-07-16T11:21:12Z</time>
      </trkpt>
      <trkpt lat="45.17542" lon="4.55835">
        <ele>1049.9</ele>
        <time>2017-07-16T11:21:25Z</time>
      </trkpt>
      <trkpt lat="45.17553" lon="4.55853">
        <ele>1052.3</ele>
        <time>2017-07-16T11:21:40Z</time>
      </trkpt>
      <trkpt lat="45.17567" lon="4.55867">
        <ele>1054.22</ele>
        <time>2017-07-16T11:21:54Z</time>
      </trkpt>
      <trkpt lat="45.17581" lon="4.55886">
        <ele>1046.53</ele>
        <time>2017-07-16T11:22:08Z</time>
      </trkpt>
      <trkpt lat="45.17599" lon="4.559">
        <ele>1038.84</ele>
        <time>2017-07-16T11:22:22Z</time>
      </trkpt>
      <trkpt lat="45.17613" lon="4.55912">
        <ele>1035</ele>
        <time>2017-07-16T11:22:36Z</time>
      </trkpt>
      <trkpt lat="45.17628" lon="4.55924">
        <ele>1033.55</ele>
        <time>2017-07-16T11:22:49Z</time>
      </trkpt>
      <trkpt lat="45.17641" lon="4.55944">
        <ele>1038.36</ele>
        <time>2017-07-16T11:23:05Z</time>
      </trkpt>
      <trkpt lat="45.17652" lon="4.55959">
        <ele>1037.4</ele>
        <time>2017-07-16T11:23:18Z</time>
      </trkpt>
      <trkpt lat="45.17656" lon="4.55965">
        <ele>1037.88</ele>
        <time>2017-07-16T11:23:23Z</time>
      </trkpt>
      <trkpt lat="45.17657" lon="4.55968">
        <ele>1038.36</ele>
        <time>2017-07-16T11:23:25Z</time>
      </trkpt>
      <trkpt lat="45.17667" lon="4.55985">
        <ele>1042.69</ele>
        <time>2017-07-16T11:23:39Z</time>
      </trkpt>
      <trkpt lat="45.17674" lon="4.55998">
        <ele>1049.42</ele>
        <time>2017-07-16T11:23:52Z</time>
      </trkpt>
      <trkpt lat="45.17689" lon="4.56018">
        <ele>1060.47</ele>
        <time>2017-07-16T11:24:07Z</time>
      </trkpt>
      <trkpt lat="45.17692" lon="4.56024">
        <ele>1062.87</ele>
        <time>2017-07-16T11:24:18Z</time>
      </trkpt>
      <trkpt lat="45.17695" lon="4.56044">
        <ele>1071.05</ele>
        <time>2017-07-16T11:24:33Z</time>
      </trkpt>
      <trkpt lat="45.17696" lon="4.56068">
        <ele>1072.49</ele>
        <time>2017-07-16T11:24:49Z</time>
      </trkpt>
      <trkpt lat="45.17694" lon="4.56086">
        <ele>1070.08</ele>
        <time>2017-07-16T11:25:02Z</time>
      </trkpt>
      <trkpt lat="45.17691" lon="4.56113">
        <ele>1066.72</ele>
        <time>2017-07-16T11:25:17Z</time>
      </trkpt>
      <trkpt lat="45.17685" lon="4.56136">
        <ele>1063.84</ele>
        <time>2017-07-16T11:25:31Z</time>
      </trkpt>
      <trkpt lat="45.17681" lon="4.5616">
        <ele>1057.11</ele>
        <time>2017-07-16T11:25:44Z</time>
      </trkpt>
      <trkpt lat="45.17677" lon="4.56187">
        <ele>1055.67</ele>
        <time>2017-07-16T11:25:57Z</time>
      </trkpt>
      <trkpt lat="45.17672" lon="4.56217">
        <ele>1052.78</ele>
        <time>2017-07-16T11:26:11Z</time>
      </trkpt>
      <trkpt lat="45.17669" lon="4.5624">
        <ele>1049.42</ele>
        <time>2017-07-16T11:26:26Z</time>
      </trkpt>
      <trkpt lat="45.17665" lon="4.56257">
        <ele>1045.57</ele>
        <time>2017-07-16T11:26:35Z</time>
      </trkpt>
      <trkpt lat="45.1766" lon="4.56279">
        <ele>1040.76</ele>
        <time>2017-07-16T11:26:43Z</time>
      </trkpt>
      <trkpt lat="45.17655" lon="4.56295">
        <ele>1036.44</ele>
        <time>2017-07-16T11:26:50Z</time>
      </trkpt>
      <trkpt lat="45.17649" lon="4.56302">
        <ele>1035</ele>
        <time>2017-07-16T11:26:56Z</time>
      </trkpt>
      <trkpt lat="45.17645" lon="4.56312">
        <ele>1035.48</ele>
        <time>2017-07-16T11:27:03Z</time>
      </trkpt>
      <trkpt lat="45.17632" lon="4.56323">
        <ele>1035.96</ele>
        <time>2017-07-16T11:27:17Z</time>
      </trkpt>
      <trkpt lat="45.17627" lon="4.56338">
        <ele>1036.92</ele>
        <time>2017-07-16T11:27:24Z</time>
      </trkpt>
      <trkpt lat="45.17615" lon="4.56363">
        <ele>1035.48</ele>
        <time>2017-07-16T11:27:38Z</time>
      </trkpt>
      <trkpt lat="45.17601" lon="4.56388">
        <ele>1032.11</ele>
        <time>2017-07-16T11:27:53Z</time>
      </trkpt>
      <trkpt lat="45.17591" lon="4.56407">
        <ele>1027.79</ele>
        <time>2017-07-16T11:28:04Z</time>
      </trkpt>
      <trkpt lat="45.17582" lon="4.56426">
        <ele>1026.34</ele>
        <time>2017-07-16T11:28:18Z</time>
      </trkpt>
      <trkpt lat="45.17575" lon="4.56434">
        <ele>1024.9</ele>
        <time>2017-07-16T11:28:24Z</time>
      </trkpt>
      <trkpt lat="45.17565" lon="4.5646">
        <ele>1023.46</ele>
        <time>2017-07-16T11:28:41Z</time>
      </trkpt>
      <trkpt lat="45.17558" lon="4.56479">
        <ele>1024.42</ele>
        <time>2017-07-16T11:28:55Z</time>
      </trkpt>
      <trkpt lat="45.17552" lon="4.56504">
        <ele>1024.9</ele>
        <time>2017-07-16T11:29:09Z</time>
      </trkpt>
      <trkpt lat="45.17547" lon="4.56528">
        <ele>1022.98</ele>
        <time>2017-07-16T11:29:21Z</time>
      </trkpt>
      <trkpt lat="45.17538" lon="4.5655">
        <ele>1023.46</ele>
        <time>2017-07-16T11:29:35Z</time>
      </trkpt>
      <trkpt lat="45.17536" lon="4.56558">
        <ele>1023.94</ele>
        <time>2017-07-16T11:29:39Z</time>
      </trkpt>
      <trkpt lat="45.17541" lon="4.56581">
        <ele>1029.71</ele>
        <time>2017-07-16T11:29:53Z</time>
      </trkpt>
      <trkpt lat="45.17546" lon="4.56589">
        <ele>1034.04</ele>
        <time>2017-07-16T11:30:02Z</time>
      </trkpt>
      <trkpt lat="45.17557" lon="4.56609">
        <ele>1039.32</ele>
        <time>2017-07-16T11:30:17Z</time>
      </trkpt>
      <trkpt lat="45.17563" lon="4.56625">
        <ele>1041.25</ele>
        <time>2017-07-16T11:30:28Z</time>
      </trkpt>
      <trkpt lat="45.17568" lon="4.56632">
        <ele>1044.13</ele>
        <time>2017-07-16T11:30:34Z</time>
      </trkpt>
      <trkpt lat="45.17584" lon="4.56657">
        <ele>1019.62</ele>
        <time>2017-07-16T11:30:51Z</time>
      </trkpt>
      <trkpt lat="45.17599" lon="4.56653">
        <ele>1010.48</ele>
        <time>2017-07-16T11:31:08Z</time>
      </trkpt>
      <trkpt lat="45.17614" lon="4.56644">
        <ele>1009.04</ele>
        <time>2017-07-16T11:31:24Z</time>
      </trkpt>
      <trkpt lat="45.1762" lon="4.56636">
        <ele>1005.68</ele>
        <time>2017-07-16T11:31:35Z</time>
      </trkpt>
      <trkpt lat="45.17635" lon="4.5662">
        <ele>1002.31</ele>
        <time>2017-07-16T11:31:49Z</time>
      </trkpt>
      <trkpt lat="45.17636" lon="4.56619">
        <ele>1001.83</ele>
        <time>2017-07-16T11:31:50Z</time>
      </trkpt>
      <trkpt lat="45.17639" lon="4.56614">
        <ele>1000.87</ele>
        <time>2017-07-16T11:31:53Z</time>
      </trkpt>
      <trkpt lat="45.17655" lon="4.56598">
        <ele>999.91</ele>
        <time>2017-07-16T11:32:07Z</time>
      </trkpt>
      <trkpt lat="45.17668" lon="4.56587">
        <ele>999.91</ele>
        <time>2017-07-16T11:32:20Z</time>
      </trkpt>
      <trkpt lat="45.17685" lon="4.56574">
        <ele>1000.39</ele>
        <time>2017-07-16T11:32:35Z</time>
      </trkpt>
      <trkpt lat="45.17695" lon="4.56558">
        <ele>1002.31</ele>
        <time>2017-07-16T11:32:47Z</time>
      </trkpt>
      <trkpt lat="45.17706" lon="4.56548">
        <ele>1004.72</ele>
        <time>2017-07-16T11:32:59Z</time>
      </trkpt>
      <trkpt lat="45.17708" lon="4.56547">
        <ele>1005.68</ele>
        <time>2017-07-16T11:33:01Z</time>
      </trkpt>
      <trkpt lat="45.17724" lon="4.56531">
        <ele>1006.64</ele>
        <time>2017-07-16T11:33:17Z</time>
      </trkpt>
      <trkpt lat="45.17737" lon="4.56519">
        <ele>1004.23</ele>
        <time>2017-07-16T11:33:29Z</time>
      </trkpt>
      <trkpt lat="45.17748" lon="4.56513">
        <ele>1001.35</ele>
        <time>2017-07-16T11:33:44Z</time>
      </trkpt>
      <trkpt lat="45.17766" lon="4.56511">
        <ele>1005.2</ele>
        <time>2017-07-16T11:33:59Z</time>
      </trkpt>
      <trkpt lat="45.17772" lon="4.56509">
        <ele>1006.16</ele>
        <time>2017-07-16T11:34:02Z</time>
      </trkpt>
      <trkpt lat="45.17786" lon="4.56521">
        <ele>1006.64</ele>
        <time>2017-07-16T11:34:15Z</time>
      </trkpt>
      <trkpt lat="45.17801" lon="4.56536">
        <ele>1002.31</ele>
        <time>2017-07-16T11:34:28Z</time>
      </trkpt>
      <trkpt lat="45.17808" lon="4.56537">
        <ele>1000.39</ele>
        <time>2017-07-16T11:34:32Z</time>
      </trkpt>
      <trkpt lat="45.17814" lon="4.56542">
        <ele>997.99</ele>
        <time>2017-07-16T11:34:37Z</time>
      </trkpt>
      <trkpt lat="45.17831" lon="4.56556">
        <ele>992.7</ele>
        <time>2017-07-16T11:34:50Z</time>
      </trkpt>
      <trkpt lat="45.17844" lon="4.56564">
        <ele>991.74</ele>
        <time>2017-07-16T11:35:03Z</time>
      </trkpt>
      <trkpt lat="45.1786" lon="4.56574">
        <ele>989.81</ele>
        <time>2017-07-16T11:35:16Z</time>
      </trkpt>
      <trkpt lat="45.1788" lon="4.56587">
        <ele>987.89</ele>
        <time>2017-07-16T11:35:31Z</time>
      </trkpt>
      <trkpt lat="45.17896" lon="4.56601">
        <ele>985.97</ele>
        <time>2017-07-16T11:35:44Z</time>
      </trkpt>
      <trkpt lat="45.17915" lon="4.56611">
        <ele>985.01</ele>
        <time>2017-07-16T11:35:59Z</time>
      </trkpt>
      <trkpt lat="45.17928" lon="4.56618">
        <ele>983.09</ele>
        <time>2017-07-16T11:36:12Z</time>
      </trkpt>
      <trkpt lat="45.17943" lon="4.56626">
        <ele>984.53</ele>
        <time>2017-07-16T11:36:23Z</time>
      </trkpt>
      <trkpt lat="45.17946" lon="4.56627">
        <ele>985.01</ele>
        <time>2017-07-16T11:36:25Z</time>
      </trkpt>
      <trkpt lat="45.17957" lon="4.56638">
        <ele>985.49</ele>
        <time>2017-07-16T11:36:37Z</time>
      </trkpt>
      <trkpt lat="45.17974" lon="4.56648">
        <ele>984.05</ele>
        <time>2017-07-16T11:36:49Z</time>
      </trkpt>
      <trkpt lat="45.17987" lon="4.56663">
        <ele>985.97</ele>
        <time>2017-07-16T11:37:03Z</time>
      </trkpt>
      <trkpt lat="45.18005" lon="4.56674">
        <ele>994.62</ele>
        <time>2017-07-16T11:37:18Z</time>
      </trkpt>
      <trkpt lat="45.18022" lon="4.56688">
        <ele>999.91</ele>
        <time>2017-07-16T11:37:32Z</time>
      </trkpt>
      <trkpt lat="45.18034" lon="4.56701">
        <ele>1002.31</ele>
        <time>2017-07-16T11:37:48Z</time>
      </trkpt>
      <trkpt lat="45.18041" lon="4.5671">
        <ele>1004.23</ele>
        <time>2017-07-16T11:37:56Z</time>
      </trkpt>
      <trkpt lat="45.18056" lon="4.56726">
        <ele>1007.12</ele>
        <time>2017-07-16T11:38:11Z</time>
      </trkpt>
      <trkpt lat="45.1807" lon="4.56743">
        <ele>997.99</ele>
        <time>2017-07-16T11:38:26Z</time>
      </trkpt>
      <trkpt lat="45.18094" lon="4.5676">
        <ele>979.24</ele>
        <time>2017-07-16T11:38:39Z</time>
      </trkpt>
      <trkpt lat="45.18106" lon="4.56763">
        <ele>972.51</ele>
        <time>2017-07-16T11:38:45Z</time>
      </trkpt>
      <trkpt lat="45.18129" lon="4.56758">
        <ele>962.42</ele>
        <time>2017-07-16T11:38:58Z</time>
      </trkpt>
      <trkpt lat="45.18145" lon="4.56748">
        <ele>960.98</ele>
        <time>2017-07-16T11:39:13Z</time>
      </trkpt>
      <trkpt lat="45.18151" lon="4.56744">
        <ele>960.01</ele>
        <time>2017-07-16T11:39:25Z</time>
      </trkpt>
      <trkpt lat="45.18155" lon="4.56744">
        <ele>959.05</ele>
        <time>2017-07-16T11:39:37Z</time>
      </trkpt>
      <trkpt lat="45.1816" lon="4.5674">
        <ele>955.69</ele>
        <time>2017-07-16T11:39:49Z</time>
      </trkpt>
      <trkpt lat="45.18162" lon="4.56738">
        <ele>953.28</ele>
        <time>2017-07-16T11:40:05Z</time>
      </trkpt>
      <trkpt lat="45.18163" lon="4.56738">
        <ele>952.32</ele>
        <time>2017-07-16T11:40:24Z</time>
      </trkpt>
      <trkpt lat="45.18163" lon="4.56738">
        <ele>951.36</ele>
        <time>2017-07-16T11:40:40Z</time>
      </trkpt>
      <trkpt lat="45.18163" lon="4.56738">
        <ele>950.88</ele>
        <time>2017-07-16T11:41:00Z</time>
      </trkpt>
      <trkpt lat="45.18162" lon="4.56737">
        <ele>949.44</ele>
        <time>2017-07-16T11:41:17Z</time>
      </trkpt>
      <trkpt lat="45.18162" lon="4.56736">
        <ele>948.48</ele>
        <time>2017-07-16T11:41:32Z</time>
      </trkpt>
      <trkpt lat="45.18161" lon="4.56736">
        <ele>947.04</ele>
        <time>2017-07-16T11:41:46Z</time>
      </trkpt>
      <trkpt lat="45.1816" lon="4.56735">
        <ele>946.07</ele>
        <time>2017-07-16T11:42:07Z</time>
      </trkpt>
      <trkpt lat="45.18161" lon="4.56735">
        <ele>946.56</ele>
        <time>2017-07-16T11:42:23Z</time>
      </trkpt>
      <trkpt lat="45.18161" lon="4.56735">
        <ele>945.59</ele>
        <time>2017-07-16T11:42:42Z</time>
      </trkpt>
      <trkpt lat="45.18161" lon="4.56734">
        <ele>944.63</ele>
        <time>2017-07-16T11:43:00Z</time>
      </trkpt>
      <trkpt lat="45.18161" lon="4.56731">
        <ele>944.15</ele>
        <time>2017-07-16T11:43:22Z</time>
      </trkpt>
      <trkpt lat="45.18161" lon="4.56732">
        <ele>943.67</ele>
        <time>2017-07-16T11:43:40Z</time>
      </trkpt>
      <trkpt lat="45.18162" lon="4.56734">
        <ele>943.19</ele>
        <time>2017-07-16T11:43:56Z</time>
      </trkpt>
      <trkpt lat="45.18164" lon="4.56735">
        <ele>942.71</ele>
        <time>2017-07-16T11:44:22Z</time>
      </trkpt>
      <trkpt lat="45.18164" lon="4.56736">
        <ele>942.71</ele>
        <time>2017-07-16T11:44:45Z</time>
      </trkpt>
      <trkpt lat="45.18164" lon="4.56737">
        <ele>942.71</ele>
        <time>2017-07-16T11:45:03Z</time>
      </trkpt>
      <trkpt lat="45.18164" lon="4.56736">
        <ele>941.75</ele>
        <time>2017-07-16T11:45:21Z</time>
      </trkpt>
      <trkpt lat="45.18164" lon="4.56736">
        <ele>941.75</ele>
        <time>2017-07-16T11:45:33Z</time>
      </trkpt>
      <trkpt lat="45.18163" lon="4.56735">
        <ele>941.75</ele>
        <time>2017-07-16T11:45:52Z</time>
      </trkpt>
      <trkpt lat="45.18162" lon="4.56735">
        <ele>941.27</ele>
        <time>2017-07-16T11:46:13Z</time>
      </trkpt>
      <trkpt lat="45.18162" lon="4.56735">
        <ele>940.79</ele>
        <time>2017-07-16T11:46:32Z</time>
      </trkpt>
      <trkpt lat="45.18162" lon="4.56736">
        <ele>939.83</ele>
        <time>2017-07-16T11:46:55Z</time>
      </trkpt>
      <trkpt lat="45.18162" lon="4.56736">
        <ele>939.83</ele>
        <time>2017-07-16T11:47:13Z</time>
      </trkpt>
      <trkpt lat="45.18164" lon="4.56737">
        <ele>940.31</ele>
        <time>2017-07-16T11:47:30Z</time>
      </trkpt>
      <trkpt lat="45.18169" lon="4.56738">
        <ele>941.75</ele>
        <time>2017-07-16T11:47:42Z</time>
      </trkpt>
      <trkpt lat="45.18179" lon="4.56747">
        <ele>942.23</ele>
        <time>2017-07-16T11:47:55Z</time>
      </trkpt>
      <trkpt lat="45.18184" lon="4.56768">
        <ele>946.07</ele>
        <time>2017-07-16T11:48:11Z</time>
      </trkpt>
      <trkpt lat="45.18188" lon="4.56792">
        <ele>951.36</ele>
        <time>2017-07-16T11:48:27Z</time>
      </trkpt>
      <trkpt lat="45.18192" lon="4.56808">
        <ele>957.13</ele>
        <time>2017-07-16T11:48:41Z</time>
      </trkpt>
      <trkpt lat="45.18194" lon="4.56823">
        <ele>961.94</ele>
        <time>2017-07-16T11:48:51Z</time>
      </trkpt>
      <trkpt lat="45.18194" lon="4.56839">
        <ele>966.26</ele>
        <time>2017-07-16T11:49:03Z</time>
      </trkpt>
      <trkpt lat="45.18199" lon="4.56866">
        <ele>967.22</ele>
        <time>2017-07-16T11:49:18Z</time>
      </trkpt>
      <trkpt lat="45.18204" lon="4.56889">
        <ele>966.74</ele>
        <time>2017-07-16T11:49:33Z</time>
      </trkpt>
      <trkpt lat="45.18207" lon="4.56898">
        <ele>964.34</ele>
        <time>2017-07-16T11:49:43Z</time>
      </trkpt>
      <trkpt lat="45.18215" lon="4.56923">
        <ele>962.9</ele>
        <time>2017-07-16T11:49:58Z</time>
      </trkpt>
      <trkpt lat="45.18223" lon="4.56946">
        <ele>953.28</ele>
        <time>2017-07-16T11:50:13Z</time>
      </trkpt>
      <trkpt lat="45.18222" lon="4.56944">
        <ele>950.88</ele>
        <time>2017-07-16T11:50:22Z</time>
      </trkpt>
      <trkpt lat="45.18225" lon="4.56956">
        <ele>958.57</ele>
        <time>2017-07-16T11:50:38Z</time>
      </trkpt>
      <trkpt lat="45.18226" lon="4.56958">
        <ele>959.53</ele>
        <time>2017-07-16T11:50:45Z</time>
      </trkpt>
      <trkpt lat="45.18234" lon="4.56983">
        <ele>963.38</ele>
        <time>2017-07-16T11:50:59Z</time>
      </trkpt>
      <trkpt lat="45.18243" lon="4.57003">
        <ele>954.25</ele>
        <time>2017-07-16T11:51:13Z</time>
      </trkpt>
      <trkpt lat="45.1825" lon="4.57029">
        <ele>950.88</ele>
        <time>2017-07-16T11:51:28Z</time>
      </trkpt>
      <trkpt lat="45.18255" lon="4.57051">
        <ele>948.48</ele>
        <time>2017-07-16T11:51:43Z</time>
      </trkpt>
      <trkpt lat="45.18257" lon="4.57067">
        <ele>950.4</ele>
        <time>2017-07-16T11:51:55Z</time>
      </trkpt>
      <trkpt lat="45.1826" lon="4.5709">
        <ele>948.48</ele>
        <time>2017-07-16T11:52:08Z</time>
      </trkpt>
      <trkpt lat="45.18263" lon="4.57106">
        <ele>947.04</ele>
        <time>2017-07-16T11:52:21Z</time>
      </trkpt>
      <trkpt lat="45.18264" lon="4.57124">
        <ele>946.56</ele>
        <time>2017-07-16T11:52:35Z</time>
      </trkpt>
      <trkpt lat="45.18265" lon="4.57147">
        <ele>944.63</ele>
        <time>2017-07-16T11:52:48Z</time>
      </trkpt>
      <trkpt lat="45.18266" lon="4.5717">
        <ele>943.19</ele>
        <time>2017-07-16T11:53:01Z</time>
      </trkpt>
      <trkpt lat="45.18264" lon="4.57193">
        <ele>941.27</ele>
        <time>2017-07-16T11:53:15Z</time>
      </trkpt>
      <trkpt lat="45.18265" lon="4.57218">
        <ele>936.46</ele>
        <time>2017-07-16T11:53:29Z</time>
      </trkpt>
      <trkpt lat="45.18264" lon="4.57236">
        <ele>936.94</ele>
        <time>2017-07-16T11:53:41Z</time>
      </trkpt>
      <trkpt lat="45.18259" lon="4.57249">
        <ele>939.35</ele>
        <time>2017-07-16T11:53:55Z</time>
      </trkpt>
      <trkpt lat="45.18254" lon="4.57263">
        <ele>938.86</ele>
        <time>2017-07-16T11:54:07Z</time>
      </trkpt>
      <trkpt lat="45.18249" lon="4.57281">
        <ele>939.83</ele>
        <time>2017-07-16T11:54:20Z</time>
      </trkpt>
      <trkpt lat="45.18242" lon="4.57301">
        <ele>930.21</ele>
        <time>2017-07-16T11:54:34Z</time>
      </trkpt>
      <trkpt lat="45.18242" lon="4.57304">
        <ele>925.41</ele>
        <time>2017-07-16T11:54:45Z</time>
      </trkpt>
      <trkpt lat="45.18242" lon="4.57301">
        <ele>922.52</ele>
        <time>2017-07-16T11:55:01Z</time>
      </trkpt>
      <trkpt lat="45.18243" lon="4.573">
        <ele>918.68</ele>
        <time>2017-07-16T11:55:25Z</time>
      </trkpt>
      <trkpt lat="45.18243" lon="4.57298">
        <ele>914.35</ele>
        <time>2017-07-16T11:55:44Z</time>
      </trkpt>
      <trkpt lat="45.18243" lon="4.57296">
        <ele>914.35</ele>
        <time>2017-07-16T11:55:46Z</time>
      </trkpt>
      <trkpt lat="45.18243" lon="4.57285">
        <ele>912.91</ele>
        <time>2017-07-16T11:55:56Z</time>
      </trkpt>
      <trkpt lat="45.18244" lon="4.57281">
        <ele>912.91</ele>
        <time>2017-07-16T11:55:59Z</time>
      </trkpt>
      <trkpt lat="45.18242" lon="4.57262">
        <ele>918.2</ele>
        <time>2017-07-16T11:56:14Z</time>
      </trkpt>
      <trkpt lat="45.18242" lon="4.57252">
        <ele>920.6</ele>
        <time>2017-07-16T11:56:22Z</time>
      </trkpt>
      <trkpt lat="45.18241" lon="4.57232">
        <ele>923.96</ele>
        <time>2017-07-16T11:56:36Z</time>
      </trkpt>
      <trkpt lat="45.18239" lon="4.57214">
        <ele>932.14</ele>
        <time>2017-07-16T11:56:50Z</time>
      </trkpt>
      <trkpt lat="45.18233" lon="4.57199">
        <ele>935.02</ele>
        <time>2017-07-16T11:57:03Z</time>
      </trkpt>
      <trkpt lat="45.18224" lon="4.57184">
        <ele>938.38</ele>
        <time>2017-07-16T11:57:17Z</time>
      </trkpt>
      <trkpt lat="45.18217" lon="4.57162">
        <ele>934.06</ele>
        <time>2017-07-16T11:57:30Z</time>
      </trkpt>
      <trkpt lat="45.18208" lon="4.57144">
        <ele>930.21</ele>
        <time>2017-07-16T11:57:42Z</time>
      </trkpt>
      <trkpt lat="45.18195" lon="4.57123">
        <ele>935.02</ele>
        <time>2017-07-16T11:58:00Z</time>
      </trkpt>
      <trkpt lat="45.18184" lon="4.57096">
        <ele>934.06</ele>
        <time>2017-07-16T11:58:16Z</time>
      </trkpt>
      <trkpt lat="45.18173" lon="4.57078">
        <ele>935.02</ele>
        <time>2017-07-16T11:58:30Z</time>
      </trkpt>
      <trkpt lat="45.18164" lon="4.57062">
        <ele>935.02</ele>
        <time>2017-07-16T11:58:43Z</time>
      </trkpt>
      <trkpt lat="45.18157" lon="4.5705">
        <ele>936.94</ele>
        <time>2017-07-16T11:58:54Z</time>
      </trkpt>
      <trkpt lat="45.18146" lon="4.57035">
        <ele>936.94</ele>
        <time>2017-07-16T11:59:05Z</time>
      </trkpt>
      <trkpt lat="45.18141" lon="4.57016">
        <ele>936.94</ele>
        <time>2017-07-16T11:59:13Z</time>
      </trkpt>
      <trkpt lat="45.18133" lon="4.5699">
        <ele>930.21</ele>
        <time>2017-07-16T11:59:23Z</time>
      </trkpt>
      <trkpt lat="45.18117" lon="4.56961">
        <ele>928.77</ele>
        <time>2017-07-16T11:59:40Z</time>
      </trkpt>
      <trkpt lat="45.18103" lon="4.56929">
        <ele>921.08</ele>
        <time>2017-07-16T11:59:57Z</time>
      </trkpt>
      <trkpt lat="45.18086" lon="4.5692">
        <ele>916.27</ele>
        <time>2017-07-16T12:00:12Z</time>
      </trkpt>
      <trkpt lat="45.18074" lon="4.56927">
        <ele>917.24</ele>
        <time>2017-07-16T12:00:26Z</time>
      </trkpt>
      <trkpt lat="45.18061" lon="4.56936">
        <ele>923.48</ele>
        <time>2017-07-16T12:00:40Z</time>
      </trkpt>
      <trkpt lat="45.18038" lon="4.56949">
        <ele>929.25</ele>
        <time>2017-07-16T12:00:56Z</time>
      </trkpt>
      <trkpt lat="45.18029" lon="4.56952">
        <ele>929.25</ele>
        <time>2017-07-16T12:01:01Z</time>
      </trkpt>
      <trkpt lat="45.18016" lon="4.56952">
        <ele>927.81</ele>
        <time>2017-07-16T12:01:08Z</time>
      </trkpt>
      <trkpt lat="45.18003" lon="4.56946">
        <ele>924.93</ele>
        <time>2017-07-16T12:01:21Z</time>
      </trkpt>
      <trkpt lat="45.17987" lon="4.56938">
        <ele>910.51</ele>
        <time>2017-07-16T12:01:37Z</time>
      </trkpt>
      <trkpt lat="45.17982" lon="4.56933">
        <ele>910.99</ele>
        <time>2017-07-16T12:01:53Z</time>
      </trkpt>
      <trkpt lat="45.17977" lon="4.56928">
        <ele>913.39</ele>
        <time>2017-07-16T12:02:08Z</time>
      </trkpt>
      <trkpt lat="45.1797" lon="4.56918">
        <ele>909.54</ele>
        <time>2017-07-16T12:02:23Z</time>
      </trkpt>
      <trkpt lat="45.17969" lon="4.56913">
        <ele>910.03</ele>
        <time>2017-07-16T12:02:36Z</time>
      </trkpt>
      <trkpt lat="45.17965" lon="4.56899">
        <ele>918.2</ele>
        <time>2017-07-16T12:02:49Z</time>
      </trkpt>
      <trkpt lat="45.17961" lon="4.56894">
        <ele>921.08</ele>
        <time>2017-07-16T12:02:55Z</time>
      </trkpt>
      <trkpt lat="45.17955" lon="4.56877">
        <ele>925.41</ele>
        <time>2017-07-16T12:03:08Z</time>
      </trkpt>
      <trkpt lat="45.17948" lon="4.56862">
        <ele>928.29</ele>
        <time>2017-07-16T12:03:20Z</time>
      </trkpt>
      <trkpt lat="45.17944" lon="4.56855">
        <ele>929.25</ele>
        <time>2017-07-16T12:03:27Z</time>
      </trkpt>
      <trkpt lat="45.17933" lon="4.56846">
        <ele>930.69</ele>
        <time>2017-07-16T12:03:41Z</time>
      </trkpt>
      <trkpt lat="45.1792" lon="4.56841">
        <ele>935.98</ele>
        <time>2017-07-16T12:03:55Z</time>
      </trkpt>
      <trkpt lat="45.17918" lon="4.56844">
        <ele>935.98</ele>
        <time>2017-07-16T12:04:04Z</time>
      </trkpt>
      <trkpt lat="45.17902" lon="4.56857">
        <ele>924.93</ele>
        <time>2017-07-16T12:04:21Z</time>
      </trkpt>
      <trkpt lat="45.17902" lon="4.56858">
        <ele>924.45</ele>
        <time>2017-07-16T12:04:23Z</time>
      </trkpt>
      <trkpt lat="45.17903" lon="4.56865">
        <ele>923.48</ele>
        <time>2017-07-16T12:04:29Z</time>
      </trkpt>
      <trkpt lat="45.17901" lon="4.56885">
        <ele>924.45</ele>
        <time>2017-07-16T12:04:42Z</time>
      </trkpt>
      <trkpt lat="45.17898" lon="4.56891">
        <ele>925.89</ele>
        <time>2017-07-16T12:04:47Z</time>
      </trkpt>
      <trkpt lat="45.17899" lon="4.56899">
        <ele>925.41</ele>
        <time>2017-07-16T12:04:52Z</time>
      </trkpt>
      <trkpt lat="45.17897" lon="4.56904">
        <ele>925.89</ele>
        <time>2017-07-16T12:04:55Z</time>
      </trkpt>
      <trkpt lat="45.17897" lon="4.5693">
        <ele>922.52</ele>
        <time>2017-07-16T12:05:09Z</time>
      </trkpt>
      <trkpt lat="45.17895" lon="4.56947">
        <ele>924.93</ele>
        <time>2017-07-16T12:05:22Z</time>
      </trkpt>
      <trkpt lat="45.17894" lon="4.56966">
        <ele>925.89</ele>
        <time>2017-07-16T12:05:36Z</time>
      </trkpt>
      <trkpt lat="45.17894" lon="4.56988">
        <ele>929.25</ele>
        <time>2017-07-16T12:05:49Z</time>
      </trkpt>
      <trkpt lat="45.1789" lon="4.57011">
        <ele>928.29</ele>
        <time>2017-07-16T12:06:01Z</time>
      </trkpt>
      <trkpt lat="45.17885" lon="4.5702">
        <ele>926.85</ele>
        <time>2017-07-16T12:06:18Z</time>
      </trkpt>
      <trkpt lat="45.17883" lon="4.57035">
        <ele>928.77</ele>
        <time>2017-07-16T12:06:29Z</time>
      </trkpt>
      <trkpt lat="45.17882" lon="4.57053">
        <ele>931.65</ele>
        <time>2017-07-16T12:06:45Z</time>
      </trkpt>
      <trkpt lat="45.17874" lon="4.57063">
        <ele>928.29</ele>
        <time>2017-07-16T12:07:03Z</time>
      </trkpt>
      <trkpt lat="45.17869" lon="4.57069">
        <ele>924.45</ele>
        <time>2017-07-16T12:07:17Z</time>
      </trkpt>
      <trkpt lat="45.17867" lon="4.57068">
        <ele>921.56</ele>
        <time>2017-07-16T12:07:38Z</time>
      </trkpt>
      <trkpt lat="45.17866" lon="4.5707">
        <ele>919.16</ele>
        <time>2017-07-16T12:07:53Z</time>
      </trkpt>
      <trkpt lat="45.17864" lon="4.57072">
        <ele>917.24</ele>
        <time>2017-07-16T12:08:09Z</time>
      </trkpt>
      <trkpt lat="45.17863" lon="4.57073">
        <ele>915.31</ele>
        <time>2017-07-16T12:08:26Z</time>
      </trkpt>
      <trkpt lat="45.17863" lon="4.57071">
        <ele>911.95</ele>
        <time>2017-07-16T12:08:43Z</time>
      </trkpt>
      <trkpt lat="45.17863" lon="4.57073">
        <ele>910.51</ele>
        <time>2017-07-16T12:09:01Z</time>
      </trkpt>
      <trkpt lat="45.17855" lon="4.57082">
        <ele>914.35</ele>
        <time>2017-07-16T12:09:16Z</time>
      </trkpt>
      <trkpt lat="45.1785" lon="4.57096">
        <ele>919.16</ele>
        <time>2017-07-16T12:09:29Z</time>
      </trkpt>
      <trkpt lat="45.17849" lon="4.57097">
        <ele>919.16</ele>
        <time>2017-07-16T12:09:30Z</time>
      </trkpt>
      <trkpt lat="45.1783" lon="4.57116">
        <ele>918.68</ele>
        <time>2017-07-16T12:09:49Z</time>
      </trkpt>
      <trkpt lat="45.17813" lon="4.57135">
        <ele>921.08</ele>
        <time>2017-07-16T12:10:05Z</time>
      </trkpt>
      <trkpt lat="45.1781" lon="4.57137">
        <ele>922.04</ele>
        <time>2017-07-16T12:10:07Z</time>
      </trkpt>
      <trkpt lat="45.17791" lon="4.57153">
        <ele>917.72</ele>
        <time>2017-07-16T12:10:22Z</time>
      </trkpt>
      <trkpt lat="45.17772" lon="4.57162">
        <ele>906.18</ele>
        <time>2017-07-16T12:10:33Z</time>
      </trkpt>
      <trkpt lat="45.17752" lon="4.5718">
        <ele>901.85</ele>
        <time>2017-07-16T12:10:51Z</time>
      </trkpt>
      <trkpt lat="45.17729" lon="4.57197">
        <ele>893.68</ele>
        <time>2017-07-16T12:11:09Z</time>
      </trkpt>
      <trkpt lat="45.17718" lon="4.57209">
        <ele>894.16</ele>
        <time>2017-07-16T12:11:22Z</time>
      </trkpt>
      <trkpt lat="45.17707" lon="4.57221">
        <ele>899.93</ele>
        <time>2017-07-16T12:11:37Z</time>
      </trkpt>
      <trkpt lat="45.17695" lon="4.57233">
        <ele>904.74</ele>
        <time>2017-07-16T12:11:52Z</time>
      </trkpt>
      <trkpt lat="45.17685" lon="4.57251">
        <ele>909.54</ele>
        <time>2017-07-16T12:12:08Z</time>
      </trkpt>
      <trkpt lat="45.17682" lon="4.57257">
        <ele>910.03</ele>
        <time>2017-07-16T12:12:12Z</time>
      </trkpt>
      <trkpt lat="45.17666" lon="4.57273">
        <ele>911.47</ele>
        <time>2017-07-16T12:12:28Z</time>
      </trkpt>
      <trkpt lat="45.17651" lon="4.57287">
        <ele>915.79</ele>
        <time>2017-07-16T12:12:42Z</time>
      </trkpt>
      <trkpt lat="45.1764" lon="4.57308">
        <ele>922.52</ele>
        <time>2017-07-16T12:12:56Z</time>
      </trkpt>
      <trkpt lat="45.17639" lon="4.57312">
        <ele>923.96</ele>
        <time>2017-07-16T12:12:58Z</time>
      </trkpt>
      <trkpt lat="45.17628" lon="4.57337">
        <ele>931.65</ele>
        <time>2017-07-16T12:13:12Z</time>
      </trkpt>
      <trkpt lat="45.17615" lon="4.57361">
        <ele>928.77</ele>
        <time>2017-07-16T12:13:31Z</time>
      </trkpt>
      <trkpt lat="45.17601" lon="4.57382">
        <ele>931.17</ele>
        <time>2017-07-16T12:13:46Z</time>
      </trkpt>
      <trkpt lat="45.1759" lon="4.574">
        <ele>934.06</ele>
        <time>2017-07-16T12:14:00Z</time>
      </trkpt>
      <trkpt lat="45.17579" lon="4.57414">
        <ele>932.14</ele>
        <time>2017-07-16T12:14:13Z</time>
      </trkpt>
      <trkpt lat="45.17565" lon="4.57437">
        <ele>934.06</ele>
        <time>2017-07-16T12:14:28Z</time>
      </trkpt>
      <trkpt lat="45.17544" lon="4.57458">
        <ele>923.48</ele>
        <time>2017-07-16T12:14:44Z</time>
      </trkpt>
      <trkpt lat="45.17534" lon="4.57465">
        <ele>920.12</ele>
        <time>2017-07-16T12:14:50Z</time>
      </trkpt>
      <trkpt lat="45.17514" lon="4.57475">
        <ele>909.54</ele>
        <time>2017-07-16T12:15:05Z</time>
      </trkpt>
      <trkpt lat="45.1749" lon="4.57504">
        <ele>906.66</ele>
        <time>2017-07-16T12:15:24Z</time>
      </trkpt>
      <trkpt lat="45.17466" lon="4.57514">
        <ele>904.74</ele>
        <time>2017-07-16T12:15:39Z</time>
      </trkpt>
      <trkpt lat="45.17445" lon="4.57513">
        <ele>904.74</ele>
        <time>2017-07-16T12:15:55Z</time>
      </trkpt>
      <trkpt lat="45.17427" lon="4.5751">
        <ele>905.22</ele>
        <time>2017-07-16T12:16:07Z</time>
      </trkpt>
      <trkpt lat="45.17423" lon="4.57511">
        <ele>907.62</ele>
        <time>2017-07-16T12:16:11Z</time>
      </trkpt>
      <trkpt lat="45.17406" lon="4.57518">
        <ele>918.2</ele>
        <time>2017-07-16T12:16:28Z</time>
      </trkpt>
      <trkpt lat="45.17395" lon="4.57527">
        <ele>931.17</ele>
        <time>2017-07-16T12:16:42Z</time>
      </trkpt>
      <trkpt lat="45.17384" lon="4.57543">
        <ele>943.19</ele>
        <time>2017-07-16T12:16:57Z</time>
      </trkpt>
      <trkpt lat="45.17377" lon="4.57561">
        <ele>953.28</ele>
        <time>2017-07-16T12:17:09Z</time>
      </trkpt>
      <trkpt lat="45.17377" lon="4.57563">
        <ele>954.73</ele>
        <time>2017-07-16T12:17:11Z</time>
      </trkpt>
      <trkpt lat="45.17374" lon="4.57582">
        <ele>957.13</ele>
        <time>2017-07-16T12:17:22Z</time>
      </trkpt>
      <trkpt lat="45.17362" lon="4.57605">
        <ele>956.65</ele>
        <time>2017-07-16T12:17:36Z</time>
      </trkpt>
      <trkpt lat="45.17352" lon="4.57624">
        <ele>958.57</ele>
        <time>2017-07-16T12:17:52Z</time>
      </trkpt>
      <trkpt lat="45.17339" lon="4.57641">
        <ele>960.49</ele>
        <time>2017-07-16T12:18:05Z</time>
      </trkpt>
      <trkpt lat="45.17319" lon="4.5766">
        <ele>958.09</ele>
        <time>2017-07-16T12:18:22Z</time>
      </trkpt>
      <trkpt lat="45.17305" lon="4.57667">
        <ele>954.73</ele>
        <time>2017-07-16T12:18:30Z</time>
      </trkpt>
      <trkpt lat="45.17276" lon="4.57668">
        <ele>945.11</ele>
        <time>2017-07-16T12:18:44Z</time>
      </trkpt>
      <trkpt lat="45.1725" lon="4.57663">
        <ele>934.06</ele>
        <time>2017-07-16T12:18:59Z</time>
      </trkpt>
      <trkpt lat="45.17229" lon="4.57652">
        <ele>927.81</ele>
        <time>2017-07-16T12:19:14Z</time>
      </trkpt>
      <trkpt lat="45.1722" lon="4.57647">
        <ele>926.37</ele>
        <time>2017-07-16T12:19:22Z</time>
      </trkpt>
      <trkpt lat="45.172" lon="4.5764">
        <ele>924.93</ele>
        <time>2017-07-16T12:19:37Z</time>
      </trkpt>
      <trkpt lat="45.1718" lon="4.57633">
        <ele>926.85</ele>
        <time>2017-07-16T12:19:52Z</time>
      </trkpt>
      <trkpt lat="45.17157" lon="4.57615">
        <ele>924.45</ele>
        <time>2017-07-16T12:20:09Z</time>
      </trkpt>
      <trkpt lat="45.17151" lon="4.57613">
        <ele>924.93</ele>
        <time>2017-07-16T12:20:14Z</time>
      </trkpt>
      <trkpt lat="45.17144" lon="4.57608">
        <ele>924.45</ele>
        <time>2017-07-16T12:20:22Z</time>
      </trkpt>
      <trkpt lat="45.17126" lon="4.57601">
        <ele>924.93</ele>
        <time>2017-07-16T12:20:36Z</time>
      </trkpt>
      <trkpt lat="45.17109" lon="4.57598">
        <ele>925.41</ele>
        <time>2017-07-16T12:20:48Z</time>
      </trkpt>
      <trkpt lat="45.17088" lon="4.57593">
        <ele>924.93</ele>
        <time>2017-07-16T12:21:03Z</time>
      </trkpt>
      <trkpt lat="45.17078" lon="4.57591">
        <ele>924.45</ele>
        <time>2017-07-16T12:21:09Z</time>
      </trkpt>
      <trkpt lat="45.17062" lon="4.57597">
        <ele>927.81</ele>
        <time>2017-07-16T12:21:23Z</time>
      </trkpt>
      <trkpt lat="45.17056" lon="4.57607">
        <ele>935.02</ele>
        <time>2017-07-16T12:21:34Z</time>
      </trkpt>
      <trkpt lat="45.17051" lon="4.57628">
        <ele>943.67</ele>
        <time>2017-07-16T12:21:49Z</time>
      </trkpt>
      <trkpt lat="45.17043" lon="4.5765">
        <ele>948.96</ele>
        <time>2017-07-16T12:22:04Z</time>
      </trkpt>
      <trkpt lat="45.17041" lon="4.57653">
        <ele>949.92</ele>
        <time>2017-07-16T12:22:06Z</time>
      </trkpt>
      <trkpt lat="45.17033" lon="4.57673">
        <ele>955.69</ele>
        <time>2017-07-16T12:22:20Z</time>
      </trkpt>
      <trkpt lat="45.17016" lon="4.57693">
        <ele>951.36</ele>
        <time>2017-07-16T12:22:36Z</time>
      </trkpt>
      <trkpt lat="45.16997" lon="4.57709">
        <ele>943.67</ele>
        <time>2017-07-16T12:22:51Z</time>
      </trkpt>
      <trkpt lat="45.16972" lon="4.57723">
        <ele>933.1</ele>
        <time>2017-07-16T12:23:06Z</time>
      </trkpt>
      <trkpt lat="45.16953" lon="4.57723">
        <ele>925.41</ele>
        <time>2017-07-16T12:23:20Z</time>
      </trkpt>
      <trkpt lat="45.16934" lon="4.57708">
        <ele>919.64</ele>
        <time>2017-07-16T12:23:35Z</time>
      </trkpt>
      <trkpt lat="45.16917" lon="4.57691">
        <ele>909.06</ele>
        <time>2017-07-16T12:23:49Z</time>
      </trkpt>
      <trkpt lat="45.16902" lon="4.57676">
        <ele>905.22</ele>
        <time>2017-07-16T12:24:02Z</time>
      </trkpt>
      <trkpt lat="45.16884" lon="4.57662">
        <ele>904.74</ele>
        <time>2017-07-16T12:24:15Z</time>
      </trkpt>
      <trkpt lat="45.16874" lon="4.57653">
        <ele>906.66</ele>
        <time>2017-07-16T12:24:24Z</time>
      </trkpt>
      <trkpt lat="45.16851" lon="4.57637">
        <ele>911.47</ele>
        <time>2017-07-16T12:24:41Z</time>
      </trkpt>
      <trkpt lat="45.16833" lon="4.57622">
        <ele>914.83</ele>
        <time>2017-07-16T12:24:56Z</time>
      </trkpt>
      <trkpt lat="45.16824" lon="4.57615">
        <ele>916.27</ele>
        <time>2017-07-16T12:25:03Z</time>
      </trkpt>
      <trkpt lat="45.16804" lon="4.57594">
        <ele>916.75</ele>
        <time>2017-07-16T12:25:20Z</time>
      </trkpt>
      <trkpt lat="45.16786" lon="4.57578">
        <ele>915.79</ele>
        <time>2017-07-16T12:25:36Z</time>
      </trkpt>
      <trkpt lat="45.16781" lon="4.57574">
        <ele>915.31</ele>
        <time>2017-07-16T12:25:40Z</time>
      </trkpt>
      <trkpt lat="45.16777" lon="4.57569">
        <ele>914.83</ele>
        <time>2017-07-16T12:25:43Z</time>
      </trkpt>
      <trkpt lat="45.16758" lon="4.57538">
        <ele>907.62</ele>
        <time>2017-07-16T12:26:01Z</time>
      </trkpt>
      <trkpt lat="45.16745" lon="4.57514">
        <ele>899.93</ele>
        <time>2017-07-16T12:26:15Z</time>
      </trkpt>
      <trkpt lat="45.1673" lon="4.57487">
        <ele>896.57</ele>
        <time>2017-07-16T12:26:33Z</time>
      </trkpt>
      <trkpt lat="45.16719" lon="4.57467">
        <ele>893.2</ele>
        <time>2017-07-16T12:26:48Z</time>
      </trkpt>
      <trkpt lat="45.16716" lon="4.57444">
        <ele>888.4</ele>
        <time>2017-07-16T12:27:01Z</time>
      </trkpt>
      <trkpt lat="45.16715" lon="4.57405">
        <ele>880.22</ele>
        <time>2017-07-16T12:27:21Z</time>
      </trkpt>
      <trkpt lat="45.16714" lon="4.57375">
        <ele>875.9</ele>
        <time>2017-07-16T12:27:37Z</time>
      </trkpt>
      <trkpt lat="45.16716" lon="4.57354">
        <ele>871.09</ele>
        <time>2017-07-16T12:27:48Z</time>
      </trkpt>
      <trkpt lat="45.16715" lon="4.5734">
        <ele>870.13</ele>
        <time>2017-07-16T12:27:57Z</time>
      </trkpt>
      <trkpt lat="45.16715" lon="4.57321">
        <ele>868.69</ele>
        <time>2017-07-16T12:28:09Z</time>
      </trkpt>
      <trkpt lat="45.16716" lon="4.57286">
        <ele>866.29</ele>
        <time>2017-07-16T12:28:28Z</time>
      </trkpt>
      <trkpt lat="45.16719" lon="4.57259">
        <ele>865.32</ele>
        <time>2017-07-16T12:28:44Z</time>
      </trkpt>
      <trkpt lat="45.16726" lon="4.57232">
        <ele>865.8</ele>
        <time>2017-07-16T12:29:00Z</time>
      </trkpt>
      <trkpt lat="45.16735" lon="4.57199">
        <ele>860.52</ele>
        <time>2017-07-16T12:29:17Z</time>
      </trkpt>
      <trkpt lat="45.16749" lon="4.57165">
        <ele>860.04</ele>
        <time>2017-07-16T12:29:38Z</time>
      </trkpt>
      <trkpt lat="45.16755" lon="4.57139">
        <ele>862.44</ele>
        <time>2017-07-16T12:29:55Z</time>
      </trkpt>
      <trkpt lat="45.16758" lon="4.57133">
        <ele>863.4</ele>
        <time>2017-07-16T12:29:59Z</time>
      </trkpt>
      <trkpt lat="45.16764" lon="4.57109">
        <ele>862.92</ele>
        <time>2017-07-16T12:30:12Z</time>
      </trkpt>
      <trkpt lat="45.16769" lon="4.57084">
        <ele>859.08</ele>
        <time>2017-07-16T12:30:26Z</time>
      </trkpt>
      <trkpt lat="45.16777" lon="4.57051">
        <ele>855.71</ele>
        <time>2017-07-16T12:30:42Z</time>
      </trkpt>
      <trkpt lat="45.1678" lon="4.57024">
        <ele>856.19</ele>
        <time>2017-07-16T12:30:56Z</time>
      </trkpt>
      <trkpt lat="45.16793" lon="4.56984">
        <ele>855.23</ele>
        <time>2017-07-16T12:31:16Z</time>
      </trkpt>
      <trkpt lat="45.1681" lon="4.56953">
        <ele>853.79</ele>
        <time>2017-07-16T12:31:34Z</time>
      </trkpt>
      <trkpt lat="45.16833" lon="4.56929">
        <ele>854.27</ele>
        <time>2017-07-16T12:31:54Z</time>
      </trkpt>
      <trkpt lat="45.16855" lon="4.56915">
        <ele>855.71</ele>
        <time>2017-07-16T12:32:11Z</time>
      </trkpt>
      <trkpt lat="45.16883" lon="4.56911">
        <ele>851.38</ele>
        <time>2017-07-16T12:32:29Z</time>
      </trkpt>
      <trkpt lat="45.16895" lon="4.56913">
        <ele>849.46</ele>
        <time>2017-07-16T12:32:37Z</time>
      </trkpt>
      <trkpt lat="45.16909" lon="4.56912">
        <ele>848.5</ele>
        <time>2017-07-16T12:32:47Z</time>
      </trkpt>
      <trkpt lat="45.16915" lon="4.56897">
        <ele>848.5</ele>
        <time>2017-07-16T12:33:03Z</time>
      </trkpt>
      <trkpt lat="45.16918" lon="4.56889">
        <ele>846.58</ele>
        <time>2017-07-16T12:33:18Z</time>
      </trkpt>
      <trkpt lat="45.16919" lon="4.56882">
        <ele>839.85</ele>
        <time>2017-07-16T12:33:33Z</time>
      </trkpt>
      <trkpt lat="45.1692" lon="4.56883">
        <ele>838.41</ele>
        <time>2017-07-16T12:33:52Z</time>
      </trkpt>
      <trkpt lat="45.16922" lon="4.56881">
        <ele>836.48</ele>
        <time>2017-07-16T12:34:09Z</time>
      </trkpt>
      <trkpt lat="45.16924" lon="4.56878">
        <ele>833.6</ele>
        <time>2017-07-16T12:34:29Z</time>
      </trkpt>
      <trkpt lat="45.16924" lon="4.56877">
        <ele>831.2</ele>
        <time>2017-07-16T12:34:48Z</time>
      </trkpt>
      <trkpt lat="45.16924" lon="4.56876">
        <ele>830.72</ele>
        <time>2017-07-16T12:35:07Z</time>
      </trkpt>
      <trkpt lat="45.16925" lon="4.56875">
        <ele>828.79</ele>
        <time>2017-07-16T12:35:27Z</time>
      </trkpt>
      <trkpt lat="45.16925" lon="4.56875">
        <ele>828.79</ele>
        <time>2017-07-16T12:35:39Z</time>
      </trkpt>
      <trkpt lat="45.16923" lon="4.56875">
        <ele>828.31</ele>
        <time>2017-07-16T12:35:57Z</time>
      </trkpt>
      <trkpt lat="45.16924" lon="4.56874">
        <ele>828.31</ele>
        <time>2017-07-16T12:36:16Z</time>
      </trkpt>
      <trkpt lat="45.16925" lon="4.56875">
        <ele>828.31</ele>
        <time>2017-07-16T12:36:30Z</time>
      </trkpt>
      <trkpt lat="45.16921" lon="4.56865">
        <ele>831.68</ele>
        <time>2017-07-16T12:36:46Z</time>
      </trkpt>
      <trkpt lat="45.16913" lon="4.5684">
        <ele>836.96</ele>
        <time>2017-07-16T12:37:02Z</time>
      </trkpt>
      <trkpt lat="45.16903" lon="4.56816">
        <ele>839.85</ele>
        <time>2017-07-16T12:37:19Z</time>
      </trkpt>
      <trkpt lat="45.169" lon="4.56809">
        <ele>839.85</ele>
        <time>2017-07-16T12:37:23Z</time>
      </trkpt>
      <trkpt lat="45.16889" lon="4.5678">
        <ele>842.25</ele>
        <time>2017-07-16T12:37:41Z</time>
      </trkpt>
      <trkpt lat="45.16891" lon="4.56753">
        <ele>839.85</ele>
        <time>2017-07-16T12:37:56Z</time>
      </trkpt>
      <trkpt lat="45.16894" lon="4.56749">
        <ele>838.41</ele>
        <time>2017-07-16T12:38:01Z</time>
      </trkpt>
      <trkpt lat="45.16909" lon="4.56721">
        <ele>835.52</ele>
        <time>2017-07-16T12:38:20Z</time>
      </trkpt>
      <trkpt lat="45.16925" lon="4.56694">
        <ele>833.6</ele>
        <time>2017-07-16T12:38:39Z</time>
      </trkpt>
      <trkpt lat="45.16938" lon="4.56662">
        <ele>830.72</ele>
        <time>2017-07-16T12:38:59Z</time>
      </trkpt>
      <trkpt lat="45.16952" lon="4.56632">
        <ele>829.27</ele>
        <time>2017-07-16T12:39:18Z</time>
      </trkpt>
      <trkpt lat="45.16954" lon="4.56629">
        <ele>828.79</ele>
        <time>2017-07-16T12:39:20Z</time>
      </trkpt>
      <trkpt lat="45.16961" lon="4.5661">
        <ele>830.24</ele>
        <time>2017-07-16T12:39:35Z</time>
      </trkpt>
      <trkpt lat="45.16965" lon="4.56603">
        <ele>830.72</ele>
        <time>2017-07-16T12:39:41Z</time>
      </trkpt>
      <trkpt lat="45.16967" lon="4.56591">
        <ele>832.64</ele>
        <time>2017-07-16T12:39:51Z</time>
      </trkpt>
      <trkpt lat="45.16967" lon="4.56588">
        <ele>832.64</ele>
        <time>2017-07-16T12:39:53Z</time>
      </trkpt>
      <trkpt lat="45.16968" lon="4.56579">
        <ele>832.16</ele>
        <time>2017-07-16T12:39:59Z</time>
      </trkpt>
      <trkpt lat="45.1697" lon="4.56555">
        <ele>832.64</ele>
        <time>2017-07-16T12:40:14Z</time>
      </trkpt>
      <trkpt lat="45.16968" lon="4.56532">
        <ele>832.64</ele>
        <time>2017-07-16T12:40:28Z</time>
      </trkpt>
      <trkpt lat="45.16969" lon="4.56511">
        <ele>831.68</ele>
        <time>2017-07-16T12:40:42Z</time>
      </trkpt>
      <trkpt lat="45.16969" lon="4.56506">
        <ele>831.68</ele>
        <time>2017-07-16T12:40:45Z</time>
      </trkpt>
      <trkpt lat="45.16974" lon="4.56478">
        <ele>828.79</ele>
        <time>2017-07-16T12:41:00Z</time>
      </trkpt>
      <trkpt lat="45.1698" lon="4.56452">
        <ele>824.47</ele>
        <time>2017-07-16T12:41:13Z</time>
      </trkpt>
      <trkpt lat="45.16993" lon="4.56426">
        <ele>821.58</ele>
        <time>2017-07-16T12:41:31Z</time>
      </trkpt>
      <trkpt lat="45.17005" lon="4.56404">
        <ele>822.06</ele>
        <time>2017-07-16T12:41:47Z</time>
      </trkpt>
      <trkpt lat="45.17017" lon="4.56374">
        <ele>822.55</ele>
        <time>2017-07-16T12:42:05Z</time>
      </trkpt>
      <trkpt lat="45.17014" lon="4.56353">
        <ele>825.43</ele>
        <time>2017-07-16T12:42:20Z</time>
      </trkpt>
      <trkpt lat="45.17006" lon="4.56328">
        <ele>830.24</ele>
        <time>2017-07-16T12:42:38Z</time>
      </trkpt>
      <trkpt lat="45.16999" lon="4.56322">
        <ele>832.16</ele>
        <time>2017-07-16T12:42:45Z</time>
      </trkpt>
      <trkpt lat="45.1699" lon="4.56314">
        <ele>832.64</ele>
        <time>2017-07-16T12:42:53Z</time>
      </trkpt>
      <trkpt lat="45.1698" lon="4.56305">
        <ele>834.08</ele>
        <time>2017-07-16T12:43:03Z</time>
      </trkpt>
      <trkpt lat="45.16961" lon="4.5629">
        <ele>832.16</ele>
        <time>2017-07-16T12:43:19Z</time>
      </trkpt>
      <trkpt lat="45.16946" lon="4.56281">
        <ele>828.79</ele>
        <time>2017-07-16T12:43:32Z</time>
      </trkpt>
      <trkpt lat="45.16935" lon="4.56275">
        <ele>828.31</ele>
        <time>2017-07-16T12:43:41Z</time>
      </trkpt>
      <trkpt lat="45.16918" lon="4.56264">
        <ele>825.91</ele>
        <time>2017-07-16T12:43:55Z</time>
      </trkpt>
      <trkpt lat="45.16897" lon="4.56249">
        <ele>823.03</ele>
        <time>2017-07-16T12:44:10Z</time>
      </trkpt>
      <trkpt lat="45.1688" lon="4.56243">
        <ele>824.95</ele>
        <time>2017-07-16T12:44:23Z</time>
      </trkpt>
      <trkpt lat="45.16859" lon="4.56223">
        <ele>819.66</ele>
        <time>2017-07-16T12:44:40Z</time>
      </trkpt>
      <trkpt lat="45.16844" lon="4.56201">
        <ele>818.22</ele>
        <time>2017-07-16T12:44:57Z</time>
      </trkpt>
      <trkpt lat="45.16841" lon="4.56186">
        <ele>817.26</ele>
        <time>2017-07-16T12:45:09Z</time>
      </trkpt>
      <trkpt lat="45.16841" lon="4.56186">
        <ele>816.3</ele>
        <time>2017-07-16T12:45:18Z</time>
      </trkpt>
      <trkpt lat="45.16849" lon="4.56192">
        <ele>816.3</ele>
        <time>2017-07-16T12:45:25Z</time>
      </trkpt>
      <trkpt lat="45.16852" lon="4.56195">
        <ele>817.74</ele>
        <time>2017-07-16T12:45:38Z</time>
      </trkpt>
      <trkpt lat="45.1685" lon="4.56195">
        <ele>816.3</ele>
        <time>2017-07-16T12:45:53Z</time>
      </trkpt>
      <trkpt lat="45.16843" lon="4.56187">
        <ele>813.41</ele>
        <time>2017-07-16T12:46:07Z</time>
      </trkpt>
      <trkpt lat="45.16843" lon="4.56189">
        <ele>813.41</ele>
        <time>2017-07-16T12:46:16Z</time>
      </trkpt>
      <trkpt lat="45.16851" lon="4.56215">
        <ele>814.37</ele>
        <time>2017-07-16T12:46:34Z</time>
      </trkpt>
      <trkpt lat="45.16852" lon="4.56219">
        <ele>813.89</ele>
        <time>2017-07-16T12:46:45Z</time>
      </trkpt>
      <trkpt lat="45.16848" lon="4.56237">
        <ele>811.49</ele>
        <time>2017-07-16T12:47:01Z</time>
      </trkpt>
      <trkpt lat="45.16847" lon="4.5624">
        <ele>809.57</ele>
        <time>2017-07-16T12:47:17Z</time>
      </trkpt>
      <trkpt lat="45.16846" lon="4.56238">
        <ele>807.64</ele>
        <time>2017-07-16T12:47:34Z</time>
      </trkpt>
      <trkpt lat="45.16845" lon="4.56237">
        <ele>807.64</ele>
        <time>2017-07-16T12:47:49Z</time>
      </trkpt>
      <trkpt lat="45.16844" lon="4.56237">
        <ele>807.16</ele>
        <time>2017-07-16T12:48:03Z</time>
      </trkpt>
      <trkpt lat="45.16844" lon="4.56238">
        <ele>807.16</ele>
        <time>2017-07-16T12:48:14Z</time>
      </trkpt>
      <trkpt lat="45.16842" lon="4.56238">
        <ele>807.64</ele>
        <time>2017-07-16T12:48:28Z</time>
      </trkpt>
      <trkpt lat="45.16833" lon="4.56231">
        <ele>804.28</ele>
        <time>2017-07-16T12:48:43Z</time>
      </trkpt>
      <trkpt lat="45.1683" lon="4.56232">
        <ele>802.84</ele>
        <time>2017-07-16T12:48:48Z</time>
      </trkpt>
      <trkpt lat="45.16818" lon="4.56238">
        <ele>800.92</ele>
        <time>2017-07-16T12:49:02Z</time>
      </trkpt>
      <trkpt lat="45.16806" lon="4.56247">
        <ele>800.44</ele>
        <time>2017-07-16T12:49:15Z</time>
      </trkpt>
      <trkpt lat="45.16794" lon="4.56254">
        <ele>799.47</ele>
        <time>2017-07-16T12:49:28Z</time>
      </trkpt>
      <trkpt lat="45.16785" lon="4.56259">
        <ele>798.99</ele>
        <time>2017-07-16T12:49:43Z</time>
      </trkpt>
      <trkpt lat="45.16765" lon="4.56267">
        <ele>797.55</ele>
        <time>2017-07-16T12:49:57Z</time>
      </trkpt>
      <trkpt lat="45.16745" lon="4.56275">
        <ele>797.07</ele>
        <time>2017-07-16T12:50:13Z</time>
      </trkpt>
      <trkpt lat="45.16728" lon="4.56282">
        <ele>795.15</ele>
        <time>2017-07-16T12:50:28Z</time>
      </trkpt>
      <trkpt lat="45.16713" lon="4.56285">
        <ele>793.71</ele>
        <time>2017-07-16T12:50:43Z</time>
      </trkpt>
      <trkpt lat="45.16697" lon="4.56285">
        <ele>794.19</ele>
        <time>2017-07-16T12:50:57Z</time>
      </trkpt>
      <trkpt lat="45.16682" lon="4.56286">
        <ele>793.71</ele>
        <time>2017-07-16T12:51:11Z</time>
      </trkpt>
      <trkpt lat="45.16668" lon="4.56286">
        <ele>794.19</ele>
        <time>2017-07-16T12:51:23Z</time>
      </trkpt>
      <trkpt lat="45.16653" lon="4.56294">
        <ele>795.15</ele>
        <time>2017-07-16T12:51:34Z</time>
      </trkpt>
      <trkpt lat="45.16644" lon="4.56296">
        <ele>790.34</ele>
        <time>2017-07-16T12:52:04Z</time>
      </trkpt>
      <trkpt lat="45.16643" lon="4.56295">
        <ele>789.38</ele>
        <time>2017-07-16T12:52:19Z</time>
      </trkpt>
      <trkpt lat="45.16643" lon="4.56295">
        <ele>788.9</ele>
        <time>2017-07-16T12:52:21Z</time>
      </trkpt>
      <trkpt lat="45.16633" lon="4.56301">
        <ele>791.3</ele>
        <time>2017-07-16T12:52:29Z</time>
      </trkpt>
      <trkpt lat="45.1663" lon="4.56308">
        <ele>793.71</ele>
        <time>2017-07-16T12:52:33Z</time>
      </trkpt>
      <trkpt lat="45.16609" lon="4.5633">
        <ele>803.8</ele>
        <time>2017-07-16T12:52:46Z</time>
      </trkpt>
      <trkpt lat="45.16602" lon="4.56344">
        <ele>806.2</ele>
        <time>2017-07-16T12:52:52Z</time>
      </trkpt>
      <trkpt lat="45.1659" lon="4.56344">
        <ele>810.53</ele>
        <time>2017-07-16T12:53:06Z</time>
      </trkpt>
      <trkpt lat="45.16577" lon="4.56354">
        <ele>804.28</ele>
        <time>2017-07-16T12:53:20Z</time>
      </trkpt>
      <trkpt lat="45.16567" lon="4.56363">
        <ele>793.71</ele>
        <time>2017-07-16T12:53:34Z</time>
      </trkpt>
      <trkpt lat="45.1655" lon="4.56364">
        <ele>784.57</ele>
        <time>2017-07-16T12:53:48Z</time>
      </trkpt>
      <trkpt lat="45.16541" lon="4.56362">
        <ele>780.25</ele>
        <time>2017-07-16T12:53:57Z</time>
      </trkpt>
      <trkpt lat="45.16522" lon="4.56365">
        <ele>776.4</ele>
        <time>2017-07-16T12:54:12Z</time>
      </trkpt>
      <trkpt lat="45.16506" lon="4.56371">
        <ele>770.15</ele>
        <time>2017-07-16T12:54:27Z</time>
      </trkpt>
      <trkpt lat="45.16491" lon="4.56373">
        <ele>768.71</ele>
        <time>2017-07-16T12:54:42Z</time>
      </trkpt>
      <trkpt lat="45.16483" lon="4.56375">
        <ele>766.31</ele>
        <time>2017-07-16T12:54:55Z</time>
      </trkpt>
      <trkpt lat="45.16474" lon="4.56379">
        <ele>761.5</ele>
        <time>2017-07-16T12:55:10Z</time>
      </trkpt>
      <trkpt lat="45.16463" lon="4.56388">
        <ele>761.5</ele>
        <time>2017-07-16T12:55:25Z</time>
      </trkpt>
      <trkpt lat="45.16457" lon="4.56396">
        <ele>758.62</ele>
        <time>2017-07-16T12:55:39Z</time>
      </trkpt>
      <trkpt lat="45.16445" lon="4.56389">
        <ele>759.1</ele>
        <time>2017-07-16T12:55:56Z</time>
      </trkpt>
      <trkpt lat="45.16434" lon="4.56393">
        <ele>758.14</ele>
        <time>2017-07-16T12:56:10Z</time>
      </trkpt>
      <trkpt lat="45.16428" lon="4.56397">
        <ele>758.62</ele>
        <time>2017-07-16T12:56:16Z</time>
      </trkpt>
      <trkpt lat="45.16424" lon="4.56416">
        <ele>761.02</ele>
        <time>2017-07-16T12:56:31Z</time>
      </trkpt>
      <trkpt lat="45.16423" lon="4.56429">
        <ele>758.62</ele>
        <time>2017-07-16T12:56:43Z</time>
      </trkpt>
      <trkpt lat="45.1643" lon="4.56449">
        <ele>755.73</ele>
        <time>2017-07-16T12:56:53Z</time>
      </trkpt>
      <trkpt lat="45.16443" lon="4.56477">
        <ele>752.37</ele>
        <time>2017-07-16T12:57:06Z</time>
      </trkpt>
      <trkpt lat="45.16456" lon="4.56493">
        <ele>752.85</ele>
        <time>2017-07-16T12:57:20Z</time>
      </trkpt>
      <trkpt lat="45.16472" lon="4.56518">
        <ele>750.93</ele>
        <time>2017-07-16T12:57:34Z</time>
      </trkpt>
      <trkpt lat="45.16487" lon="4.56529">
        <ele>747.08</ele>
        <time>2017-07-16T12:57:46Z</time>
      </trkpt>
      <trkpt lat="45.16499" lon="4.56537">
        <ele>743.24</ele>
        <time>2017-07-16T12:57:59Z</time>
      </trkpt>
      <trkpt lat="45.16506" lon="4.56536">
        <ele>737.95</ele>
        <time>2017-07-16T12:58:19Z</time>
      </trkpt>
      <trkpt lat="45.16509" lon="4.56534">
        <ele>735.07</ele>
        <time>2017-07-16T12:58:36Z</time>
      </trkpt>
      <trkpt lat="45.16511" lon="4.56535">
        <ele>731.7</ele>
        <time>2017-07-16T12:58:58Z</time>
      </trkpt>
      <trkpt lat="45.16521" lon="4.56544">
        <ele>729.3</ele>
        <time>2017-07-16T12:59:14Z</time>
      </trkpt>
      <trkpt lat="45.1653" lon="4.56552">
        <ele>731.7</ele>
        <time>2017-07-16T12:59:29Z</time>
      </trkpt>
      <trkpt lat="45.16542" lon="4.56558">
        <ele>736.51</ele>
        <time>2017-07-16T12:59:43Z</time>
      </trkpt>
      <trkpt lat="45.16547" lon="4.56561">
        <ele>736.99</ele>
        <time>2017-07-16T13:00:03Z</time>
      </trkpt>
      <trkpt lat="45.16549" lon="4.56561">
        <ele>736.51</ele>
        <time>2017-07-16T13:00:23Z</time>
      </trkpt>
      <trkpt lat="45.16549" lon="4.56563">
        <ele>736.51</ele>
        <time>2017-07-16T13:00:40Z</time>
      </trkpt>
      <trkpt lat="45.1655" lon="4.56564">
        <ele>735.55</ele>
        <time>2017-07-16T13:00:53Z</time>
      </trkpt>
      <trkpt lat="45.16552" lon="4.56567">
        <ele>734.58</ele>
        <time>2017-07-16T13:01:08Z</time>
      </trkpt>
      <trkpt lat="45.16552" lon="4.56571">
        <ele>734.1</ele>
        <time>2017-07-16T13:01:22Z</time>
      </trkpt>
      <trkpt lat="45.16554" lon="4.56584">
        <ele>738.43</ele>
        <time>2017-07-16T13:01:36Z</time>
      </trkpt>
      <trkpt lat="45.16554" lon="4.56593">
        <ele>740.35</ele>
        <time>2017-07-16T13:01:49Z</time>
      </trkpt>
      <trkpt lat="45.16547" lon="4.56595">
        <ele>748.04</ele>
        <time>2017-07-16T13:02:06Z</time>
      </trkpt>
      <trkpt lat="45.16537" lon="4.56607">
        <ele>756.21</ele>
        <time>2017-07-16T13:02:21Z</time>
      </trkpt>
      <trkpt lat="45.16534" lon="4.56611">
        <ele>757.18</ele>
        <time>2017-07-16T13:02:25Z</time>
      </trkpt>
      <trkpt lat="45.16516" lon="4.56613">
        <ele>764.87</ele>
        <time>2017-07-16T13:02:41Z</time>
      </trkpt>
      <trkpt lat="45.16507" lon="4.56613">
        <ele>769.19</ele>
        <time>2017-07-16T13:02:52Z</time>
      </trkpt>
      <trkpt lat="45.16493" lon="4.56615">
        <ele>775.92</ele>
        <time>2017-07-16T13:03:05Z</time>
      </trkpt>
      <trkpt lat="45.16485" lon="4.56618">
        <ele>780.25</ele>
        <time>2017-07-16T13:03:18Z</time>
      </trkpt>
      <trkpt lat="45.16479" lon="4.56621">
        <ele>777.36</ele>
        <time>2017-07-16T13:03:31Z</time>
      </trkpt>
      <trkpt lat="45.16462" lon="4.56622">
        <ele>786.02</ele>
        <time>2017-07-16T13:03:45Z</time>
      </trkpt>
      <trkpt lat="45.16445" lon="4.56615">
        <ele>794.67</ele>
        <time>2017-07-16T13:04:01Z</time>
      </trkpt>
      <trkpt lat="45.16433" lon="4.56617">
        <ele>795.15</ele>
        <time>2017-07-16T13:04:16Z</time>
      </trkpt>
      <trkpt lat="45.1643" lon="4.56621">
        <ele>792.74</ele>
        <time>2017-07-16T13:04:30Z</time>
      </trkpt>
      <trkpt lat="45.16428" lon="4.56626">
        <ele>787.94</ele>
        <time>2017-07-16T13:04:50Z</time>
      </trkpt>
      <trkpt lat="45.16425" lon="4.56628">
        <ele>784.09</ele>
        <time>2017-07-16T13:05:15Z</time>
      </trkpt>
      <trkpt lat="45.16424" lon="4.56629">
        <ele>783.13</ele>
        <time>2017-07-16T13:05:31Z</time>
      </trkpt>
      <trkpt lat="45.16423" lon="4.56631">
        <ele>779.29</ele>
        <time>2017-07-16T13:05:49Z</time>
      </trkpt>
      <trkpt lat="45.16425" lon="4.56633">
        <ele>775.44</ele>
        <time>2017-07-16T13:06:12Z</time>
      </trkpt>
      <trkpt lat="45.16426" lon="4.56638">
        <ele>770.15</ele>
        <time>2017-07-16T13:06:31Z</time>
      </trkpt>
      <trkpt lat="45.16426" lon="4.5664">
        <ele>767.75</ele>
        <time>2017-07-16T13:06:51Z</time>
      </trkpt>
      <trkpt lat="45.16425" lon="4.56641">
        <ele>764.39</ele>
        <time>2017-07-16T13:07:05Z</time>
      </trkpt>
      <trkpt lat="45.16422" lon="4.56647">
        <ele>759.1</ele>
        <time>2017-07-16T13:07:26Z</time>
      </trkpt>
      <trkpt lat="45.16417" lon="4.56652">
        <ele>755.25</ele>
        <time>2017-07-16T13:07:39Z</time>
      </trkpt>
      <trkpt lat="45.16417" lon="4.56653">
        <ele>754.29</ele>
        <time>2017-07-16T13:07:56Z</time>
      </trkpt>
      <trkpt lat="45.16416" lon="4.56653">
        <ele>752.85</ele>
        <time>2017-07-16T13:08:12Z</time>
      </trkpt>
      <trkpt lat="45.16416" lon="4.56653">
        <ele>750.93</ele>
        <time>2017-07-16T13:08:36Z</time>
      </trkpt>
      <trkpt lat="45.16414" lon="4.56653">
        <ele>749.49</ele>
        <time>2017-07-16T13:08:53Z</time>
      </trkpt>
      <trkpt lat="45.16412" lon="4.56652">
        <ele>749</ele>
        <time>2017-07-16T13:09:09Z</time>
      </trkpt>
      <trkpt lat="45.16412" lon="4.56655">
        <ele>746.12</ele>
        <time>2017-07-16T13:09:21Z</time>
      </trkpt>
      <trkpt lat="45.16412" lon="4.56658">
        <ele>743.72</ele>
        <time>2017-07-16T13:09:39Z</time>
      </trkpt>
      <trkpt lat="45.16413" lon="4.56661">
        <ele>740.35</ele>
        <time>2017-07-16T13:09:59Z</time>
      </trkpt>
      <trkpt lat="45.16413" lon="4.56663">
        <ele>738.43</ele>
        <time>2017-07-16T13:10:21Z</time>
      </trkpt>
      <trkpt lat="45.16413" lon="4.56665">
        <ele>738.43</ele>
        <time>2017-07-16T13:10:42Z</time>
      </trkpt>
      <trkpt lat="45.1641" lon="4.56666">
        <ele>737.47</ele>
        <time>2017-07-16T13:10:55Z</time>
      </trkpt>
      <trkpt lat="45.16401" lon="4.56666">
        <ele>733.14</ele>
        <time>2017-07-16T13:11:05Z</time>
      </trkpt>
      <trkpt lat="45.16397" lon="4.56664">
        <ele>732.18</ele>
        <time>2017-07-16T13:11:08Z</time>
      </trkpt>
      <trkpt lat="45.16378" lon="4.56657">
        <ele>726.41</ele>
        <time>2017-07-16T13:11:26Z</time>
      </trkpt>
      <trkpt lat="45.16366" lon="4.56652">
        <ele>723.05</ele>
        <time>2017-07-16T13:11:39Z</time>
      </trkpt>
      <trkpt lat="45.16357" lon="4.56652">
        <ele>720.65</ele>
        <time>2017-07-16T13:11:50Z</time>
      </trkpt>
      <trkpt lat="45.16353" lon="4.56652">
        <ele>719.2</ele>
        <time>2017-07-16T13:12:04Z</time>
      </trkpt>
      <trkpt lat="45.16347" lon="4.5665">
        <ele>717.76</ele>
        <time>2017-07-16T13:12:18Z</time>
      </trkpt>
      <trkpt lat="45.16337" lon="4.56644">
        <ele>714.4</ele>
        <time>2017-07-16T13:12:27Z</time>
      </trkpt>
      <trkpt lat="45.16319" lon="4.5664">
        <ele>710.07</ele>
        <time>2017-07-16T13:12:44Z</time>
      </trkpt>
      <trkpt lat="45.16305" lon="4.56637">
        <ele>710.07</ele>
        <time>2017-07-16T13:12:57Z</time>
      </trkpt>
      <trkpt lat="45.16289" lon="4.56633">
        <ele>709.11</ele>
        <time>2017-07-16T13:13:09Z</time>
      </trkpt>
      <trkpt lat="45.16286" lon="4.56633">
        <ele>709.11</ele>
        <time>2017-07-16T13:13:11Z</time>
      </trkpt>
      <trkpt lat="45.1628" lon="4.56631">
        <ele>710.07</ele>
        <time>2017-07-16T13:13:16Z</time>
      </trkpt>
      <trkpt lat="45.16265" lon="4.5663">
        <ele>709.59</ele>
        <time>2017-07-16T13:13:31Z</time>
      </trkpt>
      <trkpt lat="45.16258" lon="4.56631">
        <ele>708.63</ele>
        <time>2017-07-16T13:13:36Z</time>
      </trkpt>
      <trkpt lat="45.16239" lon="4.56634">
        <ele>708.63</ele>
        <time>2017-07-16T13:13:50Z</time>
      </trkpt>
      <trkpt lat="45.16224" lon="4.56639">
        <ele>707.19</ele>
        <time>2017-07-16T13:14:00Z</time>
      </trkpt>
      <trkpt lat="45.16218" lon="4.56646">
        <ele>706.23</ele>
        <time>2017-07-16T13:14:06Z</time>
      </trkpt>
      <trkpt lat="45.162" lon="4.56668">
        <ele>705.26</ele>
        <time>2017-07-16T13:14:23Z</time>
      </trkpt>
      <trkpt lat="45.16199" lon="4.56669">
        <ele>705.26</ele>
        <time>2017-07-16T13:14:24Z</time>
      </trkpt>
      <trkpt lat="45.16186" lon="4.56691">
        <ele>704.3</ele>
        <time>2017-07-16T13:14:41Z</time>
      </trkpt>
      <trkpt lat="45.16169" lon="4.56713">
        <ele>704.3</ele>
        <time>2017-07-16T13:14:57Z</time>
      </trkpt>
      <trkpt lat="45.16158" lon="4.56738">
        <ele>701.42</ele>
        <time>2017-07-16T13:15:12Z</time>
      </trkpt>
      <trkpt lat="45.16151" lon="4.56764">
        <ele>700.46</ele>
        <time>2017-07-16T13:15:26Z</time>
      </trkpt>
      <trkpt lat="45.16152" lon="4.56794">
        <ele>700.46</ele>
        <time>2017-07-16T13:15:41Z</time>
      </trkpt>
      <trkpt lat="45.16151" lon="4.56823">
        <ele>700.46</ele>
        <time>2017-07-16T13:15:56Z</time>
      </trkpt>
      <trkpt lat="45.1615" lon="4.56825">
        <ele>700.94</ele>
        <time>2017-07-16T13:15:57Z</time>
      </trkpt>
      <trkpt lat="45.16137" lon="4.56852">
        <ele>703.34</ele>
        <time>2017-07-16T13:16:15Z</time>
      </trkpt>
      <trkpt lat="45.16123" lon="4.56867">
        <ele>705.75</ele>
        <time>2017-07-16T13:16:29Z</time>
      </trkpt>
      <trkpt lat="45.16105" lon="4.56886">
        <ele>708.15</ele>
        <time>2017-07-16T13:16:44Z</time>
      </trkpt>
      <trkpt lat="45.16092" lon="4.5691">
        <ele>705.75</ele>
        <time>2017-07-16T13:16:59Z</time>
      </trkpt>
      <trkpt lat="45.16078" lon="4.56935">
        <ele>703.82</ele>
        <time>2017-07-16T13:17:15Z</time>
      </trkpt>
      <trkpt lat="45.16076" lon="4.56942">
        <ele>703.34</ele>
        <time>2017-07-16T13:17:19Z</time>
      </trkpt>
      <trkpt lat="45.16068" lon="4.56969">
        <ele>704.3</ele>
        <time>2017-07-16T13:17:33Z</time>
      </trkpt>
      <trkpt lat="45.16059" lon="4.56993">
        <ele>706.71</ele>
        <time>2017-07-16T13:17:48Z</time>
      </trkpt>
      <trkpt lat="45.16049" lon="4.57022">
        <ele>704.3</ele>
        <time>2017-07-16T13:18:04Z</time>
      </trkpt>
      <trkpt lat="45.1604" lon="4.57048">
        <ele>702.38</ele>
        <time>2017-07-16T13:18:19Z</time>
      </trkpt>
      <trkpt lat="45.16032" lon="4.57069">
        <ele>703.34</ele>
        <time>2017-07-16T13:18:32Z</time>
      </trkpt>
      <trkpt lat="45.16026" lon="4.57088">
        <ele>701.42</ele>
        <time>2017-07-16T13:18:43Z</time>
      </trkpt>
      <trkpt lat="45.16017" lon="4.57106">
        <ele>701.9</ele>
        <time>2017-07-16T13:18:56Z</time>
      </trkpt>
      <trkpt lat="45.16007" lon="4.57126">
        <ele>704.78</ele>
        <time>2017-07-16T13:19:10Z</time>
      </trkpt>
      <trkpt lat="45.15995" lon="4.57147">
        <ele>701.9</ele>
        <time>2017-07-16T13:19:24Z</time>
      </trkpt>
      <trkpt lat="45.15991" lon="4.57152">
        <ele>700.46</ele>
        <time>2017-07-16T13:19:28Z</time>
      </trkpt>
      <trkpt lat="45.15972" lon="4.57165">
        <ele>699.02</ele>
        <time>2017-07-16T13:19:45Z</time>
      </trkpt>
      <trkpt lat="45.15954" lon="4.57182">
        <ele>695.17</ele>
        <time>2017-07-16T13:20:02Z</time>
      </trkpt>
      <trkpt lat="45.15947" lon="4.57201">
        <ele>687.96</ele>
        <time>2017-07-16T13:20:13Z</time>
      </trkpt>
      <trkpt lat="45.15936" lon="4.57223">
        <ele>685.08</ele>
        <time>2017-07-16T13:20:29Z</time>
      </trkpt>
      <trkpt lat="45.15927" lon="4.57242">
        <ele>686.04</ele>
        <time>2017-07-16T13:20:42Z</time>
      </trkpt>
      <trkpt lat="45.15917" lon="4.5726">
        <ele>687.48</ele>
        <time>2017-07-16T13:20:56Z</time>
      </trkpt>
      <trkpt lat="45.15908" lon="4.57278">
        <ele>687.96</ele>
        <time>2017-07-16T13:21:09Z</time>
      </trkpt>
      <trkpt lat="45.15898" lon="4.57299">
        <ele>685.56</ele>
        <time>2017-07-16T13:21:22Z</time>
      </trkpt>
      <trkpt lat="45.15892" lon="4.57318">
        <ele>685.08</ele>
        <time>2017-07-16T13:21:35Z</time>
      </trkpt>
      <trkpt lat="45.15887" lon="4.57336">
        <ele>685.56</ele>
        <time>2017-07-16T13:21:48Z</time>
      </trkpt>
      <trkpt lat="45.15883" lon="4.5735">
        <ele>687.48</ele>
        <time>2017-07-16T13:21:59Z</time>
      </trkpt>
      <trkpt lat="45.15876" lon="4.57369">
        <ele>691.81</ele>
        <time>2017-07-16T13:22:12Z</time>
      </trkpt>
      <trkpt lat="45.15867" lon="4.5739">
        <ele>693.73</ele>
        <time>2017-07-16T13:22:27Z</time>
      </trkpt>
      <trkpt lat="45.15855" lon="4.57412">
        <ele>692.29</ele>
        <time>2017-07-16T13:22:41Z</time>
      </trkpt>
      <trkpt lat="45.15835" lon="4.57423">
        <ele>682.67</ele>
        <time>2017-07-16T13:22:58Z</time>
      </trkpt>
      <trkpt lat="45.15828" lon="4.57431">
        <ele>679.31</ele>
        <time>2017-07-16T13:23:05Z</time>
      </trkpt>
      <trkpt lat="45.15816" lon="4.57453">
        <ele>673.06</ele>
        <time>2017-07-16T13:23:20Z</time>
      </trkpt>
      <trkpt lat="45.15807" lon="4.57483">
        <ele>667.29</ele>
        <time>2017-07-16T13:23:36Z</time>
      </trkpt>
      <trkpt lat="45.15799" lon="4.57506">
        <ele>664.41</ele>
        <time>2017-07-16T13:23:50Z</time>
      </trkpt>
      <trkpt lat="45.15798" lon="4.57507">
        <ele>664.41</ele>
        <time>2017-07-16T13:23:51Z</time>
      </trkpt>
      <trkpt lat="45.15797" lon="4.57515">
        <ele>664.41</ele>
        <time>2017-07-16T13:23:56Z</time>
      </trkpt>
      <trkpt lat="45.15794" lon="4.57521">
        <ele>664.89</ele>
        <time>2017-07-16T13:24:00Z</time>
      </trkpt>
      <trkpt lat="45.15788" lon="4.5754">
        <ele>662.01</ele>
        <time>2017-07-16T13:24:12Z</time>
      </trkpt>
      <trkpt lat="45.15779" lon="4.57556">
        <ele>668.25</ele>
        <time>2017-07-16T13:24:27Z</time>
      </trkpt>
      <trkpt lat="45.15778" lon="4.57563">
        <ele>669.22</ele>
        <time>2017-07-16T13:24:32Z</time>
      </trkpt>
      <trkpt lat="45.15777" lon="4.57566">
        <ele>669.7</ele>
        <time>2017-07-16T13:24:34Z</time>
      </trkpt>
      <trkpt lat="45.15772" lon="4.57587">
        <ele>670.18</ele>
        <time>2017-07-16T13:24:46Z</time>
      </trkpt>
      <trkpt lat="45.15769" lon="4.57608">
        <ele>671.62</ele>
        <time>2017-07-16T13:24:59Z</time>
      </trkpt>
      <trkpt lat="45.15768" lon="4.57609">
        <ele>671.62</ele>
        <time>2017-07-16T13:25:00Z</time>
      </trkpt>
      <trkpt lat="45.15766" lon="4.57617">
        <ele>672.58</ele>
        <time>2017-07-16T13:25:05Z</time>
      </trkpt>
      <trkpt lat="45.15767" lon="4.57624">
        <ele>673.54</ele>
        <time>2017-07-16T13:25:08Z</time>
      </trkpt>
      <trkpt lat="45.15767" lon="4.57655">
        <ele>671.62</ele>
        <time>2017-07-16T13:25:24Z</time>
      </trkpt>
      <trkpt lat="45.15766" lon="4.57656">
        <ele>671.62</ele>
        <time>2017-07-16T13:25:25Z</time>
      </trkpt>
      <trkpt lat="45.15764" lon="4.57674">
        <ele>669.7</ele>
        <time>2017-07-16T13:25:34Z</time>
      </trkpt>
      <trkpt lat="45.15759" lon="4.57705">
        <ele>666.81</ele>
        <time>2017-07-16T13:25:50Z</time>
      </trkpt>
      <trkpt lat="45.15754" lon="4.57739">
        <ele>658.16</ele>
        <time>2017-07-16T13:26:04Z</time>
      </trkpt>
      <trkpt lat="45.15751" lon="4.57764">
        <ele>651.43</ele>
        <time>2017-07-16T13:26:15Z</time>
      </trkpt>
      <trkpt lat="45.15749" lon="4.57769">
        <ele>650.47</ele>
        <time>2017-07-16T13:26:19Z</time>
      </trkpt>
      <trkpt lat="45.15746" lon="4.57785">
        <ele>648.07</ele>
        <time>2017-07-16T13:26:27Z</time>
      </trkpt>
      <trkpt lat="45.1574" lon="4.57826">
        <ele>637.49</ele>
        <time>2017-07-16T13:26:45Z</time>
      </trkpt>
      <trkpt lat="45.15739" lon="4.57828">
        <ele>637.01</ele>
        <time>2017-07-16T13:26:46Z</time>
      </trkpt>
      <trkpt lat="45.15735" lon="4.57847">
        <ele>632.68</ele>
        <time>2017-07-16T13:27:00Z</time>
      </trkpt>
      <trkpt lat="45.15748" lon="4.57862">
        <ele>627.4</ele>
        <time>2017-07-16T13:27:16Z</time>
      </trkpt>
      <trkpt lat="45.15769" lon="4.57852">
        <ele>624.99</ele>
        <time>2017-07-16T13:27:33Z</time>
      </trkpt>
      <trkpt lat="45.15791" lon="4.57848">
        <ele>625.96</ele>
        <time>2017-07-16T13:27:51Z</time>
      </trkpt>
      <trkpt lat="45.15804" lon="4.57864">
        <ele>626.44</ele>
        <time>2017-07-16T13:28:07Z</time>
      </trkpt>
      <trkpt lat="45.15803" lon="4.57876">
        <ele>622.59</ele>
        <time>2017-07-16T13:28:19Z</time>
      </trkpt>
      <trkpt lat="45.15802" lon="4.57874">
        <ele>618.26</ele>
        <time>2017-07-16T13:28:29Z</time>
      </trkpt>
      <trkpt lat="45.158" lon="4.57875">
        <ele>616.82</ele>
        <time>2017-07-16T13:28:39Z</time>
      </trkpt>
      <trkpt lat="45.15799" lon="4.57877">
        <ele>616.82</ele>
        <time>2017-07-16T13:28:49Z</time>
      </trkpt>
      <trkpt lat="45.15801" lon="4.57872">
        <ele>617.3</ele>
        <time>2017-07-16T13:29:02Z</time>
      </trkpt>
      <trkpt lat="45.15799" lon="4.57875">
        <ele>616.34</ele>
        <time>2017-07-16T13:29:15Z</time>
      </trkpt>
      <trkpt lat="45.15799" lon="4.57873">
        <ele>616.34</ele>
        <time>2017-07-16T13:29:27Z</time>
      </trkpt>
      <trkpt lat="45.15798" lon="4.57871">
        <ele>615.86</ele>
        <time>2017-07-16T13:29:48Z</time>
      </trkpt>
      <trkpt lat="45.15801" lon="4.57867">
        <ele>613.94</ele>
        <time>2017-07-16T13:30:04Z</time>
      </trkpt>
      <trkpt lat="45.15801" lon="4.57869">
        <ele>612.5</ele>
        <time>2017-07-16T13:30:20Z</time>
      </trkpt>
      <trkpt lat="45.158" lon="4.5787">
        <ele>612.98</ele>
        <time>2017-07-16T13:30:41Z</time>
      </trkpt>
      <trkpt lat="45.15801" lon="4.57869">
        <ele>612.98</ele>
        <time>2017-07-16T13:30:54Z</time>
      </trkpt>
      <trkpt lat="45.15802" lon="4.5787">
        <ele>612.5</ele>
        <time>2017-07-16T13:31:13Z</time>
      </trkpt>
      <trkpt lat="45.15803" lon="4.5787">
        <ele>612.5</ele>
        <time>2017-07-16T13:31:25Z</time>
      </trkpt>
      <trkpt lat="45.158" lon="4.57872">
        <ele>612.02</ele>
        <time>2017-07-16T13:31:36Z</time>
      </trkpt>
      <trkpt lat="45.158" lon="4.57872">
        <ele>611.54</ele>
        <time>2017-07-16T13:31:54Z</time>
      </trkpt>
      <trkpt lat="45.158" lon="4.57872">
        <ele>611.06</ele>
        <time>2017-07-16T13:32:12Z</time>
      </trkpt>
      <trkpt lat="45.158" lon="4.57871">
        <ele>610.57</ele>
        <time>2017-07-16T13:32:32Z</time>
      </trkpt>
      <trkpt lat="45.158" lon="4.5787">
        <ele>610.09</ele>
        <time>2017-07-16T13:32:47Z</time>
      </trkpt>
      <trkpt lat="45.15801" lon="4.5787">
        <ele>610.09</ele>
        <time>2017-07-16T13:33:04Z</time>
      </trkpt>
      <trkpt lat="45.15801" lon="4.57871">
        <ele>609.13</ele>
        <time>2017-07-16T13:33:16Z</time>
      </trkpt>
      <trkpt lat="45.15801" lon="4.57867">
        <ele>609.13</ele>
        <time>2017-07-16T13:33:28Z</time>
      </trkpt>
      <trkpt lat="45.158" lon="4.57864">
        <ele>610.09</ele>
        <time>2017-07-16T13:33:41Z</time>
      </trkpt>
      <trkpt lat="45.15794" lon="4.57859">
        <ele>608.17</ele>
        <time>2017-07-16T13:33:51Z</time>
      </trkpt>
      <trkpt lat="45.15781" lon="4.57861">
        <ele>607.21</ele>
        <time>2017-07-16T13:34:06Z</time>
      </trkpt>
      <trkpt lat="45.15766" lon="4.57872">
        <ele>605.77</ele>
        <time>2017-07-16T13:34:22Z</time>
      </trkpt>
      <trkpt lat="45.15758" lon="4.5788">
        <ele>608.17</ele>
        <time>2017-07-16T13:34:31Z</time>
      </trkpt>
      <trkpt lat="45.15753" lon="4.57885">
        <ele>609.61</ele>
        <time>2017-07-16T13:34:36Z</time>
      </trkpt>
      <trkpt lat="45.15745" lon="4.57897">
        <ele>612.98</ele>
        <time>2017-07-16T13:34:48Z</time>
      </trkpt>
      <trkpt lat="45.15733" lon="4.5792">
        <ele>616.34</ele>
        <time>2017-07-16T13:35:05Z</time>
      </trkpt>
      <trkpt lat="45.15718" lon="4.57945">
        <ele>620.67</ele>
        <time>2017-07-16T13:35:23Z</time>
      </trkpt>
      <trkpt lat="45.15697" lon="4.57969">
        <ele>619.71</ele>
        <time>2017-07-16T13:35:42Z</time>
      </trkpt>
      <trkpt lat="45.1568" lon="4.57962">
        <ele>615.86</ele>
        <time>2017-07-16T13:35:58Z</time>
      </trkpt>
      <trkpt lat="45.15673" lon="4.57948">
        <ele>612.98</ele>
        <time>2017-07-16T13:36:08Z</time>
      </trkpt>
      <trkpt lat="45.15665" lon="4.57936">
        <ele>611.06</ele>
        <time>2017-07-16T13:36:18Z</time>
      </trkpt>
      <trkpt lat="45.1566" lon="4.57923">
        <ele>610.57</ele>
        <time>2017-07-16T13:36:26Z</time>
      </trkpt>
      <trkpt lat="45.15649" lon="4.5789">
        <ele>608.65</ele>
        <time>2017-07-16T13:36:44Z</time>
      </trkpt>
      <trkpt lat="45.15635" lon="4.57856">
        <ele>600</ele>
        <time>2017-07-16T13:37:04Z</time>
      </trkpt>
      <trkpt lat="45.15621" lon="4.57849">
        <ele>595.67</ele>
        <time>2017-07-16T13:37:18Z</time>
      </trkpt>
      <trkpt lat="45.15604" lon="4.57846">
        <ele>597.6</ele>
        <time>2017-07-16T13:37:31Z</time>
      </trkpt>
      <trkpt lat="45.15573" lon="4.57843">
        <ele>594.23</ele>
        <time>2017-07-16T13:37:51Z</time>
      </trkpt>
      <trkpt lat="45.15556" lon="4.57839">
        <ele>596.15</ele>
        <time>2017-07-16T13:38:07Z</time>
      </trkpt>
      <trkpt lat="45.15547" lon="4.57833">
        <ele>597.6</ele>
        <time>2017-07-16T13:38:20Z</time>
      </trkpt>
      <trkpt lat="45.15541" lon="4.57833">
        <ele>598.08</ele>
        <time>2017-07-16T13:38:26Z</time>
      </trkpt>
      <trkpt lat="45.15529" lon="4.57834">
        <ele>600.96</ele>
        <time>2017-07-16T13:38:37Z</time>
      </trkpt>
      <trkpt lat="45.1551" lon="4.57844">
        <ele>602.88</ele>
        <time>2017-07-16T13:38:53Z</time>
      </trkpt>
      <trkpt lat="45.15495" lon="4.57844">
        <ele>605.77</ele>
        <time>2017-07-16T13:39:05Z</time>
      </trkpt>
      <trkpt lat="45.15491" lon="4.57839">
        <ele>606.25</ele>
        <time>2017-07-16T13:39:10Z</time>
      </trkpt>
      <trkpt lat="45.15485" lon="4.57817">
        <ele>608.17</ele>
        <time>2017-07-16T13:39:26Z</time>
      </trkpt>
      <trkpt lat="45.15483" lon="4.57805">
        <ele>608.65</ele>
        <time>2017-07-16T13:39:40Z</time>
      </trkpt>
      <trkpt lat="45.15479" lon="4.57805">
        <ele>608.65</ele>
        <time>2017-07-16T13:39:54Z</time>
      </trkpt>
      <trkpt lat="45.15475" lon="4.5779">
        <ele>610.57</ele>
        <time>2017-07-16T13:40:07Z</time>
      </trkpt>
      <trkpt lat="45.15464" lon="4.57761">
        <ele>618.75</ele>
        <time>2017-07-16T13:40:26Z</time>
      </trkpt>
      <trkpt lat="45.15464" lon="4.57758">
        <ele>619.23</ele>
        <time>2017-07-16T13:40:28Z</time>
      </trkpt>
      <trkpt lat="45.15458" lon="4.5774">
        <ele>623.55</ele>
        <time>2017-07-16T13:40:40Z</time>
      </trkpt>
      <trkpt lat="45.15457" lon="4.57735">
        <ele>624.51</ele>
        <time>2017-07-16T13:40:43Z</time>
      </trkpt>
      <trkpt lat="45.15453" lon="4.57722">
        <ele>624.03</ele>
        <time>2017-07-16T13:40:51Z</time>
      </trkpt>
      <trkpt lat="45.15446" lon="4.57712">
        <ele>621.63</ele>
        <time>2017-07-16T13:40:58Z</time>
      </trkpt>
      <trkpt lat="45.15445" lon="4.577">
        <ele>621.63</ele>
        <time>2017-07-16T13:41:07Z</time>
      </trkpt>
      <trkpt lat="45.15459" lon="4.57697">
        <ele>623.07</ele>
        <time>2017-07-16T13:41:21Z</time>
      </trkpt>
      <trkpt lat="45.15473" lon="4.57702">
        <ele>621.63</ele>
        <time>2017-07-16T13:41:34Z</time>
      </trkpt>
      <trkpt lat="45.15489" lon="4.57712">
        <ele>621.15</ele>
        <time>2017-07-16T13:41:49Z</time>
      </trkpt>
      <trkpt lat="45.1551" lon="4.57719">
        <ele>618.26</ele>
        <time>2017-07-16T13:42:05Z</time>
      </trkpt>
      <trkpt lat="45.15521" lon="4.57716">
        <ele>618.26</ele>
        <time>2017-07-16T13:42:16Z</time>
      </trkpt>
      <trkpt lat="45.15525" lon="4.57709">
        <ele>619.71</ele>
        <time>2017-07-16T13:42:22Z</time>
      </trkpt>
      <trkpt lat="45.15523" lon="4.57701">
        <ele>620.19</ele>
        <time>2017-07-16T13:42:28Z</time>
      </trkpt>
      <trkpt lat="45.1552" lon="4.57685">
        <ele>622.59</ele>
        <time>2017-07-16T13:42:41Z</time>
      </trkpt>
      <trkpt lat="45.15517" lon="4.57677">
        <ele>624.51</ele>
        <time>2017-07-16T13:42:51Z</time>
      </trkpt>
      <trkpt lat="45.15517" lon="4.57675">
        <ele>624.99</ele>
        <time>2017-07-16T13:42:53Z</time>
      </trkpt>
      <trkpt lat="45.15516" lon="4.57672">
        <ele>624.99</ele>
        <time>2017-07-16T13:42:55Z</time>
      </trkpt>
      <trkpt lat="45.15513" lon="4.5765">
        <ele>630.76</ele>
        <time>2017-07-16T13:43:12Z</time>
      </trkpt>
      <trkpt lat="45.15508" lon="4.57624">
        <ele>635.09</ele>
        <time>2017-07-16T13:43:29Z</time>
      </trkpt>
      <trkpt lat="45.15502" lon="4.57602">
        <ele>637.49</ele>
        <time>2017-07-16T13:43:44Z</time>
      </trkpt>
      <trkpt lat="45.1549" lon="4.57582">
        <ele>640.38</ele>
        <time>2017-07-16T13:44:00Z</time>
      </trkpt>
      <trkpt lat="45.1548" lon="4.57567">
        <ele>644.7</ele>
        <time>2017-07-16T13:44:15Z</time>
      </trkpt>
      <trkpt lat="45.15475" lon="4.57557">
        <ele>647.59</ele>
        <time>2017-07-16T13:44:30Z</time>
      </trkpt>
      <trkpt lat="45.15473" lon="4.57555">
        <ele>647.59</ele>
        <time>2017-07-16T13:44:32Z</time>
      </trkpt>
      <trkpt lat="45.15464" lon="4.57536">
        <ele>652.39</ele>
        <time>2017-07-16T13:44:48Z</time>
      </trkpt>
      <trkpt lat="45.15454" lon="4.57511">
        <ele>655.76</ele>
        <time>2017-07-16T13:45:05Z</time>
      </trkpt>
      <trkpt lat="45.15444" lon="4.5749">
        <ele>659.12</ele>
        <time>2017-07-16T13:45:21Z</time>
      </trkpt>
      <trkpt lat="45.15443" lon="4.57486">
        <ele>659.6</ele>
        <time>2017-07-16T13:45:24Z</time>
      </trkpt>
      <trkpt lat="45.15443" lon="4.57474">
        <ele>660.08</ele>
        <time>2017-07-16T13:45:34Z</time>
      </trkpt>
      <trkpt lat="45.15447" lon="4.57451">
        <ele>661.52</ele>
        <time>2017-07-16T13:45:50Z</time>
      </trkpt>
      <trkpt lat="45.15447" lon="4.5745">
        <ele>661.04</ele>
        <time>2017-07-16T13:45:53Z</time>
      </trkpt>
      <trkpt lat="45.15444" lon="4.57465">
        <ele>659.12</ele>
        <time>2017-07-16T13:46:08Z</time>
      </trkpt>
      <trkpt lat="45.15443" lon="4.57468">
        <ele>659.12</ele>
        <time>2017-07-16T13:46:10Z</time>
      </trkpt>
      <trkpt lat="45.15442" lon="4.57473">
        <ele>660.56</ele>
        <time>2017-07-16T13:46:24Z</time>
      </trkpt>
      <trkpt lat="45.15447" lon="4.57446">
        <ele>662.01</ele>
        <time>2017-07-16T13:46:40Z</time>
      </trkpt>
      <trkpt lat="45.15438" lon="4.57422">
        <ele>662.49</ele>
        <time>2017-07-16T13:46:56Z</time>
      </trkpt>
      <trkpt lat="45.15433" lon="4.57412">
        <ele>662.97</ele>
        <time>2017-07-16T13:47:03Z</time>
      </trkpt>
      <trkpt lat="45.15431" lon="4.57411">
        <ele>662.97</ele>
        <time>2017-07-16T13:47:05Z</time>
      </trkpt>
      <trkpt lat="45.15426" lon="4.57413">
        <ele>663.93</ele>
        <time>2017-07-16T13:47:10Z</time>
      </trkpt>
      <trkpt lat="45.15415" lon="4.57421">
        <ele>665.37</ele>
        <time>2017-07-16T13:47:24Z</time>
      </trkpt>
      <trkpt lat="45.15406" lon="4.57423">
        <ele>665.37</ele>
        <time>2017-07-16T13:47:37Z</time>
      </trkpt>
      <trkpt lat="45.15404" lon="4.57421">
        <ele>664.41</ele>
        <time>2017-07-16T13:48:07Z</time>
      </trkpt>
      <trkpt lat="45.15404" lon="4.57419">
        <ele>664.89</ele>
        <time>2017-07-16T13:48:18Z</time>
      </trkpt>
      <trkpt lat="45.15404" lon="4.57419">
        <ele>664.89</ele>
        <time>2017-07-16T13:48:41Z</time>
      </trkpt>
      <trkpt lat="45.15403" lon="4.57417">
        <ele>665.37</ele>
        <time>2017-07-16T13:49:07Z</time>
      </trkpt>
      <trkpt lat="45.15396" lon="4.57404">
        <ele>668.73</ele>
        <time>2017-07-16T13:49:19Z</time>
      </trkpt>
      <trkpt lat="45.15395" lon="4.574">
        <ele>669.7</ele>
        <time>2017-07-16T13:49:32Z</time>
      </trkpt>
      <trkpt lat="45.15384" lon="4.57378">
        <ele>672.1</ele>
        <time>2017-07-16T13:49:51Z</time>
      </trkpt>
      <trkpt lat="45.15372" lon="4.57363">
        <ele>675.46</ele>
        <time>2017-07-16T13:50:10Z</time>
      </trkpt>
      <trkpt lat="45.15369" lon="4.57356">
        <ele>678.35</ele>
        <time>2017-07-16T13:50:24Z</time>
      </trkpt>
      <trkpt lat="45.15363" lon="4.57349">
        <ele>680.27</ele>
        <time>2017-07-16T13:50:34Z</time>
      </trkpt>
      <trkpt lat="45.15361" lon="4.57345">
        <ele>679.79</ele>
        <time>2017-07-16T13:50:36Z</time>
      </trkpt>
      <trkpt lat="45.15347" lon="4.57321">
        <ele>682.19</ele>
        <time>2017-07-16T13:50:53Z</time>
      </trkpt>
      <trkpt lat="45.15336" lon="4.57298">
        <ele>687.96</ele>
        <time>2017-07-16T13:51:09Z</time>
      </trkpt>
      <trkpt lat="45.1533" lon="4.57288">
        <ele>690.36</ele>
        <time>2017-07-16T13:51:17Z</time>
      </trkpt>
      <trkpt lat="45.15321" lon="4.57273">
        <ele>692.29</ele>
        <time>2017-07-16T13:51:31Z</time>
      </trkpt>
      <trkpt lat="45.15322" lon="4.57274">
        <ele>691.81</ele>
        <time>2017-07-16T13:51:39Z</time>
      </trkpt>
      <trkpt lat="45.15321" lon="4.57274">
        <ele>692.77</ele>
        <time>2017-07-16T13:51:45Z</time>
      </trkpt>
      <trkpt lat="45.15307" lon="4.57278">
        <ele>694.69</ele>
        <time>2017-07-16T13:51:58Z</time>
      </trkpt>
      <trkpt lat="45.15291" lon="4.57288">
        <ele>697.57</ele>
        <time>2017-07-16T13:52:13Z</time>
      </trkpt>
      <trkpt lat="45.15283" lon="4.57292">
        <ele>699.02</ele>
        <time>2017-07-16T13:52:22Z</time>
      </trkpt>
      <trkpt lat="45.15276" lon="4.57289">
        <ele>699.5</ele>
        <time>2017-07-16T13:52:28Z</time>
      </trkpt>
      <trkpt lat="45.15274" lon="4.57289">
        <ele>699.98</ele>
        <time>2017-07-16T13:52:30Z</time>
      </trkpt>
      <trkpt lat="45.15271" lon="4.57285">
        <ele>700.94</ele>
        <time>2017-07-16T13:52:34Z</time>
      </trkpt>
      <trkpt lat="45.15256" lon="4.57273">
        <ele>702.38</ele>
        <time>2017-07-16T13:52:50Z</time>
      </trkpt>
      <trkpt lat="45.15245" lon="4.57264">
        <ele>704.3</ele>
        <time>2017-07-16T13:53:04Z</time>
      </trkpt>
      <trkpt lat="45.15233" lon="4.57254">
        <ele>706.71</ele>
        <time>2017-07-16T13:53:17Z</time>
      </trkpt>
      <trkpt lat="45.15228" lon="4.5725">
        <ele>709.11</ele>
        <time>2017-07-16T13:53:29Z</time>
      </trkpt>
      <trkpt lat="45.15225" lon="4.57246">
        <ele>711.99</ele>
        <time>2017-07-16T13:53:37Z</time>
      </trkpt>
      <trkpt lat="45.15215" lon="4.57226">
        <ele>714.4</ele>
        <time>2017-07-16T13:53:53Z</time>
      </trkpt>
      <trkpt lat="45.15205" lon="4.57207">
        <ele>716.32</ele>
        <time>2017-07-16T13:54:08Z</time>
      </trkpt>
      <trkpt lat="45.15202" lon="4.572">
        <ele>718.24</ele>
        <time>2017-07-16T13:54:23Z</time>
      </trkpt>
      <trkpt lat="45.15196" lon="4.57183">
        <ele>719.2</ele>
        <time>2017-07-16T13:54:36Z</time>
      </trkpt>
      <trkpt lat="45.15195" lon="4.57177">
        <ele>720.65</ele>
        <time>2017-07-16T13:54:41Z</time>
      </trkpt>
      <trkpt lat="45.15188" lon="4.57157">
        <ele>722.09</ele>
        <time>2017-07-16T13:54:54Z</time>
      </trkpt>
      <trkpt lat="45.15178" lon="4.57138">
        <ele>728.82</ele>
        <time>2017-07-16T13:55:10Z</time>
      </trkpt>
      <trkpt lat="45.15174" lon="4.5713">
        <ele>731.22</ele>
        <time>2017-07-16T13:55:16Z</time>
      </trkpt>
      <trkpt lat="45.15173" lon="4.57123">
        <ele>733.14</ele>
        <time>2017-07-16T13:55:21Z</time>
      </trkpt>
      <trkpt lat="45.15167" lon="4.57105">
        <ele>733.62</ele>
        <time>2017-07-16T13:55:36Z</time>
      </trkpt>
      <trkpt lat="45.15163" lon="4.57091">
        <ele>734.1</ele>
        <time>2017-07-16T13:55:48Z</time>
      </trkpt>
      <trkpt lat="45.15161" lon="4.57083">
        <ele>737.95</ele>
        <time>2017-07-16T13:55:54Z</time>
      </trkpt>
      <trkpt lat="45.15157" lon="4.57075">
        <ele>740.35</ele>
        <time>2017-07-16T13:56:02Z</time>
      </trkpt>
      <trkpt lat="45.15151" lon="4.57065">
        <ele>743.24</ele>
        <time>2017-07-16T13:56:11Z</time>
      </trkpt>
      <trkpt lat="45.1514" lon="4.5705">
        <ele>748.04</ele>
        <time>2017-07-16T13:56:26Z</time>
      </trkpt>
      <trkpt lat="45.15139" lon="4.57047">
        <ele>745.16</ele>
        <time>2017-07-16T13:56:41Z</time>
      </trkpt>
      <trkpt lat="45.1514" lon="4.57046">
        <ele>743.72</ele>
        <time>2017-07-16T13:57:03Z</time>
      </trkpt>
      <trkpt lat="45.15144" lon="4.57044">
        <ele>743.72</ele>
        <time>2017-07-16T13:57:38Z</time>
      </trkpt>
      <trkpt lat="45.15143" lon="4.57044">
        <ele>744.2</ele>
        <time>2017-07-16T13:58:17Z</time>
      </trkpt>
      <trkpt lat="45.15143" lon="4.57044">
        <ele>741.79</ele>
        <time>2017-07-16T13:58:53Z</time>
      </trkpt>
      <trkpt lat="45.15143" lon="4.57044">
        <ele>739.39</ele>
        <time>2017-07-16T13:59:24Z</time>
      </trkpt>
      <trkpt lat="45.15142" lon="4.57044">
        <ele>739.39</ele>
        <time>2017-07-16T13:59:38Z</time>
      </trkpt>
      <trkpt lat="45.15135" lon="4.57035">
        <ele>740.35</ele>
        <time>2017-07-16T13:59:50Z</time>
      </trkpt>
      <trkpt lat="45.15125" lon="4.57018">
        <ele>741.79</ele>
        <time>2017-07-16T14:00:04Z</time>
      </trkpt>
      <trkpt lat="45.15115" lon="4.56991">
        <ele>745.16</ele>
        <time>2017-07-16T14:00:22Z</time>
      </trkpt>
      <trkpt lat="45.15111" lon="4.56977">
        <ele>749</ele>
        <time>2017-07-16T14:00:34Z</time>
      </trkpt>
      <trkpt lat="45.15111" lon="4.56962">
        <ele>753.81</ele>
        <time>2017-07-16T14:00:45Z</time>
      </trkpt>
      <trkpt lat="45.1511" lon="4.56942">
        <ele>757.66</ele>
        <time>2017-07-16T14:00:59Z</time>
      </trkpt>
      <trkpt lat="45.15108" lon="4.5693">
        <ele>760.06</ele>
        <time>2017-07-16T14:01:07Z</time>
      </trkpt>
      <trkpt lat="45.15109" lon="4.5692">
        <ele>762.94</ele>
        <time>2017-07-16T14:01:14Z</time>
      </trkpt>
      <trkpt lat="45.15107" lon="4.56903">
        <ele>770.15</ele>
        <time>2017-07-16T14:01:28Z</time>
      </trkpt>
      <trkpt lat="45.15105" lon="4.56885">
        <ele>776.88</ele>
        <time>2017-07-16T14:01:42Z</time>
      </trkpt>
      <trkpt lat="45.15105" lon="4.56881">
        <ele>778.81</ele>
        <time>2017-07-16T14:01:45Z</time>
      </trkpt>
      <trkpt lat="45.15101" lon="4.56862">
        <ele>782.17</ele>
        <time>2017-07-16T14:02:00Z</time>
      </trkpt>
      <trkpt lat="45.15099" lon="4.56855">
        <ele>783.13</ele>
        <time>2017-07-16T14:02:06Z</time>
      </trkpt>
      <trkpt lat="45.15096" lon="4.56831">
        <ele>787.94</ele>
        <time>2017-07-16T14:02:22Z</time>
      </trkpt>
      <trkpt lat="45.15092" lon="4.56816">
        <ele>790.82</ele>
        <time>2017-07-16T14:02:35Z</time>
      </trkpt>
      <trkpt lat="45.15089" lon="4.56798">
        <ele>793.71</ele>
        <time>2017-07-16T14:02:47Z</time>
      </trkpt>
      <trkpt lat="45.15086" lon="4.56778">
        <ele>796.59</ele>
        <time>2017-07-16T14:03:01Z</time>
      </trkpt>
      <trkpt lat="45.15086" lon="4.56771">
        <ele>798.51</ele>
        <time>2017-07-16T14:03:06Z</time>
      </trkpt>
      <trkpt lat="45.15085" lon="4.56766">
        <ele>800.92</ele>
        <time>2017-07-16T14:03:10Z</time>
      </trkpt>
      <trkpt lat="45.15085" lon="4.56746">
        <ele>802.84</ele>
        <time>2017-07-16T14:03:24Z</time>
      </trkpt>
      <trkpt lat="45.15085" lon="4.5673">
        <ele>803.8</ele>
        <time>2017-07-16T14:03:37Z</time>
      </trkpt>
      <trkpt lat="45.15085" lon="4.56726">
        <ele>804.76</ele>
        <time>2017-07-16T14:03:51Z</time>
      </trkpt>
      <trkpt lat="45.15085" lon="4.56722">
        <ele>803.8</ele>
        <time>2017-07-16T14:04:05Z</time>
      </trkpt>
      <trkpt lat="45.15084" lon="4.56711">
        <ele>803.32</ele>
        <time>2017-07-16T14:04:22Z</time>
      </trkpt>
      <trkpt lat="45.15084" lon="4.56694">
        <ele>807.64</ele>
        <time>2017-07-16T14:04:36Z</time>
      </trkpt>
      <trkpt lat="45.15084" lon="4.56693">
        <ele>808.13</ele>
        <time>2017-07-16T14:04:37Z</time>
      </trkpt>
      <trkpt lat="45.1508" lon="4.56673">
        <ele>815.82</ele>
        <time>2017-07-16T14:04:52Z</time>
      </trkpt>
      <trkpt lat="45.15074" lon="4.56656">
        <ele>823.03</ele>
        <time>2017-07-16T14:05:05Z</time>
      </trkpt>
      <trkpt lat="45.15066" lon="4.56636">
        <ele>829.76</ele>
        <time>2017-07-16T14:05:20Z</time>
      </trkpt>
      <trkpt lat="45.1506" lon="4.56616">
        <ele>832.16</ele>
        <time>2017-07-16T14:05:34Z</time>
      </trkpt>
      <trkpt lat="45.15051" lon="4.56599">
        <ele>835.04</ele>
        <time>2017-07-16T14:05:47Z</time>
      </trkpt>
      <trkpt lat="45.15047" lon="4.56589">
        <ele>835.04</ele>
        <time>2017-07-16T14:05:54Z</time>
      </trkpt>
      <trkpt lat="45.15047" lon="4.56585">
        <ele>835.52</ele>
        <time>2017-07-16T14:05:56Z</time>
      </trkpt>
      <trkpt lat="45.15043" lon="4.56561">
        <ele>836</ele>
        <time>2017-07-16T14:06:12Z</time>
      </trkpt>
      <trkpt lat="45.15042" lon="4.56555">
        <ele>836.48</ele>
        <time>2017-07-16T14:06:16Z</time>
      </trkpt>
      <trkpt lat="45.15038" lon="4.56538">
        <ele>834.08</ele>
        <time>2017-07-16T14:06:28Z</time>
      </trkpt>
      <trkpt lat="45.15034" lon="4.56508">
        <ele>836.48</ele>
        <time>2017-07-16T14:06:47Z</time>
      </trkpt>
      <trkpt lat="45.15031" lon="4.56495">
        <ele>836.48</ele>
        <time>2017-07-16T14:06:56Z</time>
      </trkpt>
      <trkpt lat="45.15029" lon="4.56471">
        <ele>837.45</ele>
        <time>2017-07-16T14:07:11Z</time>
      </trkpt>
      <trkpt lat="45.1503" lon="4.56451">
        <ele>838.41</ele>
        <time>2017-07-16T14:07:25Z</time>
      </trkpt>
      <trkpt lat="45.1503" lon="4.56441">
        <ele>838.89</ele>
        <time>2017-07-16T14:07:33Z</time>
      </trkpt>
      <trkpt lat="45.15029" lon="4.56431">
        <ele>838.41</ele>
        <time>2017-07-16T14:07:39Z</time>
      </trkpt>
      <trkpt lat="45.15025" lon="4.5641">
        <ele>838.89</ele>
        <time>2017-07-16T14:07:53Z</time>
      </trkpt>
      <trkpt lat="45.15019" lon="4.56394">
        <ele>844.66</ele>
        <time>2017-07-16T14:08:07Z</time>
      </trkpt>
      <trkpt lat="45.1501" lon="4.56377">
        <ele>850.42</ele>
        <time>2017-07-16T14:08:22Z</time>
      </trkpt>
      <trkpt lat="45.15001" lon="4.56356">
        <ele>851.38</ele>
        <time>2017-07-16T14:08:37Z</time>
      </trkpt>
      <trkpt lat="45.14998" lon="4.56344">
        <ele>849.46</ele>
        <time>2017-07-16T14:08:48Z</time>
      </trkpt>
      <trkpt lat="45.14994" lon="4.56334">
        <ele>849.94</ele>
        <time>2017-07-16T14:08:56Z</time>
      </trkpt>
      <trkpt lat="45.14988" lon="4.5631">
        <ele>847.54</ele>
        <time>2017-07-16T14:09:11Z</time>
      </trkpt>
      <trkpt lat="45.14985" lon="4.56287">
        <ele>848.5</ele>
        <time>2017-07-16T14:09:25Z</time>
      </trkpt>
      <trkpt lat="45.14983" lon="4.56277">
        <ele>848.02</ele>
        <time>2017-07-16T14:09:31Z</time>
      </trkpt>
      <trkpt lat="45.14978" lon="4.5626">
        <ele>846.1</ele>
        <time>2017-07-16T14:09:41Z</time>
      </trkpt>
      <trkpt lat="45.14973" lon="4.56241">
        <ele>848.5</ele>
        <time>2017-07-16T14:09:53Z</time>
      </trkpt>
      <trkpt lat="45.14972" lon="4.56231">
        <ele>849.94</ele>
        <time>2017-07-16T14:09:59Z</time>
      </trkpt>
      <trkpt lat="45.14982" lon="4.56226">
        <ele>849.46</ele>
        <time>2017-07-16T14:10:13Z</time>
      </trkpt>
      <trkpt lat="45.14987" lon="4.56226">
        <ele>849.46</ele>
        <time>2017-07-16T14:10:20Z</time>
      </trkpt>
      <trkpt lat="45.14997" lon="4.56234">
        <ele>850.42</ele>
        <time>2017-07-16T14:10:32Z</time>
      </trkpt>
      <trkpt lat="45.15008" lon="4.56243">
        <ele>851.38</ele>
        <time>2017-07-16T14:10:47Z</time>
      </trkpt>
      <trkpt lat="45.15016" lon="4.56253">
        <ele>850.42</ele>
        <time>2017-07-16T14:10:59Z</time>
      </trkpt>
      <trkpt lat="45.15017" lon="4.56255">
        <ele>850.9</ele>
        <time>2017-07-16T14:11:11Z</time>
      </trkpt>
      <trkpt lat="45.15018" lon="4.56257">
        <ele>850.42</ele>
        <time>2017-07-16T14:11:13Z</time>
      </trkpt>
      <trkpt lat="45.15026" lon="4.56277">
        <ele>849.94</ele>
        <time>2017-07-16T14:11:26Z</time>
      </trkpt>
      <trkpt lat="45.15033" lon="4.56289">
        <ele>848.98</ele>
        <time>2017-07-16T14:11:34Z</time>
      </trkpt>
      <trkpt lat="45.15042" lon="4.56308">
        <ele>848.98</ele>
        <time>2017-07-16T14:11:44Z</time>
      </trkpt>
      <trkpt lat="45.15057" lon="4.56329">
        <ele>849.46</ele>
        <time>2017-07-16T14:11:58Z</time>
      </trkpt>
      <trkpt lat="45.15075" lon="4.56339">
        <ele>850.9</ele>
        <time>2017-07-16T14:12:14Z</time>
      </trkpt>
      <trkpt lat="45.1509" lon="4.56338">
        <ele>852.83</ele>
        <time>2017-07-16T14:12:28Z</time>
      </trkpt>
      <trkpt lat="45.15096" lon="4.56337">
        <ele>855.23</ele>
        <time>2017-07-16T14:12:34Z</time>
      </trkpt>
      <trkpt lat="45.15101" lon="4.56333">
        <ele>855.71</ele>
        <time>2017-07-16T14:12:38Z</time>
      </trkpt>
      <trkpt lat="45.15112" lon="4.5632">
        <ele>859.08</ele>
        <time>2017-07-16T14:12:50Z</time>
      </trkpt>
      <trkpt lat="45.15112" lon="4.56311">
        <ele>861</ele>
        <time>2017-07-16T14:12:56Z</time>
      </trkpt>
      <trkpt lat="45.15107" lon="4.56296">
        <ele>864.36</ele>
        <time>2017-07-16T14:13:11Z</time>
      </trkpt>
      <trkpt lat="45.15101" lon="4.56272">
        <ele>870.13</ele>
        <time>2017-07-16T14:13:29Z</time>
      </trkpt>
      <trkpt lat="45.15096" lon="4.56258">
        <ele>872.53</ele>
        <time>2017-07-16T14:13:41Z</time>
      </trkpt>
      <trkpt lat="45.15091" lon="4.56234">
        <ele>874.94</ele>
        <time>2017-07-16T14:13:56Z</time>
      </trkpt>
      <trkpt lat="45.15086" lon="4.56207">
        <ele>881.19</ele>
        <time>2017-07-16T14:14:13Z</time>
      </trkpt>
      <trkpt lat="45.15084" lon="4.56183">
        <ele>880.71</ele>
        <time>2017-07-16T14:14:27Z</time>
      </trkpt>
      <trkpt lat="45.15079" lon="4.56161">
        <ele>881.19</ele>
        <time>2017-07-16T14:14:42Z</time>
      </trkpt>
      <trkpt lat="45.15076" lon="4.56146">
        <ele>883.11</ele>
        <time>2017-07-16T14:14:51Z</time>
      </trkpt>
      <trkpt lat="45.1506" lon="4.56128">
        <ele>885.03</ele>
        <time>2017-07-16T14:15:08Z</time>
      </trkpt>
      <trkpt lat="45.15047" lon="4.56108">
        <ele>883.11</ele>
        <time>2017-07-16T14:15:23Z</time>
      </trkpt>
      <trkpt lat="45.15038" lon="4.56085">
        <ele>881.19</ele>
        <time>2017-07-16T14:15:40Z</time>
      </trkpt>
      <trkpt lat="45.15036" lon="4.56063">
        <ele>884.07</ele>
        <time>2017-07-16T14:15:54Z</time>
      </trkpt>
      <trkpt lat="45.15036" lon="4.56054">
        <ele>885.51</ele>
        <time>2017-07-16T14:15:59Z</time>
      </trkpt>
      <trkpt lat="45.15042" lon="4.56028">
        <ele>889.36</ele>
        <time>2017-07-16T14:16:16Z</time>
      </trkpt>
      <trkpt lat="45.15044" lon="4.56009">
        <ele>893.2</ele>
        <time>2017-07-16T14:16:27Z</time>
      </trkpt>
      <trkpt lat="45.1504" lon="4.55985">
        <ele>896.09</ele>
        <time>2017-07-16T14:16:42Z</time>
      </trkpt>
      <trkpt lat="45.15039" lon="4.55957">
        <ele>900.41</ele>
        <time>2017-07-16T14:16:58Z</time>
      </trkpt>
      <trkpt lat="45.15037" lon="4.55933">
        <ele>902.82</ele>
        <time>2017-07-16T14:17:12Z</time>
      </trkpt>
      <trkpt lat="45.15039" lon="4.55906">
        <ele>904.26</ele>
        <time>2017-07-16T14:17:30Z</time>
      </trkpt>
      <trkpt lat="45.1504" lon="4.55888">
        <ele>904.26</ele>
        <time>2017-07-16T14:17:41Z</time>
      </trkpt>
      <trkpt lat="45.15034" lon="4.55878">
        <ele>902.33</ele>
        <time>2017-07-16T14:17:49Z</time>
      </trkpt>
      <trkpt lat="45.15029" lon="4.55877">
        <ele>901.37</ele>
        <time>2017-07-16T14:17:54Z</time>
      </trkpt>
      <trkpt lat="45.15017" lon="4.55897">
        <ele>903.3</ele>
        <time>2017-07-16T14:18:11Z</time>
      </trkpt>
      <trkpt lat="45.15002" lon="4.55917">
        <ele>903.78</ele>
        <time>2017-07-16T14:18:28Z</time>
      </trkpt>
      <trkpt lat="45.14999" lon="4.55921">
        <ele>904.26</ele>
        <time>2017-07-16T14:18:32Z</time>
      </trkpt>
      <trkpt lat="45.14979" lon="4.55926">
        <ele>906.18</ele>
        <time>2017-07-16T14:18:51Z</time>
      </trkpt>
      <trkpt lat="45.14965" lon="4.55925">
        <ele>906.66</ele>
        <time>2017-07-16T14:19:04Z</time>
      </trkpt>
      <trkpt lat="45.14948" lon="4.55922">
        <ele>907.62</ele>
        <time>2017-07-16T14:19:20Z</time>
      </trkpt>
      <trkpt lat="45.14933" lon="4.55914">
        <ele>908.58</ele>
        <time>2017-07-16T14:19:33Z</time>
      </trkpt>
      <trkpt lat="45.14927" lon="4.55911">
        <ele>910.03</ele>
        <time>2017-07-16T14:19:38Z</time>
      </trkpt>
      <trkpt lat="45.14916" lon="4.55904">
        <ele>913.87</ele>
        <time>2017-07-16T14:19:54Z</time>
      </trkpt>
      <trkpt lat="45.14905" lon="4.55889">
        <ele>914.35</ele>
        <time>2017-07-16T14:20:07Z</time>
      </trkpt>
      <trkpt lat="45.14892" lon="4.55864">
        <ele>917.72</ele>
        <time>2017-07-16T14:20:24Z</time>
      </trkpt>
      <trkpt lat="45.14886" lon="4.55846">
        <ele>915.31</ele>
        <time>2017-07-16T14:20:35Z</time>
      </trkpt>
      <trkpt lat="45.14883" lon="4.55826">
        <ele>906.66</ele>
        <time>2017-07-16T14:20:52Z</time>
      </trkpt>
      <trkpt lat="45.14875" lon="4.55796">
        <ele>900.41</ele>
        <time>2017-07-16T14:21:09Z</time>
      </trkpt>
      <trkpt lat="45.14872" lon="4.55788">
        <ele>901.37</ele>
        <time>2017-07-16T14:21:25Z</time>
      </trkpt>
      <trkpt lat="45.14871" lon="4.55787">
        <ele>903.78</ele>
        <time>2017-07-16T14:21:45Z</time>
      </trkpt>
      <trkpt lat="45.14872" lon="4.55784">
        <ele>906.66</ele>
        <time>2017-07-16T14:22:02Z</time>
      </trkpt>
      <trkpt lat="45.14872" lon="4.55782">
        <ele>907.14</ele>
        <time>2017-07-16T14:22:17Z</time>
      </trkpt>
      <trkpt lat="45.14872" lon="4.55782">
        <ele>908.1</ele>
        <time>2017-07-16T14:22:28Z</time>
      </trkpt>
      <trkpt lat="45.14872" lon="4.55782">
        <ele>908.1</ele>
        <time>2017-07-16T14:22:36Z</time>
      </trkpt>
      <trkpt lat="45.14872" lon="4.55783">
        <ele>910.99</ele>
        <time>2017-07-16T14:22:57Z</time>
      </trkpt>
      <trkpt lat="45.14868" lon="4.55776">
        <ele>912.43</ele>
        <time>2017-07-16T14:23:12Z</time>
      </trkpt>
      <trkpt lat="45.14854" lon="4.55742">
        <ele>916.75</ele>
        <time>2017-07-16T14:23:33Z</time>
      </trkpt>
      <trkpt lat="45.14849" lon="4.55732">
        <ele>919.16</ele>
        <time>2017-07-16T14:23:40Z</time>
      </trkpt>
      <trkpt lat="45.14839" lon="4.55707">
        <ele>922.04</ele>
        <time>2017-07-16T14:23:56Z</time>
      </trkpt>
      <trkpt lat="45.14835" lon="4.55698">
        <ele>922.52</ele>
        <time>2017-07-16T14:24:02Z</time>
      </trkpt>
      <trkpt lat="45.14832" lon="4.55694">
        <ele>923</ele>
        <time>2017-07-16T14:24:05Z</time>
      </trkpt>
      <trkpt lat="45.14819" lon="4.55676">
        <ele>924.45</ele>
        <time>2017-07-16T14:24:20Z</time>
      </trkpt>
      <trkpt lat="45.14809" lon="4.55657">
        <ele>926.37</ele>
        <time>2017-07-16T14:24:34Z</time>
      </trkpt>
      <trkpt lat="45.14799" lon="4.55632">
        <ele>927.81</ele>
        <time>2017-07-16T14:24:50Z</time>
      </trkpt>
      <trkpt lat="45.14792" lon="4.55608">
        <ele>926.85</ele>
        <time>2017-07-16T14:25:04Z</time>
      </trkpt>
      <trkpt lat="45.14785" lon="4.55587">
        <ele>923.96</ele>
        <time>2017-07-16T14:25:18Z</time>
      </trkpt>
      <trkpt lat="45.14777" lon="4.55569">
        <ele>923.96</ele>
        <time>2017-07-16T14:25:32Z</time>
      </trkpt>
      <trkpt lat="45.14773" lon="4.5556">
        <ele>924.93</ele>
        <time>2017-07-16T14:25:37Z</time>
      </trkpt>
      <trkpt lat="45.1477" lon="4.55549">
        <ele>925.89</ele>
        <time>2017-07-16T14:25:44Z</time>
      </trkpt>
      <trkpt lat="45.14761" lon="4.55516">
        <ele>928.77</ele>
        <time>2017-07-16T14:26:00Z</time>
      </trkpt>
      <trkpt lat="45.1475" lon="4.55489">
        <ele>926.37</ele>
        <time>2017-07-16T14:26:17Z</time>
      </trkpt>
      <trkpt lat="45.14741" lon="4.55466">
        <ele>929.25</ele>
        <time>2017-07-16T14:26:31Z</time>
      </trkpt>
      <trkpt lat="45.14736" lon="4.55454">
        <ele>929.73</ele>
        <time>2017-07-16T14:26:39Z</time>
      </trkpt>
      <trkpt lat="45.14725" lon="4.55435">
        <ele>931.17</ele>
        <time>2017-07-16T14:26:56Z</time>
      </trkpt>
      <trkpt lat="45.14716" lon="4.55415">
        <ele>933.58</ele>
        <time>2017-07-16T14:27:12Z</time>
      </trkpt>
      <trkpt lat="45.14707" lon="4.55387">
        <ele>936.46</ele>
        <time>2017-07-16T14:27:27Z</time>
      </trkpt>
      <trkpt lat="45.14692" lon="4.55354">
        <ele>937.42</ele>
        <time>2017-07-16T14:27:48Z</time>
      </trkpt>
      <trkpt lat="45.14673" lon="4.55337">
        <ele>938.38</ele>
        <time>2017-07-16T14:28:07Z</time>
      </trkpt>
      <trkpt lat="45.14672" lon="4.55336">
        <ele>938.38</ele>
        <time>2017-07-16T14:28:08Z</time>
      </trkpt>
      <trkpt lat="45.14658" lon="4.55341">
        <ele>938.86</ele>
        <time>2017-07-16T14:28:25Z</time>
      </trkpt>
      <trkpt lat="45.1465" lon="4.55345">
        <ele>938.86</ele>
        <time>2017-07-16T14:28:36Z</time>
      </trkpt>
      <trkpt lat="45.14643" lon="4.55348">
        <ele>940.31</ele>
        <time>2017-07-16T14:28:47Z</time>
      </trkpt>
      <trkpt lat="45.14639" lon="4.55349">
        <ele>941.27</ele>
        <time>2017-07-16T14:28:51Z</time>
      </trkpt>
      <trkpt lat="45.14619" lon="4.55355">
        <ele>942.23</ele>
        <time>2017-07-16T14:29:07Z</time>
      </trkpt>
      <trkpt lat="45.14601" lon="4.55362">
        <ele>945.59</ele>
        <time>2017-07-16T14:29:25Z</time>
      </trkpt>
      <trkpt lat="45.14585" lon="4.55366">
        <ele>948.96</ele>
        <time>2017-07-16T14:29:41Z</time>
      </trkpt>
      <trkpt lat="45.14579" lon="4.55366">
        <ele>949.44</ele>
        <time>2017-07-16T14:29:46Z</time>
      </trkpt>
      <trkpt lat="45.14558" lon="4.55369">
        <ele>950.4</ele>
        <time>2017-07-16T14:30:04Z</time>
      </trkpt>
      <trkpt lat="45.14543" lon="4.55369">
        <ele>954.25</ele>
        <time>2017-07-16T14:30:19Z</time>
      </trkpt>
      <trkpt lat="45.14531" lon="4.55369">
        <ele>956.17</ele>
        <time>2017-07-16T14:30:29Z</time>
      </trkpt>
      <trkpt lat="45.14515" lon="4.5537">
        <ele>959.53</ele>
        <time>2017-07-16T14:30:43Z</time>
      </trkpt>
      <trkpt lat="45.14495" lon="4.55373">
        <ele>962.9</ele>
        <time>2017-07-16T14:30:57Z</time>
      </trkpt>
      <trkpt lat="45.14478" lon="4.55373">
        <ele>964.82</ele>
        <time>2017-07-16T14:31:11Z</time>
      </trkpt>
      <trkpt lat="45.14461" lon="4.55377">
        <ele>970.11</ele>
        <time>2017-07-16T14:31:27Z</time>
      </trkpt>
      <trkpt lat="45.14443" lon="4.55374">
        <ele>973.47</ele>
        <time>2017-07-16T14:31:42Z</time>
      </trkpt>
      <trkpt lat="45.14425" lon="4.55368">
        <ele>974.91</ele>
        <time>2017-07-16T14:31:54Z</time>
      </trkpt>
      <trkpt lat="45.14402" lon="4.55359">
        <ele>977.8</ele>
        <time>2017-07-16T14:32:09Z</time>
      </trkpt>
      <trkpt lat="45.14392" lon="4.55351">
        <ele>978.28</ele>
        <time>2017-07-16T14:32:16Z</time>
      </trkpt>
      <trkpt lat="45.14374" lon="4.55331">
        <ele>977.32</ele>
        <time>2017-07-16T14:32:32Z</time>
      </trkpt>
      <trkpt lat="45.1437" lon="4.55327">
        <ele>977.8</ele>
        <time>2017-07-16T14:32:36Z</time>
      </trkpt>
      <trkpt lat="45.14366" lon="4.55321">
        <ele>978.28</ele>
        <time>2017-07-16T14:32:40Z</time>
      </trkpt>
      <trkpt lat="45.14352" lon="4.55298">
        <ele>979.24</ele>
        <time>2017-07-16T14:32:55Z</time>
      </trkpt>
      <trkpt lat="45.14341" lon="4.55279">
        <ele>981.16</ele>
        <time>2017-07-16T14:33:10Z</time>
      </trkpt>
      <trkpt lat="45.14331" lon="4.55269">
        <ele>982.6</ele>
        <time>2017-07-16T14:33:20Z</time>
      </trkpt>
      <trkpt lat="45.14327" lon="4.55265">
        <ele>984.05</ele>
        <time>2017-07-16T14:33:24Z</time>
      </trkpt>
      <trkpt lat="45.14312" lon="4.55251">
        <ele>988.85</ele>
        <time>2017-07-16T14:33:40Z</time>
      </trkpt>
      <trkpt lat="45.14304" lon="4.55241">
        <ele>990.3</ele>
        <time>2017-07-16T14:33:54Z</time>
      </trkpt>
      <trkpt lat="45.14304" lon="4.55239">
        <ele>990.3</ele>
        <time>2017-07-16T14:34:16Z</time>
      </trkpt>
      <trkpt lat="45.14292" lon="4.55235">
        <ele>991.74</ele>
        <time>2017-07-16T14:34:29Z</time>
      </trkpt>
      <trkpt lat="45.1428" lon="4.5523">
        <ele>995.1</ele>
        <time>2017-07-16T14:34:37Z</time>
      </trkpt>
      <trkpt lat="45.14274" lon="4.55228">
        <ele>997.02</ele>
        <time>2017-07-16T14:34:41Z</time>
      </trkpt>
      <trkpt lat="45.14268" lon="4.55224">
        <ele>997.51</ele>
        <time>2017-07-16T14:34:46Z</time>
      </trkpt>
      <trkpt lat="45.14246" lon="4.55215">
        <ele>1000.39</ele>
        <time>2017-07-16T14:35:02Z</time>
      </trkpt>
      <trkpt lat="45.14232" lon="4.55207">
        <ele>1000.87</ele>
        <time>2017-07-16T14:35:12Z</time>
      </trkpt>
      <trkpt lat="45.14228" lon="4.552">
        <ele>1000.39</ele>
        <time>2017-07-16T14:35:16Z</time>
      </trkpt>
      <trkpt lat="45.14211" lon="4.55175">
        <ele>998.95</ele>
        <time>2017-07-16T14:35:31Z</time>
      </trkpt>
      <trkpt lat="45.14194" lon="4.55165">
        <ele>998.95</ele>
        <time>2017-07-16T14:35:47Z</time>
      </trkpt>
      <trkpt lat="45.1418" lon="4.55159">
        <ele>998.47</ele>
        <time>2017-07-16T14:36:01Z</time>
      </trkpt>
      <trkpt lat="45.14174" lon="4.55156">
        <ele>998.95</ele>
        <time>2017-07-16T14:36:16Z</time>
      </trkpt>
      <trkpt lat="45.14168" lon="4.55153">
        <ele>1000.39</ele>
        <time>2017-07-16T14:36:39Z</time>
      </trkpt>
      <trkpt lat="45.14164" lon="4.55149">
        <ele>1001.35</ele>
        <time>2017-07-16T14:36:45Z</time>
      </trkpt>
      <trkpt lat="45.14151" lon="4.55141">
        <ele>1005.2</ele>
        <time>2017-07-16T14:37:00Z</time>
      </trkpt>
      <trkpt lat="45.14139" lon="4.55127">
        <ele>1009.52</ele>
        <time>2017-07-16T14:37:14Z</time>
      </trkpt>
      <trkpt lat="45.14126" lon="4.55111">
        <ele>1011.93</ele>
        <time>2017-07-16T14:37:28Z</time>
      </trkpt>
      <trkpt lat="45.14114" lon="4.55105">
        <ele>1016.25</ele>
        <time>2017-07-16T14:37:43Z</time>
      </trkpt>
      <trkpt lat="45.14114" lon="4.55105">
        <ele>1016.73</ele>
        <time>2017-07-16T14:37:44Z</time>
      </trkpt>
      <trkpt lat="45.14112" lon="4.55108">
        <ele>1017.69</ele>
        <time>2017-07-16T14:37:46Z</time>
      </trkpt>
      <trkpt lat="45.141" lon="4.55125">
        <ele>1021.54</ele>
        <time>2017-07-16T14:38:01Z</time>
      </trkpt>
      <trkpt lat="45.14093" lon="4.55124">
        <ele>1024.42</ele>
        <time>2017-07-16T14:38:18Z</time>
      </trkpt>
      <trkpt lat="45.14088" lon="4.55125">
        <ele>1025.38</ele>
        <time>2017-07-16T14:38:23Z</time>
      </trkpt>
      <trkpt lat="45.14086" lon="4.55123">
        <ele>1026.34</ele>
        <time>2017-07-16T14:38:26Z</time>
      </trkpt>
      <trkpt lat="45.14077" lon="4.55112">
        <ele>1029.71</ele>
        <time>2017-07-16T14:38:41Z</time>
      </trkpt>
      <trkpt lat="45.14077" lon="4.55113">
        <ele>1029.23</ele>
        <time>2017-07-16T14:38:57Z</time>
      </trkpt>
      <trkpt lat="45.14061" lon="4.55099">
        <ele>1029.71</ele>
        <time>2017-07-16T14:39:12Z</time>
      </trkpt>
      <trkpt lat="45.14058" lon="4.55097">
        <ele>1029.23</ele>
        <time>2017-07-16T14:39:15Z</time>
      </trkpt>
      <trkpt lat="45.14043" lon="4.55087">
        <ele>1029.71</ele>
        <time>2017-07-16T14:39:31Z</time>
      </trkpt>
      <trkpt lat="45.14031" lon="4.55077">
        <ele>1031.63</ele>
        <time>2017-07-16T14:39:45Z</time>
      </trkpt>
      <trkpt lat="45.14019" lon="4.55065">
        <ele>1034.52</ele>
        <time>2017-07-16T14:39:59Z</time>
      </trkpt>
      <trkpt lat="45.14001" lon="4.55051">
        <ele>1037.88</ele>
        <time>2017-07-16T14:40:14Z</time>
      </trkpt>
      <trkpt lat="45.13988" lon="4.5504">
        <ele>1041.25</ele>
        <time>2017-07-16T14:40:28Z</time>
      </trkpt>
      <trkpt lat="45.13972" lon="4.55024">
        <ele>1043.65</ele>
        <time>2017-07-16T14:40:43Z</time>
      </trkpt>
      <trkpt lat="45.13955" lon="4.55005">
        <ele>1048.45</ele>
        <time>2017-07-16T14:40:59Z</time>
      </trkpt>
      <trkpt lat="45.13945" lon="4.54989">
        <ele>1050.86</ele>
        <time>2017-07-16T14:41:13Z</time>
      </trkpt>
      <trkpt lat="45.13936" lon="4.54975">
        <ele>1054.22</ele>
        <time>2017-07-16T14:41:28Z</time>
      </trkpt>
      <trkpt lat="45.13931" lon="4.54968">
        <ele>1054.7</ele>
        <time>2017-07-16T14:41:44Z</time>
      </trkpt>
      <trkpt lat="45.13918" lon="4.54953">
        <ele>1055.67</ele>
        <time>2017-07-16T14:41:57Z</time>
      </trkpt>
      <trkpt lat="45.13901" lon="4.5493">
        <ele>1057.11</ele>
        <time>2017-07-16T14:42:13Z</time>
      </trkpt>
      <trkpt lat="45.1389" lon="4.54913">
        <ele>1058.55</ele>
        <time>2017-07-16T14:42:28Z</time>
      </trkpt>
      <trkpt lat="45.13879" lon="4.54899">
        <ele>1058.07</ele>
        <time>2017-07-16T14:42:46Z</time>
      </trkpt>
      <trkpt lat="45.13878" lon="4.54896">
        <ele>1056.63</ele>
        <time>2017-07-16T14:43:05Z</time>
      </trkpt>
      <trkpt lat="45.13865" lon="4.54874">
        <ele>1057.59</ele>
        <time>2017-07-16T14:43:23Z</time>
      </trkpt>
      <trkpt lat="45.13852" lon="4.54844">
        <ele>1055.18</ele>
        <time>2017-07-16T14:43:41Z</time>
      </trkpt>
      <trkpt lat="45.13846" lon="4.54823">
        <ele>1053.74</ele>
        <time>2017-07-16T14:43:54Z</time>
      </trkpt>
      <trkpt lat="45.13836" lon="4.54799">
        <ele>1052.78</ele>
        <time>2017-07-16T14:44:11Z</time>
      </trkpt>
      <trkpt lat="45.13826" lon="4.54784">
        <ele>1054.7</ele>
        <time>2017-07-16T14:44:26Z</time>
      </trkpt>
      <trkpt lat="45.13815" lon="4.5477">
        <ele>1055.67</ele>
        <time>2017-07-16T14:44:41Z</time>
      </trkpt>
      <trkpt lat="45.13805" lon="4.54755">
        <ele>1055.18</ele>
        <time>2017-07-16T14:44:52Z</time>
      </trkpt>
      <trkpt lat="45.13795" lon="4.54737">
        <ele>1059.51</ele>
        <time>2017-07-16T14:45:08Z</time>
      </trkpt>
      <trkpt lat="45.13784" lon="4.54722">
        <ele>1061.91</ele>
        <time>2017-07-16T14:45:20Z</time>
      </trkpt>
      <trkpt lat="45.13767" lon="4.54696">
        <ele>1062.87</ele>
        <time>2017-07-16T14:45:38Z</time>
      </trkpt>
      <trkpt lat="45.13757" lon="4.54676">
        <ele>1063.84</ele>
        <time>2017-07-16T14:45:51Z</time>
      </trkpt>
      <trkpt lat="45.13749" lon="4.54665">
        <ele>1064.32</ele>
        <time>2017-07-16T14:46:05Z</time>
      </trkpt>
      <trkpt lat="45.1374" lon="4.5465">
        <ele>1063.84</ele>
        <time>2017-07-16T14:46:19Z</time>
      </trkpt>
      <trkpt lat="45.13732" lon="4.54637">
        <ele>1064.8</ele>
        <time>2017-07-16T14:46:30Z</time>
      </trkpt>
      <trkpt lat="45.13717" lon="4.54616">
        <ele>1063.36</ele>
        <time>2017-07-16T14:46:45Z</time>
      </trkpt>
      <trkpt lat="45.13702" lon="4.54599">
        <ele>1064.8</ele>
        <time>2017-07-16T14:46:59Z</time>
      </trkpt>
      <trkpt lat="45.13682" lon="4.54575">
        <ele>1064.32</ele>
        <time>2017-07-16T14:47:14Z</time>
      </trkpt>
      <trkpt lat="45.13667" lon="4.54561">
        <ele>1066.72</ele>
        <time>2017-07-16T14:47:29Z</time>
      </trkpt>
      <trkpt lat="45.13653" lon="4.54551">
        <ele>1066.24</ele>
        <time>2017-07-16T14:47:42Z</time>
      </trkpt>
      <trkpt lat="45.13644" lon="4.54536">
        <ele>1065.28</ele>
        <time>2017-07-16T14:47:50Z</time>
      </trkpt>
      <trkpt lat="45.13633" lon="4.54517">
        <ele>1066.72</ele>
        <time>2017-07-16T14:48:04Z</time>
      </trkpt>
      <trkpt lat="45.1362" lon="4.54502">
        <ele>1064.8</ele>
        <time>2017-07-16T14:48:18Z</time>
      </trkpt>
      <trkpt lat="45.13609" lon="4.54486">
        <ele>1065.76</ele>
        <time>2017-07-16T14:48:32Z</time>
      </trkpt>
      <trkpt lat="45.136" lon="4.54468">
        <ele>1067.68</ele>
        <time>2017-07-16T14:48:46Z</time>
      </trkpt>
      <trkpt lat="45.1359" lon="4.54449">
        <ele>1070.57</ele>
        <time>2017-07-16T14:48:59Z</time>
      </trkpt>
      <trkpt lat="45.13588" lon="4.54446">
        <ele>1071.05</ele>
        <time>2017-07-16T14:49:01Z</time>
      </trkpt>
      <trkpt lat="45.13567" lon="4.5443">
        <ele>1072.97</ele>
        <time>2017-07-16T14:49:18Z</time>
      </trkpt>
      <trkpt lat="45.13553" lon="4.54421">
        <ele>1073.45</ele>
        <time>2017-07-16T14:49:33Z</time>
      </trkpt>
      <trkpt lat="45.13541" lon="4.54413">
        <ele>1074.89</ele>
        <time>2017-07-16T14:49:47Z</time>
      </trkpt>
      <trkpt lat="45.13527" lon="4.54397">
        <ele>1078.74</ele>
        <time>2017-07-16T14:50:02Z</time>
      </trkpt>
      <trkpt lat="45.13515" lon="4.54383">
        <ele>1084.02</ele>
        <time>2017-07-16T14:50:17Z</time>
      </trkpt>
      <trkpt lat="45.13504" lon="4.54366">
        <ele>1089.31</ele>
        <time>2017-07-16T14:50:30Z</time>
      </trkpt>
      <trkpt lat="45.13496" lon="4.54346">
        <ele>1096.04</ele>
        <time>2017-07-16T14:50:43Z</time>
      </trkpt>
      <trkpt lat="45.13489" lon="4.54327">
        <ele>1097.96</ele>
        <time>2017-07-16T14:50:57Z</time>
      </trkpt>
      <trkpt lat="45.13477" lon="4.54315">
        <ele>1099.4</ele>
        <time>2017-07-16T14:51:13Z</time>
      </trkpt>
      <trkpt lat="45.13471" lon="4.54299">
        <ele>1102.29</ele>
        <time>2017-07-16T14:51:27Z</time>
      </trkpt>
      <trkpt lat="45.13464" lon="4.5428">
        <ele>1107.1</ele>
        <time>2017-07-16T14:51:41Z</time>
      </trkpt>
      <trkpt lat="45.13454" lon="4.54262">
        <ele>1111.42</ele>
        <time>2017-07-16T14:51:54Z</time>
      </trkpt>
      <trkpt lat="45.13444" lon="4.54236">
        <ele>1116.23</ele>
        <time>2017-07-16T14:52:09Z</time>
      </trkpt>
      <trkpt lat="45.1343" lon="4.54212">
        <ele>1118.15</ele>
        <time>2017-07-16T14:52:24Z</time>
      </trkpt>
      <trkpt lat="45.13422" lon="4.54195">
        <ele>1120.55</ele>
        <time>2017-07-16T14:52:37Z</time>
      </trkpt>
      <trkpt lat="45.1342" lon="4.54191">
        <ele>1121.52</ele>
        <time>2017-07-16T14:52:40Z</time>
      </trkpt>
      <trkpt lat="45.13413" lon="4.54169">
        <ele>1123.44</ele>
        <time>2017-07-16T14:52:53Z</time>
      </trkpt>
      <trkpt lat="45.13405" lon="4.54157">
        <ele>1126.8</ele>
        <time>2017-07-16T14:53:03Z</time>
      </trkpt>
      <trkpt lat="45.13403" lon="4.54153">
        <ele>1127.28</ele>
        <time>2017-07-16T14:53:06Z</time>
      </trkpt>
      <trkpt lat="45.13397" lon="4.54137">
        <ele>1132.57</ele>
        <time>2017-07-16T14:53:18Z</time>
      </trkpt>
      <trkpt lat="45.1339" lon="4.54125">
        <ele>1137.86</ele>
        <time>2017-07-16T14:53:28Z</time>
      </trkpt>
      <trkpt lat="45.13381" lon="4.54107">
        <ele>1142.18</ele>
        <time>2017-07-16T14:53:42Z</time>
      </trkpt>
      <trkpt lat="45.13367" lon="4.54089">
        <ele>1146.03</ele>
        <time>2017-07-16T14:53:57Z</time>
      </trkpt>
      <trkpt lat="45.13351" lon="4.54072">
        <ele>1149.87</ele>
        <time>2017-07-16T14:54:12Z</time>
      </trkpt>
      <trkpt lat="45.13337" lon="4.54057">
        <ele>1152.28</ele>
        <time>2017-07-16T14:54:26Z</time>
      </trkpt>
      <trkpt lat="45.1332" lon="4.54034">
        <ele>1147.95</ele>
        <time>2017-07-16T14:54:40Z</time>
      </trkpt>
      <trkpt lat="45.13311" lon="4.54024">
        <ele>1148.43</ele>
        <time>2017-07-16T14:54:53Z</time>
      </trkpt>
      <trkpt lat="45.13304" lon="4.54018">
        <ele>1148.91</ele>
        <time>2017-07-16T14:55:01Z</time>
      </trkpt>
      <trkpt lat="45.13288" lon="4.54007">
        <ele>1149.87</ele>
        <time>2017-07-16T14:55:16Z</time>
      </trkpt>
      <trkpt lat="45.13273" lon="4.53989">
        <ele>1149.87</ele>
        <time>2017-07-16T14:55:35Z</time>
      </trkpt>
      <trkpt lat="45.13268" lon="4.53981">
        <ele>1152.28</ele>
        <time>2017-07-16T14:55:49Z</time>
      </trkpt>
      <trkpt lat="45.13266" lon="4.53983">
        <ele>1149.87</ele>
        <time>2017-07-16T14:56:14Z</time>
      </trkpt>
      <trkpt lat="45.13266" lon="4.53983">
        <ele>1149.87</ele>
        <time>2017-07-16T14:56:32Z</time>
      </trkpt>
      <trkpt lat="45.13266" lon="4.53982">
        <ele>1150.84</ele>
        <time>2017-07-16T14:56:45Z</time>
      </trkpt>
      <trkpt lat="45.13267" lon="4.53978">
        <ele>1148.91</ele>
        <time>2017-07-16T14:57:06Z</time>
      </trkpt>
      <trkpt lat="45.13266" lon="4.53977">
        <ele>1149.87</ele>
        <time>2017-07-16T14:57:21Z</time>
      </trkpt>
      <trkpt lat="45.13266" lon="4.53975">
        <ele>1150.84</ele>
        <time>2017-07-16T14:57:43Z</time>
      </trkpt>
      <trkpt lat="45.13265" lon="4.53974">
        <ele>1150.84</ele>
        <time>2017-07-16T14:58:00Z</time>
      </trkpt>
      <trkpt lat="45.13265" lon="4.53973">
        <ele>1151.32</ele>
        <time>2017-07-16T14:58:27Z</time>
      </trkpt>
      <trkpt lat="45.13264" lon="4.53972">
        <ele>1151.32</ele>
        <time>2017-07-16T14:58:47Z</time>
      </trkpt>
      <trkpt lat="45.13264" lon="4.53968">
        <ele>1152.28</ele>
        <time>2017-07-16T14:58:51Z</time>
      </trkpt>
      <trkpt lat="45.13264" lon="4.53965">
        <ele>1153.72</ele>
        <time>2017-07-16T14:58:53Z</time>
      </trkpt>
      <trkpt lat="45.13262" lon="4.53961">
        <ele>1155.16</ele>
        <time>2017-07-16T14:58:56Z</time>
      </trkpt>
      <trkpt lat="45.13263" lon="4.53958">
        <ele>1156.6</ele>
        <time>2017-07-16T14:58:58Z</time>
      </trkpt>
      <trkpt lat="45.13261" lon="4.53937">
        <ele>1163.33</ele>
        <time>2017-07-16T14:59:13Z</time>
      </trkpt>
      <trkpt lat="45.13259" lon="4.53914">
        <ele>1167.18</ele>
        <time>2017-07-16T14:59:30Z</time>
      </trkpt>
      <trkpt lat="45.13261" lon="4.53895">
        <ele>1171.5</ele>
        <time>2017-07-16T14:59:43Z</time>
      </trkpt>
      <trkpt lat="45.13257" lon="4.53872">
        <ele>1175.35</ele>
        <time>2017-07-16T14:59:56Z</time>
      </trkpt>
      <trkpt lat="45.13255" lon="4.53857">
        <ele>1176.31</ele>
        <time>2017-07-16T15:00:04Z</time>
      </trkpt>
      <trkpt lat="45.13252" lon="4.53849">
        <ele>1175.83</ele>
        <time>2017-07-16T15:00:08Z</time>
      </trkpt>
      <trkpt lat="45.13251" lon="4.53845">
        <ele>1175.83</ele>
        <time>2017-07-16T15:00:10Z</time>
      </trkpt>
      <trkpt lat="45.13246" lon="4.53829">
        <ele>1174.39</ele>
        <time>2017-07-16T15:00:18Z</time>
      </trkpt>
      <trkpt lat="45.1324" lon="4.53808">
        <ele>1174.87</ele>
        <time>2017-07-16T15:00:33Z</time>
      </trkpt>
      <trkpt lat="45.13239" lon="4.53804">
        <ele>1175.35</ele>
        <time>2017-07-16T15:00:35Z</time>
      </trkpt>
      <trkpt lat="45.13228" lon="4.53777">
        <ele>1178.23</ele>
        <time>2017-07-16T15:00:51Z</time>
      </trkpt>
      <trkpt lat="45.13221" lon="4.53757">
        <ele>1178.71</ele>
        <time>2017-07-16T15:01:03Z</time>
      </trkpt>
      <trkpt lat="45.13218" lon="4.5375">
        <ele>1178.23</ele>
        <time>2017-07-16T15:01:06Z</time>
      </trkpt>
      <trkpt lat="45.13214" lon="4.53744">
        <ele>1178.23</ele>
        <time>2017-07-16T15:01:09Z</time>
      </trkpt>
      <trkpt lat="45.13206" lon="4.53724">
        <ele>1181.6</ele>
        <time>2017-07-16T15:01:23Z</time>
      </trkpt>
      <trkpt lat="45.13204" lon="4.53711">
        <ele>1185.92</ele>
        <time>2017-07-16T15:01:36Z</time>
      </trkpt>
      <trkpt lat="45.13197" lon="4.53687">
        <ele>1189.29</ele>
        <time>2017-07-16T15:01:51Z</time>
      </trkpt>
      <trkpt lat="45.13192" lon="4.53667">
        <ele>1191.69</ele>
        <time>2017-07-16T15:02:03Z</time>
      </trkpt>
      <trkpt lat="45.13187" lon="4.53653">
        <ele>1192.17</ele>
        <time>2017-07-16T15:02:15Z</time>
      </trkpt>
      <trkpt lat="45.13183" lon="4.53637">
        <ele>1195.06</ele>
        <time>2017-07-16T15:02:27Z</time>
      </trkpt>
      <trkpt lat="45.13174" lon="4.53619">
        <ele>1198.9</ele>
        <time>2017-07-16T15:02:37Z</time>
      </trkpt>
      <trkpt lat="45.13162" lon="4.53598">
        <ele>1201.3</ele>
        <time>2017-07-16T15:02:49Z</time>
      </trkpt>
      <trkpt lat="45.13149" lon="4.53571">
        <ele>1204.19</ele>
        <time>2017-07-16T15:03:06Z</time>
      </trkpt>
      <trkpt lat="45.13147" lon="4.53569">
        <ele>1205.15</ele>
        <time>2017-07-16T15:03:08Z</time>
      </trkpt>
      <trkpt lat="45.13135" lon="4.53568">
        <ele>1206.11</ele>
        <time>2017-07-16T15:03:14Z</time>
      </trkpt>
      <trkpt lat="45.1313" lon="4.53569">
        <ele>1206.59</ele>
        <time>2017-07-16T15:03:17Z</time>
      </trkpt>
      <trkpt lat="45.13123" lon="4.53569">
        <ele>1207.55</ele>
        <time>2017-07-16T15:03:21Z</time>
      </trkpt>
      <trkpt lat="45.13105" lon="4.5357">
        <ele>1212.84</ele>
        <time>2017-07-16T15:03:38Z</time>
      </trkpt>
      <trkpt lat="45.13099" lon="4.53569">
        <ele>1214.28</ele>
        <time>2017-07-16T15:03:42Z</time>
      </trkpt>
      <trkpt lat="45.13067" lon="4.53556">
        <ele>1211.4</ele>
        <time>2017-07-16T15:04:01Z</time>
      </trkpt>
      <trkpt lat="45.13053" lon="4.53549">
        <ele>1209.96</ele>
        <time>2017-07-16T15:04:15Z</time>
      </trkpt>
      <trkpt lat="45.13046" lon="4.53543">
        <ele>1201.3</ele>
        <time>2017-07-16T15:04:34Z</time>
      </trkpt>
      <trkpt lat="45.13046" lon="4.53542">
        <ele>1200.34</ele>
        <time>2017-07-16T15:04:45Z</time>
      </trkpt>
      <trkpt lat="45.13042" lon="4.53544">
        <ele>1200.82</ele>
        <time>2017-07-16T15:04:55Z</time>
      </trkpt>
      <trkpt lat="45.13034" lon="4.53544">
        <ele>1200.82</ele>
        <time>2017-07-16T15:05:05Z</time>
      </trkpt>
      <trkpt lat="45.13023" lon="4.53545">
        <ele>1198.9</ele>
        <time>2017-07-16T15:05:18Z</time>
      </trkpt>
      <trkpt lat="45.13008" lon="4.53544">
        <ele>1198.42</ele>
        <time>2017-07-16T15:05:32Z</time>
      </trkpt>
      <trkpt lat="45.12995" lon="4.53545">
        <ele>1200.34</ele>
        <time>2017-07-16T15:05:45Z</time>
      </trkpt>
      <trkpt lat="45.1298" lon="4.53545">
        <ele>1201.3</ele>
        <time>2017-07-16T15:05:57Z</time>
      </trkpt>
      <trkpt lat="45.1296" lon="4.53547">
        <ele>1205.63</ele>
        <time>2017-07-16T15:06:12Z</time>
      </trkpt>
      <trkpt lat="45.12953" lon="4.53545">
        <ele>1207.55</ele>
        <time>2017-07-16T15:06:27Z</time>
      </trkpt>
      <trkpt lat="45.12948" lon="4.53545">
        <ele>1208.03</ele>
        <time>2017-07-16T15:06:39Z</time>
      </trkpt>
      <trkpt lat="45.12947" lon="4.53543">
        <ele>1208.03</ele>
        <time>2017-07-16T15:06:46Z</time>
      </trkpt>
      <trkpt lat="45.12943" lon="4.53544">
        <ele>1208.03</ele>
        <time>2017-07-16T15:06:50Z</time>
      </trkpt>
      <trkpt lat="45.12933" lon="4.5355">
        <ele>1206.59</ele>
        <time>2017-07-16T15:07:02Z</time>
      </trkpt>
      <trkpt lat="45.12932" lon="4.53551">
        <ele>1206.59</ele>
        <time>2017-07-16T15:07:03Z</time>
      </trkpt>
      <trkpt lat="45.12908" lon="4.53546">
        <ele>1199.86</ele>
        <time>2017-07-16T15:07:19Z</time>
      </trkpt>
      <trkpt lat="45.129" lon="4.53545">
        <ele>1195.06</ele>
        <time>2017-07-16T15:07:25Z</time>
      </trkpt>
      <trkpt lat="45.12886" lon="4.53545">
        <ele>1188.81</ele>
        <time>2017-07-16T15:07:39Z</time>
      </trkpt>
      <trkpt lat="45.12883" lon="4.53546">
        <ele>1188.33</ele>
        <time>2017-07-16T15:07:42Z</time>
      </trkpt>
      <trkpt lat="45.12868" lon="4.5355">
        <ele>1185.44</ele>
        <time>2017-07-16T15:07:56Z</time>
      </trkpt>
      <trkpt lat="45.1286" lon="4.53556">
        <ele>1186.4</ele>
        <time>2017-07-16T15:08:06Z</time>
      </trkpt>
      <trkpt lat="45.12849" lon="4.53564">
        <ele>1189.29</ele>
        <time>2017-07-16T15:08:16Z</time>
      </trkpt>
      <trkpt lat="45.12834" lon="4.53575">
        <ele>1189.77</ele>
        <time>2017-07-16T15:08:29Z</time>
      </trkpt>
      <trkpt lat="45.12824" lon="4.53587">
        <ele>1187.37</ele>
        <time>2017-07-16T15:08:43Z</time>
      </trkpt>
      <trkpt lat="45.12809" lon="4.53596">
        <ele>1183.04</ele>
        <time>2017-07-16T15:08:58Z</time>
      </trkpt>
      <trkpt lat="45.12787" lon="4.53599">
        <ele>1177.27</ele>
        <time>2017-07-16T15:09:13Z</time>
      </trkpt>
      <trkpt lat="45.12767" lon="4.53609">
        <ele>1172.95</ele>
        <time>2017-07-16T15:09:26Z</time>
      </trkpt>
      <trkpt lat="45.12757" lon="4.53615">
        <ele>1170.54</ele>
        <time>2017-07-16T15:09:33Z</time>
      </trkpt>
      <trkpt lat="45.12747" lon="4.53619">
        <ele>1168.62</ele>
        <time>2017-07-16T15:09:44Z</time>
      </trkpt>
      <trkpt lat="45.12731" lon="4.53621">
        <ele>1167.18</ele>
        <time>2017-07-16T15:09:57Z</time>
      </trkpt>
      <trkpt lat="45.1273" lon="4.53621">
        <ele>1166.7</ele>
        <time>2017-07-16T15:09:58Z</time>
      </trkpt>
      <trkpt lat="45.12709" lon="4.53619">
        <ele>1162.37</ele>
        <time>2017-07-16T15:10:14Z</time>
      </trkpt>
      <trkpt lat="45.12694" lon="4.53619">
        <ele>1158.05</ele>
        <time>2017-07-16T15:10:32Z</time>
      </trkpt>
      <trkpt lat="45.12691" lon="4.53618">
        <ele>1157.08</ele>
        <time>2017-07-16T15:10:50Z</time>
      </trkpt>
      <trkpt lat="45.12686" lon="4.53618">
        <ele>1156.12</ele>
        <time>2017-07-16T15:11:01Z</time>
      </trkpt>
      <trkpt lat="45.1267" lon="4.5362">
        <ele>1149.39</ele>
        <time>2017-07-16T15:11:16Z</time>
      </trkpt>
      <trkpt lat="45.12647" lon="4.5362">
        <ele>1145.07</ele>
        <time>2017-07-16T15:11:31Z</time>
      </trkpt>
      <trkpt lat="45.12625" lon="4.53618">
        <ele>1139.78</ele>
        <time>2017-07-16T15:11:47Z</time>
      </trkpt>
      <trkpt lat="45.12605" lon="4.53618">
        <ele>1136.42</ele>
        <time>2017-07-16T15:12:01Z</time>
      </trkpt>
      <trkpt lat="45.12578" lon="4.53617">
        <ele>1134.49</ele>
        <time>2017-07-16T15:12:20Z</time>
      </trkpt>
      <trkpt lat="45.12554" lon="4.53614">
        <ele>1133.05</ele>
        <time>2017-07-16T15:12:37Z</time>
      </trkpt>
      <trkpt lat="45.12532" lon="4.53606">
        <ele>1126.32</ele>
        <time>2017-07-16T15:12:53Z</time>
      </trkpt>
      <trkpt lat="45.12512" lon="4.53601">
        <ele>1122.96</ele>
        <time>2017-07-16T15:13:09Z</time>
      </trkpt>
      <trkpt lat="45.12502" lon="4.53597">
        <ele>1121.03</ele>
        <time>2017-07-16T15:13:23Z</time>
      </trkpt>
      <trkpt lat="45.12494" lon="4.53596">
        <ele>1119.59</ele>
        <time>2017-07-16T15:13:38Z</time>
      </trkpt>
      <trkpt lat="45.12493" lon="4.53595">
        <ele>1119.11</ele>
        <time>2017-07-16T15:13:52Z</time>
      </trkpt>
      <trkpt lat="45.12492" lon="4.53594">
        <ele>1119.59</ele>
        <time>2017-07-16T15:14:11Z</time>
      </trkpt>
      <trkpt lat="45.1249" lon="4.53594">
        <ele>1119.11</ele>
        <time>2017-07-16T15:14:23Z</time>
      </trkpt>
      <trkpt lat="45.12479" lon="4.53593">
        <ele>1117.67</ele>
        <time>2017-07-16T15:14:35Z</time>
      </trkpt>
      <trkpt lat="45.12457" lon="4.53593">
        <ele>1114.79</ele>
        <time>2017-07-16T15:14:51Z</time>
      </trkpt>
      <trkpt lat="45.12435" lon="4.53585">
        <ele>1113.34</ele>
        <time>2017-07-16T15:15:07Z</time>
      </trkpt>
      <trkpt lat="45.12417" lon="4.5358">
        <ele>1112.86</ele>
        <time>2017-07-16T15:15:22Z</time>
      </trkpt>
      <trkpt lat="45.12399" lon="4.53578">
        <ele>1111.9</ele>
        <time>2017-07-16T15:15:36Z</time>
      </trkpt>
      <trkpt lat="45.12375" lon="4.53575">
        <ele>1111.42</ele>
        <time>2017-07-16T15:15:52Z</time>
      </trkpt>
      <trkpt lat="45.1236" lon="4.53573">
        <ele>1111.9</ele>
        <time>2017-07-16T15:16:08Z</time>
      </trkpt>
      <trkpt lat="45.12355" lon="4.53572">
        <ele>1113.82</ele>
        <time>2017-07-16T15:16:20Z</time>
      </trkpt>
      <trkpt lat="45.12341" lon="4.53573">
        <ele>1116.23</ele>
        <time>2017-07-16T15:16:34Z</time>
      </trkpt>
      <trkpt lat="45.12317" lon="4.53563">
        <ele>1119.59</ele>
        <time>2017-07-16T15:16:53Z</time>
      </trkpt>
      <trkpt lat="45.12299" lon="4.53555">
        <ele>1121.52</ele>
        <time>2017-07-16T15:17:09Z</time>
      </trkpt>
      <trkpt lat="45.12284" lon="4.53552">
        <ele>1121.03</ele>
        <time>2017-07-16T15:17:23Z</time>
      </trkpt>
      <trkpt lat="45.12271" lon="4.53551">
        <ele>1120.07</ele>
        <time>2017-07-16T15:17:34Z</time>
      </trkpt>
      <trkpt lat="45.12251" lon="4.53554">
        <ele>1119.11</ele>
        <time>2017-07-16T15:17:52Z</time>
      </trkpt>
      <trkpt lat="45.12228" lon="4.53555">
        <ele>1116.71</ele>
        <time>2017-07-16T15:18:11Z</time>
      </trkpt>
      <trkpt lat="45.12207" lon="4.53553">
        <ele>1115.75</ele>
        <time>2017-07-16T15:18:27Z</time>
      </trkpt>
      <trkpt lat="45.12183" lon="4.5355">
        <ele>1115.75</ele>
        <time>2017-07-16T15:18:45Z</time>
      </trkpt>
      <trkpt lat="45.12162" lon="4.5355">
        <ele>1117.19</ele>
        <time>2017-07-16T15:19:02Z</time>
      </trkpt>
      <trkpt lat="45.12158" lon="4.5355">
        <ele>1117.19</ele>
        <time>2017-07-16T15:19:06Z</time>
      </trkpt>
      <trkpt lat="45.12153" lon="4.5355">
        <ele>1117.19</ele>
        <time>2017-07-16T15:19:10Z</time>
      </trkpt>
      <trkpt lat="45.12141" lon="4.53548">
        <ele>1117.19</ele>
        <time>2017-07-16T15:19:24Z</time>
      </trkpt>
      <trkpt lat="45.12132" lon="4.53546">
        <ele>1117.19</ele>
        <time>2017-07-16T15:19:36Z</time>
      </trkpt>
      <trkpt lat="45.1211" lon="4.53548">
        <ele>1115.27</ele>
        <time>2017-07-16T15:19:54Z</time>
      </trkpt>
      <trkpt lat="45.12102" lon="4.5355">
        <ele>1115.27</ele>
        <time>2017-07-16T15:20:01Z</time>
      </trkpt>
      <trkpt lat="45.12096" lon="4.53549">
        <ele>1114.31</ele>
        <time>2017-07-16T15:20:10Z</time>
      </trkpt>
      <trkpt lat="45.12072" lon="4.53548">
        <ele>1109.5</ele>
        <time>2017-07-16T15:20:28Z</time>
      </trkpt>
      <trkpt lat="45.12054" lon="4.53554">
        <ele>1106.13</ele>
        <time>2017-07-16T15:20:44Z</time>
      </trkpt>
      <trkpt lat="45.12042" lon="4.5356">
        <ele>1105.65</ele>
        <time>2017-07-16T15:20:57Z</time>
      </trkpt>
      <trkpt lat="45.12029" lon="4.53565">
        <ele>1105.17</ele>
        <time>2017-07-16T15:21:08Z</time>
      </trkpt>
      <trkpt lat="45.12024" lon="4.53567">
        <ele>1104.69</ele>
        <time>2017-07-16T15:21:13Z</time>
      </trkpt>
      <trkpt lat="45.12018" lon="4.53568">
        <ele>1103.73</ele>
        <time>2017-07-16T15:21:18Z</time>
      </trkpt>
      <trkpt lat="45.12012" lon="4.5357">
        <ele>1102.77</ele>
        <time>2017-07-16T15:21:23Z</time>
      </trkpt>
      <trkpt lat="45.11994" lon="4.53581">
        <ele>1102.77</ele>
        <time>2017-07-16T15:21:39Z</time>
      </trkpt>
      <trkpt lat="45.11981" lon="4.5358">
        <ele>1097.96</ele>
        <time>2017-07-16T15:21:53Z</time>
      </trkpt>
      <trkpt lat="45.11975" lon="4.53581">
        <ele>1098.44</ele>
        <time>2017-07-16T15:22:06Z</time>
      </trkpt>
      <trkpt lat="45.11968" lon="4.53581">
        <ele>1097</ele>
        <time>2017-07-16T15:22:25Z</time>
      </trkpt>
      <trkpt lat="45.11963" lon="4.5358">
        <ele>1097.48</ele>
        <time>2017-07-16T15:22:46Z</time>
      </trkpt>
      <trkpt lat="45.11946" lon="4.53577">
        <ele>1097.48</ele>
        <time>2017-07-16T15:23:03Z</time>
      </trkpt>
      <trkpt lat="45.11931" lon="4.53576">
        <ele>1098.44</ele>
        <time>2017-07-16T15:23:17Z</time>
      </trkpt>
      <trkpt lat="45.1192" lon="4.53571">
        <ele>1099.4</ele>
        <time>2017-07-16T15:23:32Z</time>
      </trkpt>
      <trkpt lat="45.1192" lon="4.53574">
        <ele>1095.08</ele>
        <time>2017-07-16T15:23:47Z</time>
      </trkpt>
      <trkpt lat="45.1192" lon="4.53574">
        <ele>1094.6</ele>
        <time>2017-07-16T15:23:58Z</time>
      </trkpt>
      <trkpt lat="45.11921" lon="4.53574">
        <ele>1094.12</ele>
        <time>2017-07-16T15:24:14Z</time>
      </trkpt>
      <trkpt lat="45.11922" lon="4.53574">
        <ele>1094.12</ele>
        <time>2017-07-16T15:24:27Z</time>
      </trkpt>
      <trkpt lat="45.11922" lon="4.53573">
        <ele>1094.12</ele>
        <time>2017-07-16T15:24:43Z</time>
      </trkpt>
      <trkpt lat="45.11922" lon="4.53574">
        <ele>1094.12</ele>
        <time>2017-07-16T15:25:04Z</time>
      </trkpt>
      <trkpt lat="45.11923" lon="4.53574">
        <ele>1094.6</ele>
        <time>2017-07-16T15:25:21Z</time>
      </trkpt>
      <trkpt lat="45.11923" lon="4.53575">
        <ele>1095.56</ele>
        <time>2017-07-16T15:25:40Z</time>
      </trkpt>
      <trkpt lat="45.11923" lon="4.53575">
        <ele>1095.56</ele>
        <time>2017-07-16T15:25:53Z</time>
      </trkpt>
    </trkseg>
  </trk>
</gpx>